     2              OBSERVATION DATA    GPS                 RINEX VERSION / TYPE
TRRINEXO V2.4.6 UX                                          PGM / RUN BY / DATE
                                                            COMMENT
BIT 2 OF LLI (+4) FLAGS DATA COLLECTED UNDER "AS" CONDITION COMMENT
Original Marker Name: deso                                  COMMENT
Campaign Name: STRC 1995                                    COMMENT
4-Character Station Name: DESO                              COMMENT
6-Character Antenna Code: TRMSST                            COMMENT
Vertical Measurement Point: TGP                             COMMENT
Vertical Offset to Rinex Ref. Point: 0.0629                 COMMENT
Radial Measurement Point: NGP                               COMMENT
Radial Offset to Rinex Ref. Point: 0.2334                   COMMENT
Antenna Height from Field Measurement: 1.6180 m             COMMENT
Road near site was busy.                                    COMMENT
Original XYZ: -2278154.7835 -4797702.3623 3520393.9099      COMMENT
New XYZ position is based on association with SCEC monument COMMENT
E1D0V3K4+0011. Position of that monument is believed to be  COMMENT
valid to within 1 m horizontally; vertical accuracy         COMMENT
should be no worse than 3-times this value.                 COMMENT
                                                            COMMENT
Revised Rinex header created by UCSD GPS archive for        COMMENT
GSAC on 17-Apr-1999 (1999:107) 00:47:14 GMT                 COMMENT
For assistance contact dagnew@ucsd.edu or hjohnson@ucsd.edu COMMENT
                                                            COMMENT
DESO (3D)                                                   MARKER NAME
DESERT CENTER                                               MARKER NUMBER
R. Barriga IGM - CHILE                                      OBSERVER / AGENCY
436 TRIMBLE 4000 SST 4.81                                   REC # / TYPE / VERS
26 TR 4000SST L1/L2 GEO                                     ANT # / TYPE
 -2278130.0000 -4797651.0000  3520338.0000                  APPROX POSITION XYZ
        1.5382        0.0000        0.0000                  ANTENNA: DELTA H/E/N
     1     2     0                                          WAVELENGTH FACT L1/2
     3    C1    L1    L2                                    # / TYPES OF OBSERV
    30                                                      INTERVAL
  1995     2    19    16     0   30.000000                  TIME OF FIRST OBS
  1995     2    19    23    59   60.000000                  TIME OF LAST OBS
     0                                                      # OF SATELLITES
                                                            END OF HEADER
 95  2 19 16  0 30.0000000  0  6 25  1 15 14 22 29
  21396899.445          -0.23717
  24629374.078          -0.67115
  21859615.375          -0.43416
  21297697.516          -0.66117
  22655791.953          -0.58816
  23051834.828          -0.78316
 95  2 19 16  1  0.0000000  0  6 25  1 15 14 22 29
  21401986.648       26740.264 7        -0.47318
  24636597.961       37979.912 4
  21866492.102       36133.065 6        -0.39316
  21278645.070     -100127.542 7
  22633701.688     -116064.443 6        -0.36115
  23034190.812      -92727.205 6        -0.19015
 95  2 19 16  1 30.0000000  0  6 25  1 15 14 22 29
  21407132.438       53783.559 7     21072.210 8
  24643819.102       75934.258 3        -0.20912
  21873443.117       72648.506 6     28453.158 6
  21259638.773     -199993.555 7        -0.38418
  22611661.633     -231892.416 6    -90255.911 5
  23016550.320     -185440.998 6    -72244.690 5
 95  2 19 16  2  0.0000000  0  6 25  1 15 14 22 29
  21412339.117       81146.432 7     42393.912 8
  24651036.195      113856.525 3     29549.554 1
  21880461.617      109539.119 6     57199.055 6
  21240684.797     -299604.696 7    -77619.457 8
  22589666.016     -347487.699 6   -180330.145 5
  22998907.281     -278136.724 6   -144475.117 5
 95  2 19 16  2 30.0000000  0  6 25  1 15 14 22 29
  21417609.867      108835.321 7     63969.653 8
  24658248.688      151734.587 4     59064.855 2
  21887550.734      146804.392 6     86236.887 6
  21221781.438     -398944.817 7   -155027.341 8
  22567708.555     -462861.000 6   -270231.402 5
  22981279.273     -370793.056 6   -216674.838 5
 95  2 19 16  3  0.0000000  0  6 25  1 15 14 22 29
  21422938.953      136839.896 7     85791.381 8
  24665444.953      189567.474 5
  21894709.539      184439.140 6
  21202928.805     -498004.245 7   -232216.511 8
  22545799.258     -578024.445 6   -359969.154 5
  22963657.211     -463396.666 6   -288833.483 5
 95  2 19 16  3 30.0000000  0  6 25  1 15 14 22 29
  21428326.711      165163.325 7    107861.565 8
  24672639.633      227363.282 5
  21901948.945      222449.133 6    145180.761 6
  21184136.125     -596770.595 7   -309177.303 8
  22523920.758     -692977.339 6   -449542.824 5
  22946049.711     -555919.348 6   -360929.067 5
 95  2 19 16  4  0.0000000  0  6 25  1 15 14 22 29
  21433776.414      193788.993 7    130167.263 8
  24679822.656      265110.239 5        -0.19812
  21909249.383      260817.583 6    175078.208 6
  21165392.789     -695261.316 7   -385923.317 8
  22502087.508     -807727.603 6   -538958.619 5
  22928456.109     -648382.376 6   -432978.175 5
 95  2 19 16  4 30.0000000  0  6 25  1 15 14 22 29
  21439280.852      222716.281 7    152707.990 8
  24687001.039      302843.515 5     29402.243 1
  21916618.875      299563.363 6    205269.678 6
  21146708.172     -793452.866 7   -462436.210 8
  22480292.352     -922238.600 6   -628187.967 5
  22910870.539     -740779.335 6   -504975.790 5
 95  2 19 16  5  0.0000000  0  6 25  1 15 14 22 29
  21444840.953      251945.304 7    175483.827 8
  24694179.164      340573.668 5     58802.299 2
  21924066.523      338679.645 6    235749.857 6
  21128077.250     -891358.883 7   -538726.612 8
  22458552.922    -1036479.726 6   -717207.017 6
  22893296.836     -833132.489 6   -576939.288 5
 95  2 19 16  5 30.0000000  0  6 25  1 15 14 22 29
  21450462.172      281468.329 7    198488.768 8
  24701358.070      378286.354 5     88188.743 3
  21931572.320      378148.527 6    266504.784 6
  21109495.648     -989004.971 7   -614814.474 8
  22436870.336    -1150442.313 6   -806009.024 6
  22875724.164     -925476.375 6   -648895.558 5
 95  2 19 16  6  0.0000000  0  6 25  1 15 14 22 29
  21456132.344      311276.610 7    221715.984 8
  24708535.398      415990.174 5    117568.260 4
  21939156.805      417977.863 6    297540.589 6
  21090964.922    -1086385.212 7   -690695.185 8
  22415239.773    -1264097.766 6   -894571.706 5
  22858158.625    -1017801.884 6   -720837.497 5
 95  2 19 16  6 30.0000000  0  6 25  1 15 14 22 29
  21461858.703      341364.721 7    245161.247 8
  24715708.977      453678.657 5    146935.814 3
  21946798.398      458166.389 6    328856.285 6
  21072484.781    -1183494.304 7   -766364.604 8
  22393672.070    -1377441.219 6   -982891.265 6
  22840594.938    -1110085.397 6   -792746.721 5
 95  2 19 16  7  0.0000000  0  6 25  1 15 14 22 29
  21467638.070      371729.730 7    268822.276 8
  24722868.945      491334.884 5    176278.262 3
  21954517.062      498703.073 6    360443.260 6
  21054055.375    -1280339.956 7   -841828.753 8
  22372156.828    -1490493.626 6  -1070984.035 6
  22823044.391    -1202319.253 6   -864617.254 5
 95  2 19 16  7 29.9990000  0  6 25  1 15 14 22 29
  21473464.308      402356.398 7    292687.193 8
  24730032.073      528959.762 5    205596.256 4
  21962296.862      539590.068 6    392303.209 6
  21035681.128    -1376898.582 7   -917069.241 8
  22350698.604    -1603267.345 6  -1158859.636 6
  22805505.542    -1294482.176 6   -936432.515 5
 95  2 19 16  7 59.9990000  0  6 25  1 15 14 22 29
  21479341.808      433235.601 7    316748.894 9
  24737184.136      566550.602 5    234887.731 4
  21970139.776      580826.145 6    424435.163 6
  21017366.050    -1473154.424 7   -992073.797 8
  22329286.417    -1715789.709 6  -1246539.380 6
  22787982.894    -1386566.745 6  -1008186.719 5
 95  2 19 16  8 29.9990000  0  5 25 15 14 22 29
  21485267.972      464377.682 7    341015.428 8
  21978055.354      622402.659 6    456832.401 6
  20999109.011    -1569090.512 7  -1066829.195 8
  22307920.417    -1828072.619 6  -1334032.531 6
  22770473.276    -1478577.841 6  -1079883.672 5
 95  2 19 16  8 59.9990000  0  5 25 15 14 22 29
  21491246.269      495793.629 7    365495.367 9
  21986035.620      664326.609 6    489500.369 6
  20980917.042    -1664698.840 7  -1141329.198 8
  22286600.722    -1940109.474 6  -1421333.946 6
  22752974.183    -1570528.351 6  -1151533.426 5
 95  2 19 16  9 29.9990000  0  5 25 15 14 22 29
  21497274.112      527477.532 7    390184.096 8
  21994076.964      706589.061 6    522432.103 6
  20962781.831    -1759989.388 7  -1215581.578 8
  22265327.745    -2051887.914 6  -1508433.995 6
  22735487.690    -1662443.989 6  -1223155.991 5
 95  2 19 16  9 59.9990000  0  5 25 15 14 22 29
  21503357.597      559449.216 7    415097.076 9
  22002183.206      749187.511 6    555625.649 6
  20944706.394    -1854975.343 7  -1289596.606 8
  22244109.370    -2163391.164 6  -1595319.596 6
  22718000.081    -1754333.414 6  -1294758.140 5
 95  2 19 16 10 29.9990000  0  5 25 15 14 22 29
  21509498.901      591717.673 7    440241.303 8
  22010352.987      792119.697 6    589079.262 6
  20926687.831    -1949670.413 7  -1363384.975 8
  22222949.690    -2274597.438 6  -1681973.809 6
  22700515.644    -1846202.337 6  -1366344.304 5
 95  2 19 16 10 59.9990000  0  5 25 15 14 22 29
  21515694.659      624273.774 7    465609.671 8
  22018586.433      835382.878 6    622790.782 6
  20908721.050    -2044087.165 7  -1436956.471 8
  22201846.675    -2385491.375 6  -1768384.643 6
  22683037.159    -1938051.644 6  -1437915.187 5
 95  2 19 16 11 29.9990000  0  5 25 15 14 22 29
  21521944.604      657124.763 7    491207.813 8
  22026879.183      878979.175 6    656761.873 6
  20890810.940    -2138205.423 7  -1510295.378 8
  22180805.644    -2496056.863 6  -1854539.518 6
  22665569.667    -2029861.851 6  -1509455.599 6
 95  2 19 16 11 59.9990000  0  5 25 15 14 22 29
  21528249.425      690255.318 7    517023.807 8
  22035238.253      922895.133 6    690982.051 6
  20872956.464    -2232025.203 7  -1583401.709 8
  22159828.714    -2606308.017 6  -1940449.472 6
  22648106.636    -2121628.412 6  -1580961.999 5
 95  2 19 16 12 29.9990000  0  5 25 15 14 22 29
  21534605.495      723653.096 7    543048.027 8
  22043656.222      967134.078 6    725453.908 6
  20855162.940    -2325536.247 7  -1656267.455 8
  22138904.464    -2716249.163 6  -2026117.861 6
  22630651.979    -2213340.033 6  -1652425.592 5
 95  2 19 16 12 59.9990000  0  5 25 15 14 22 29
  21541008.479      757300.960 7    569267.117 8
  22052135.479     1011690.679 6    760173.288 6
  20837428.440    -2418736.772 7  -1728891.245 8
  22118039.534    -2825898.750 6  -2111559.066 6
  22613210.214    -2304993.944 6  -1723844.223 6
 95  2 19 16 13 29.9990000  0  5 25 15 14 22 29
  21547457.159      791193.468 7    595676.838 8
  22060675.917     1056561.059 6    795137.172 6
  20819751.933    -2511613.938 7  -1801263.067 8
  22097226.870    -2935271.152 6  -2196784.281 6
  22595781.753    -2396588.198 6  -1795216.357 5
 95  2 19 16 13 59.9990000  0  5 25 15 14 22 29
  21553954.972      825331.277 7    622277.706 8
  22069274.644     1101749.385 6    830348.805 6
  20802141.159    -2604166.454 7  -1873381.914 8
  22076466.620    -3044366.696 6  -2281793.760 6
  22578364.503    -2488111.354 6  -1866533.080 5
 95  2 19 16 14 29.9990000  0  5 25 15 14 22 29
  21560495.683      859703.902 7    649061.543 8
  22077928.136     1147242.480 6    865797.912 6
  20784591.190    -2696398.696 7  -1945251.197 8
  22055756.151    -3153194.003 6  -2366594.227 6
  22560957.995    -2579572.576 6  -1937801.547 5
 95  2 19 16 14 59.9990000  0  5 25 15 14 22 29
  21567083.933      894325.429 7    676039.327 8
  22086642.151     1193038.518 6    901483.079 6
  20767106.636    -2788282.519 7  -2016848.987 8
  22035103.050    -3261727.651 6  -2451165.883 6
  22543567.448    -2670972.626 6  -2009022.355 5
 95  2 19 16 15 29.9990000  0  5 25 15 14 22 29
  21573720.401      929204.423 7    703217.735 8
  22095417.823     1239138.003 6    937404.703 6
  20749686.917    -2879807.268 7
  22014515.034    -3369925.235 6  -2535475.668 6
  22526186.690    -2762311.675 6
 95  2 19 16 15 59.9990000  0  5 25 15 14 22 29
  21580409.604      964347.096 7    730601.607 8
  22104248.729     1285541.995 6    973563.612 6
  20732336.706    -2970978.436 7  -2159209.444 8
  21993998.237    -3477753.141 6  -2619497.378 6
  22508816.683    -2853596.264 6  -2151326.458 6
 95  2 19 16 16 29.9990000  0  5 25 15 14 22 29
  21587143.761      999744.180 7    758183.722 8
  22113132.323     1332241.310 6   1009952.632 6
  20715057.565    -3061793.620 7  -2229974.538 8
  21973548.714    -3585205.698 6  -2703226.630 6
  22491451.972    -2944840.227 6  -2222425.639 6
 95  2 19 16 16 59.9990000  0  5 25 15 14 22 29
  21593927.862     1035390.091 7    785959.728 7
  22122077.401     1379227.527 6   1046565.214 6
  20697839.612    -3152270.274 7  -2300475.827 8
  21953169.917    -3692283.174 6  -2786663.610 6
  22474098.183    -3036054.310 6  -2293501.541 5
 95  2 19 16 17 29.9990000  0  5 25 15 14 22 29
  21600755.362     1071275.889 7    813922.656 8
  22131070.542     1426505.275 6   1083404.961 6
  20680684.222    -3242428.802 7  -2370729.234 8
  21932864.917    -3798998.135 6  -2869818.102 6
  22456742.347    -3127237.827 6  -2364553.621 6
 95  2 19 16 17 59.9990000  0  5 25 15 14 22 29
  21607634.722     1107415.548 7    842083.402 8
  22140124.425     1474080.429 6   1120476.462 6
  20663588.925    -3332256.393 7  -2440724.766 8
  21912621.440    -3905383.127 6  -2952715.485 6
  22439399.065    -3218376.247 6  -2435570.561 6
 95  2 19 16 18 29.9990000  0  5 25 15 14 22 29
  21614557.409     1143799.551 7    870434.542 8
  22149234.409     1521941.642 6   1157770.844 6
  20646560.870    -3421748.883 7  -2510459.172 8
  21892435.870    -4011466.469 6  -3035377.820 6
  22422065.276    -3309460.233 6  -2506545.088 6
 95  2 19 16 18 59.9990000  0  5 25 15 14 22 29
  21621528.159     1180425.275 7    898974.038 8
  22158394.823     1570085.356 6   1195285.374 6
  20629594.448    -3510909.619 7  -2579935.078 8
  21872302.800    -4117246.235 6  -3117803.603 6
  22404743.097    -3400498.643 6  -2577484.092 6
 95  2 19 16 19 29.9990000  0  5 25 15 14 22 29
  21628543.761     1217292.635 7    927701.820 8
  22167609.901     1618509.966 6   1233018.780 6
  20612694.792    -3599716.064 7  -2649134.913 8
  21852231.737    -4222719.049 6  -3199990.204 6
  22387430.690    -3491483.000 6  -2648380.993 6
 95  2 19 16 19 59.9990000  0  5 25 15 14 22 29
  21635605.315     1254410.106 7    956624.485 8
  22176876.683     1667214.516 6   1270970.325 6
  20595866.433    -3688149.029 7  -2718043.722 8
  21832224.354    -4327865.807 6  -3281922.729 6
  22370129.183    -3582403.064 6  -2719227.788 6
 95  2 19 16 20 29.9990000  0  5 25 15 14 22 29
  21642711.800     1291749.468 7    985720.062 7
  22186195.089     1716186.092 6   1309129.938 6
  20579106.378    -3776222.623 7  -2786672.502 9
  21812282.370    -4432661.004 6  -3363581.324 6
  22352832.761    -3673280.032 6  -2790041.000 6
 95  2 19 16 20 59.9990000  0  5 25 15 14 22 29
  21649858.354     1329307.848 7   1014986.297 7
  22195567.878     1765427.077 6   1347499.481 6
  20562416.565    -3863928.416 7  -2855014.680 9
  21792413.448    -4537081.149 6  -3444947.661 6
  22335547.440    -3764121.072 6  -2860826.215 6
 95  2 19 16 21 29.9990000  0  5 25 15 14 22 29
  21657044.894     1367072.851 7   1044413.530 7
  22204983.776     1814927.621 6   1386071.285 6
  20545793.448    -3951271.250 7  -2923074.040 8
  21772613.620    -4641132.411 6  -3526026.565 6
  22318270.589    -3854920.485 6  -2931579.001 6
 95  2 19 16 21 59.9990000  0  5 25 15 14 22 29
  21664271.933     1405049.948 7   1074006.038 8
  22214457.862     1864690.508 6   1424847.506 6
  20529243.354    -4038255.076 7  -2990853.655 9
  21752885.440    -4744795.276 6  -3606802.818 6
  22300999.042    -3945678.112 6  -3002299.220 6
 95  2 19 16 22 29.9990000  0  5 25 15 14 22 29
  21671539.940     1443242.621 7   1103766.526 8
  22223976.769     1914714.262 6   1463827.007 6
  20512759.448    -4124879.117 7  -3058352.909 9
  21733230.011    -4848068.956 6  -3687275.806 6
  22283740.550    -4036388.499 6  -3072982.629 6
 95  2 19 16 22 59.9990000  0  5 25 15 14 22 29
  21678854.651     1481675.840 7   1133714.457 8
  22233544.651     1965006.637 6   1503015.809 6
  20496345.362    -4211131.108 7  -3125562.257 8
  21713653.479    -4950956.612 6  -3767447.995 6
  22266491.862    -4127028.323 6  -3143611.044 6
 95  2 19 16 23 29.9990000  0  5 25 15 14 22 29
  21686215.065     1520355.868 7   1163854.704 7
  22243165.222     2015559.298 6   1542407.441 6
  20479999.183    -4297020.462 7  -3192489.030 8
  21694145.753    -5053471.051 6  -3847329.373 6
  22249257.331    -4217599.219 6  -3214185.760 6
 95  2 19 16 23 59.9990000  0  5 25 15 14 22 29
  21693618.769     1559273.675 7   1194180.226 7
  22252832.253     2066359.065 6   1581991.615 6
  20463725.854    -4382548.000 7  -3259133.871 9
  21674711.167    -5155616.022 6  -3926922.847 6
  22232028.409    -4308116.094 6  -3284718.382 6
 95  2 19 16 24 29.9990000  0  5 25 15 14 22 29
  21701069.940     1598422.073 7   1224685.425 7
  22262544.761     2117403.164 6   1621766.182 6
  20447523.597    -4467703.147 7  -3325488.543 9
  21655338.987    -5257399.448 6  -4006234.607 6
  22214815.534    -4398575.541 6  -3355206.257 6
 95  2 19 16 24 59.9990000  0  5 25 15 14 22 29
  21708566.151     1637806.523 7   1255374.568 7
  22272307.901     2168701.397 6   1661738.779 6
  20431392.362    -4552466.836 7  -3391538.170 8
  21636041.651    -5358797.595 6  -4085246.132 6
  22197615.120    -4488970.093 6  -3425643.558 6
 95  2 19 16 25 29.9990000  0  5 25 15 14 22 29
  21716100.901     1677406.792 7   1286231.879 7
  22282116.245     2220245.914 6   1701903.294 6
  20415337.729    -4636832.793 7  -3457277.886 8
  21616821.167    -5459808.193 6  -4163955.682 6
  22180426.831    -4579304.295 6  -3496033.841 6
 95  2 19 16 25 59.9990000  0  5 25 15 14 22 29
  21723673.995     1717205.870 7   1317244.110 7
  22291974.183     2272031.921 6   1742255.964 6
  20399358.183    -4720798.860 7  -3522705.993 8
  21597674.269    -5560429.475 6  -4242361.868 6
  22163246.128    -4669577.911 6  -3566376.908 6
 95  2 19 16 26 29.9990000  0  5 25 15 14 22 29
  21731283.534     1757196.736 7   1348405.786 7
  22301869.808     2324051.628 6   1782790.750 5
  20383454.565    -4804376.432 7  -3587831.380 8
  21578602.089    -5660665.083 6  -4320467.525 6
  22146077.019    -4759791.889 6  -3636673.503 6
 95  2 19 16 26 59.9990000  0  5 25 15 14 22 29
  21738932.612     1797381.669 7   1379718.682 7
  22311813.042     2376304.266 6   1823507.032 6
  20367622.394    -4887571.981 7  -3652659.094 8
  21559601.894    -5760512.843 6  -4398270.962 6
  22128921.878    -4849953.074 6  -3706928.967 6
 95  2 19 16 27 29.9990000  0  5 25 15 14 22 29
  21746613.519     1837758.154 7   1411180.843 7
  22321799.237     2428783.991 6   1864400.273 5
  20351865.683    -4970385.957 7  -3717189.475 8
  21540673.112    -5859970.932 6  -4475770.758 6
  22111775.526    -4940058.293 6  -3777140.811 6
 95  2 19 16 27 59.9990000  0  5 25 15 14 22 29
  21754337.323     1878339.412 7   1442802.558 7
  22331829.565     2481491.763 6   1905471.199 5
  20336179.737    -5052818.059 7  -3781422.287 8
  21521825.667    -5959018.659 6  -4552950.789 6
  22094638.198    -5030108.854 6  -3847310.075 6
 95  2 19 16 28 29.9990000  0  5 25 15 14 22 29
  21762098.331     1919130.485 7   1474587.763 7
  22341902.261     2534419.630 6   1946713.634 5
  20320562.995    -5134872.599 7  -3845360.903 8
  21503057.753    -6057648.307 6  -4629805.047 6
  22077517.386    -5120107.468 6  -3917438.861 6
 95  2 19 16 28 59.9990000  0  5 25 15 14 22 29
  21769900.745     1960134.386 7   1506538.814 7
  22352019.112     2587572.631 6   1988131.492 5
  20305023.370    -5216533.347 7  -3908992.662 8
  21484371.214    -6155853.160 6  -4706328.292 6
  22060396.565    -5210040.902 6  -3987516.862 6
 95  2 19 16 29 29.9990000  0  5 25 15 14 22 29
  21777742.784     2001341.064 7   1538647.876 7
  22362174.675     2640940.812 6   2029717.026 5
  20289561.753    -5297789.406 7  -3972309.078 8
  21465761.597    -6253633.324 6  -4782520.610 7
  22043296.769    -5299913.813 6  -4057547.701 6
 95  2 19 16 29 59.9980000  0  5 25 15 14 22 29
  21785622.467     2042751.209 7   1570915.477 7
  22372368.357     2694527.383 5   2071472.743 5
  20274179.881    -5378624.901 7  -4035297.789 8
  21447237.006    -6350992.607 6  -4858384.970 7
  22026204.217    -5389729.995 6  -4127534.338 6
 95  2 19 16 30 29.9980000  0  5 25 15 14 22 29
  21793534.897     2084330.128 7   1603314.594 7
  22382605.623     2748316.069 5   2113385.945 5
  20258872.654    -5459056.022 7  -4097971.400 8
  21428780.756    -6447977.081 6  -4933957.271 6
  22009123.326    -5479510.993 6  -4197493.558 6
 95  2 19 16 30 59.9980000  0  5 25 15 14 22 29
  21801481.897     2126080.188 7   1635847.063 7
  22392885.420     2802312.870 5   2155461.312 5
  20243646.717    -5539067.814 7  -4160318.264 8
  21410397.678    -6544583.484 6  -5009234.967 7
  21992046.506    -5569248.838 6  -4267419.156 6
 95  2 19 16 31 29.9980000  0  5 25 15 14 22 29
  21809461.771     2168013.987 7   1668522.702 7
  22403191.740     2856514.401 5   2197696.216 5
  20228504.350    -5618660.816 7  -4222338.797 8
  21392084.865    -6640803.610 6  -5084211.674 7
  21974973.225    -5658951.810 6  -4337317.576 6
 95  2 19 16 31 59.9980000  0  5 25 15 14 22 29
  21817478.100     2210149.510 7   1701355.530 7
  22413549.646     2910933.112 6   2240100.330 5
  20213439.295    -5697831.168 7  -4284029.994 8
  21373852.475    -6736619.423 6  -5158873.332 7
  21957916.482    -5748588.340 6  -4407164.227 6
 95  2 19 16 32 29.9980000  0  5 25 15 14 22 29
  21825534.834     2252490.370 7   1734348.362 7
  22423941.326     2965551.356 6   2282659.928 5
  20198446.521    -5776605.859 7  -4345412.891 8
  21355698.904    -6832023.079 6  -5233213.823 6
  21940870.162    -5838156.630 6  -4476957.704 6
 95  2 19 16 32 59.9980000  0  5 25 15 14 22 29
  21833634.990     2295052.984 7   1767513.988 7
  22434372.639     3020362.788 5   2325370.073 5
  20183530.350    -5854988.440 7  -4406490.237 8
  21337628.475    -6926989.950 6  -5307213.968 6
  21923843.443    -5927654.452 6  -4546696.269 6
 95  2 19 16 33 29.9980000  0  5 25 15 14 22 29
  21841775.873     2337837.459 7   1800852.490 7
  22444842.107     3075378.184 6   2368239.145 5
  20168693.709    -5932949.759 7  -4467239.334 8
  21319647.412    -7021485.857 6  -5380847.120 7
  21906828.154    -6017065.465 6  -4616367.200 6
 95  2 19 16 33 59.9980000  0  5 25 15 14 22 29
  21849950.436     2380798.671 7   1834328.712 7
  22455344.521     3130570.811 5   2411246.320 5
  20153937.459    -6010506.647 7  -4527673.292 8
  21301748.248    -7115535.105 6  -5454132.228 7
  21889825.037    -6106414.927 6  -4685990.153 6
 95  2 19 16 34 29.9980000  0  5 25 15 14 22 29
  21858161.123     2423934.830 7   1867941.256 7
  22465883.826     3185949.432 5   2454398.428 5
  20139259.443    -6087632.242 7  -4587771.173 8
  21283940.186    -7209119.068 6  -5527054.773 7
  21872832.834    -6195707.427 6  -4755568.729 6
 95  2 19 16 34 59.9980000  0  5 25 15 14 22 29
  21866394.318     2467206.851 7   1901659.660 7
  22476455.396     3241508.542 5   2497691.173 5
  20124667.881    -6164303.603 7  -4647515.094 8
  21266217.990    -7302252.575 6  -5599626.314 7
  21855852.029    -6284962.980 6  -4825118.516 6
 95  2 19 16 35 29.9980000  0  5 25 15 14 22 29
  21874654.990     2510610.110 7   1935480.332 7
  22487063.217     3297254.722 5   2541129.690 5
  20110170.959    -6240504.183 7  -4706892.185 8
  21248574.975    -7394945.485 6  -5671854.543 6
  21838867.795    -6374191.567 6  -4894647.284 6
 95  2 19 16 35 59.9980000  0  5 25 15 14 22 29
  21882939.748     2554149.882 7   1969407.382 7
  22497707.357     3353178.676 5   2584706.720 5
  20095754.412    -6316256.408 7  -4765919.907 8
  21231017.709    -7487222.121 6  -5743758.391 7
  21821898.654    -6463394.122 6  -4964155.766 6
 95  2 19 16 36 29.9980000  0  5 25 15 14 22 29
  21891253.771     2597836.937 7   2003449.191 7
  22508383.225     3409283.207 5   2628424.458 5
  20081421.029    -6391561.306 7  -4824599.061 8
  21213543.193    -7579065.589 6  -5815324.708 7
  21804926.561    -6552559.183 6  -5033635.036 6
 95  2 19 16 36 59.9980000  0  6 25 18 15 14 22 29
  21899594.889     2641670.371 7   2037605.058 7
  24187361.818          -0.33212
  22519091.256     3465549.894 6   2672268.559 5
  20067172.592    -6466449.905 7  -4882953.825 8
  21196147.115    -7670479.234 7  -5886556.096 7
  21787964.412    -6641693.353 6  -5103090.231 6
 95  2 19 16 37 29.9980000  0  6 25 18 15 14 22 29
  21907972.459     2685693.082 7   2071908.422 7
  24165443.279     -115225.588 3        -0.08111
  22529831.803     3521994.170 5   2716251.052 5
  20053004.193    -6540917.832 7  -4940980.792 8
  21178839.451    -7761421.995 7  -5957420.570 7
  21771018.912    -6730748.235 6  -5172483.658 6
 95  2 19 16 37 59.9980000  0  6 25 18 15 14 22 29
  21916383.295     2729902.975 7   2106357.638 7
  24143512.803     -230447.240 3    -89783.161 2
  22540605.092     3578607.805 6   2760365.517 5
  20038908.959    -6614977.007 7  -4998689.254 8
  21161630.123    -7851871.056 7  -6027900.331 7
  21754089.100    -6819702.953 6  -5241799.019 6
 95  2 19 16 38 29.9980000  0  6 25 18 15 14 22 29
  21924832.662     2774296.631 7   2140950.047 7
  24121584.889     -345677.978 3
  22551408.826     3635382.314 5   2804605.328 5
  20024896.436    -6688620.408 7  -5056073.734 8
  21144513.764    -7941803.573 7  -6097977.600 7
  21737177.232    -6908577.860 6  -5311052.186 6
 95  2 19 16 38 59.9980000  0  6 25 18 15 14 22 29
  21933315.053     2818878.822 7   2175689.370 7
  24099654.420     -460928.225 3        -0.19611
  22562244.678     3692314.985 5   2848968.395 5
  20010965.818    -6761831.115 7  -5113121.050 8
  21127498.404    -8031232.603 6  -6167662.545 7
  21720279.545    -6997368.350 6  -5380239.579 6
 95  2 19 16 39 29.9980000  0  6 25 18 15 14 22 29
  21941833.561     2863643.351 7   2210570.772 7
  24077717.701     -576220.453 3    -89838.281 1
  22573107.373     3749405.541 5   2893454.473 5
  19997118.162    -6834597.595 7  -5169822.204 8
  21110572.475    -8120181.104 7
  21703400.498    -7086075.367 6
 95  2 19 16 39 59.9980000  0  6 25 18 15 14 22 29
  21950387.889     2908592.376 7   2245595.933 6
  24055768.803     -691544.384 4   -179701.081 1
  22584001.467     3806656.715 5   2938065.708 5
  19983356.436    -6906912.009 7  -5226171.125 8
  21093734.943    -8208661.829 7  -6305919.051 7
  21686530.021    -7174711.223 6  -5518428.835 6
 95  2 19 16 40 29.9980000  0  6 25 18 15 14 22 29
  21958972.506     2953711.373 7   2280753.544 7
  24033817.584     -806897.781 4
  22594929.451     3864060.089 5   2982795.545 5
  19969681.256    -6978768.048 7  -5282162.855 8
  21076981.521    -8296694.398 7  -6374515.843 7
  21669677.975    -7263291.051 6  -5587452.079 6
 95  2 19 16 40 59.9980000  0  6 25 18 15 14 22 29
  21967588.592     2998977.259 7   2316025.612 7
  24011859.193     -922268.138 4
  22605878.561     3921607.474 5   3027637.598 5
  19956094.154    -7050177.910 7  -5337806.909 8
  21060307.896    -8384307.886 7  -6442786.074 7
  21652832.787    -7351803.713 6  -5656422.985 6
 95  2 19 16 41 29.9980000  0  6 25 18 15 14 22 29
  21976230.443     3044388.319 6   2351410.801 7
  23989905.646    -1037647.558 4        -0.43311
  22616856.232     3979301.334 5   3072593.789 5
  19942591.896    -7121132.106 7  -5393095.907 8
  21043721.303    -8471477.231 7  -6510710.220 7
  21636004.295    -7440247.720 6  -5725340.388 6
 95  2 19 16 41 59.9980000  0  6 25 18 15 14 22 29
  21984897.061     3089939.264 6   2386904.984 6
  23967952.076    -1153016.840 3    -89898.521 1
  22627862.779     4037141.494 5   3117663.967 5
  19929180.428    -7191612.482 7  -5448015.688 8
  21027222.764    -8558169.635 7  -6578262.725 7
  21619186.225    -7528625.010 6  -5794205.804 6
 95  2 19 16 42 29.9980000  0  6 25 18 15 14 22 29
  21993587.740     3135613.023 6   2422494.882 6
  23946000.771    -1268376.942 3   -179789.608 1
  22638896.490     4095122.845 5   3162844.173 5
  19915860.498    -7261602.481 7  -5502553.362 8
  21010820.959    -8644382.965 7  -6645441.937 7
  21602381.881    -7616935.778 6  -5863019.395 6
 95  2 19 16 42 59.9980000  0  6 25 18 15 14 22 29
  22002301.709     3181404.770 6   2458176.710 6
  23924043.092    -1383748.692 3   -269689.584 1
  22649953.029     4153233.657 5   3208125.265 5
  19902636.037    -7331109.496 7  -5556714.678 8
  20994499.248    -8730126.300 7  -6712254.905 7
  21585588.467    -7705188.469 6  -5931787.726 6
 95  2 19 16 43 29.9980000  0  6 25 18 15 14 22 29
  22011041.178     3227329.567 6   2493962.190 6
  23902088.764    -1499136.031 3   -359601.768 1
  22661036.998     4211476.297 5   3253509.059 5
  19889499.521    -7400124.367 7  -5610492.516 8
  20978281.334    -8815372.856 7  -6778680.771 7
  21568807.842    -7793380.867 6  -6000509.071 7
 95  2 19 16 43 59.9980000  0  6 25 18 15 14 22 29
  22019806.623     3273386.549 6   2529850.704 6
  23880129.115    -1614533.632 2
  22672142.420     4269842.865 5   3298989.432 5
  19876459.771    -7468670.832 7  -5663905.356 8
  20962148.842    -8900134.767 7  -6844729.005 7
  21552032.670    -7881512.345 6  -6069182.948 6
 95  2 19 16 44 29.9980000  0  6 25 18 15 14 22 29
  22028599.826     3319591.757 6   2565854.701 6
  23858168.506    -1729935.361 2
  22683275.303     4328338.198 5   3344570.137 5
  19863501.404    -7536754.495 7  -5716957.576 8
  20946115.654    -8984412.848 7  -6910400.220 7
  21535278.193    -7969566.211 6  -6137796.342 7
 95  2 19 16 44 59.9980000  0  6 25 18 15 14 22 29
  22037422.873     3365967.809 6   2601991.825 6
  23836209.404    -1845337.010 2        -0.20411
  22694430.209     4386957.227 5   3390247.233 5
  19850631.709    -7604395.439 7  -5769664.807 8
  20930170.998    -9068182.706 7  -6975675.422 7
  21518536.709    -8057539.506 6  -6206346.963 6
 95  2 19 16 45 29.9980000  0  6 25 18 15 14 22 29
  22046281.545     3412515.135 6   2638262.402 6
  23814249.959    -1960738.748 3    -89923.557 1
  22705606.748     4445695.363 5   3436017.125 5
  19837840.584    -7671602.071 7  -5822033.619 8
  20914331.217    -9151436.270 7  -7040548.311 7
  21501811.389    -8145436.194 6  -6274837.888 6
 95  2 19 16 45 59.9980000  0  6 25 18 15 14 22 29
  22055171.107     3459221.823 6   2674657.163 6
  23792285.639    -2076140.727 3   -179847.147 1
  22716804.959     4504550.061 5   3481877.842 5
  19825137.498    -7738359.432 7  -5874052.350 8
  20898582.576    -9234179.305 7  -7105023.396 7
  21485102.318    -8233262.307 6  -6343273.823 7
 95  2 19 16 46 29.9980000  0  6 25 18 15 14 22 29
  22064083.920     3506063.016 6   2711156.731 6
  23770323.842    -2191568.523 3   -269790.827 1
  22728026.084     4563509.353 5   3527820.074 5
  19812522.717    -7804657.550 7  -5925713.227 8
  20882934.389    -9316418.355 7  -7169105.758 7
  21468397.396    -8321035.078 6  -6411668.179 7
 95  2 19 16 46 59.9980000  0  6 25 18 15 14 22 29
  22073022.967     3553035.613 6   2747758.684 6
  23748358.154    -2307024.605 3   -359756.535 2
  22739266.623     4622579.296 5   3573848.524 5
  19799994.982    -7870468.850 7  -5976994.766 8
  20867381.873    -9398153.112 7  -7232795.166 7
  21451706.029    -8408748.061 6  -6480015.962 7
 95  2 19 16 47 29.9980000  0  6 25 18 15 14 22 29
  22081982.342     3600111.082 6   2784440.803 6
  23726371.936    -2422519.299 4   -449752.382 2
  22750527.029     4681757.871 5   3619961.624 4
  19787572.100    -7935773.418 7  -6027881.446 8
  20851919.561    -9479402.896 7  -7296106.682 7
  21435025.209    -8496393.633 6  -6548311.215 7
 95  2 19 16 47 59.9980000  0  6 25 18 15 14 22 29
  22090958.014     3647281.030 6   2821196.540 6
  23704391.951    -2538039.455 4   -539768.060 3
  22761812.021     4741038.247 5   3666154.058 5
  19775243.943    -8000558.125 7  -6078363.047 8
  20836550.021    -9560166.913 7  -7359039.671 7
  21418365.420    -8583959.747 7  -6616544.542 7
 95  2 19 16 48 29.9980000  0  6 25 18 15 14 22 29
  22099953.654     3694562.562 6   2858039.231 6
  23682405.615    -2653572.115 3   -629793.468 2
  22773109.701     4800418.749 5   3712424.498 4
  19763011.459    -8064832.861 7  -6128447.268 8
  20821276.334    -9640439.330 7  -7421589.600 7
  21401716.014    -8671433.307 7  -6684705.762 7
 95  2 19 16 48 59.9980000  0  6 25 18 15 14 22 29
  22108974.654     3741972.315 6   2894981.830 6
  23660423.670    -2769099.999 3   -719815.201 2
  22784423.467     4859892.488 5   3758767.587 3
  19750875.881    -8128614.574 7  -6178147.306 8
  20806094.521    -9720209.628 7  -7483748.264 7
  21385088.834    -8758814.078 7  -6752794.672 7
 95  2 19 16 49 29.9980000  0  6 25 18 15 14 22 29
  22118023.342     3789505.196 6   2932020.388 6
  23638442.686    -2884620.961 3   -809831.491 2
  22795759.764     4919448.518 5   3805174.801 5
  19738825.920    -8191928.829 7  -6227483.100 8
  20791014.170    -9799465.265 7  -7545505.901 7
  21368477.709    -8846112.700 7  -6820819.566 7
 95  2 19 16 49 59.9980000  0  6 25 18 15 14 22 29
  22127096.584     3837183.508 6   2969172.250 6
  23616458.615    -3000113.521 3   -899825.683 2
  22807112.232     4979099.581 5   3851656.085 4
  19726864.740    -8254773.738 7  -6276453.175 8
  20776033.037    -9878188.154 7  -7606848.405 7
  21351882.107    -8933333.302 7  -6888783.668 7
 95  2 19 16 50 29.9980000  0  6 25 18 15 14 22 29
  22136193.131     3885001.496 6   3006432.965 6
  23594488.311    -3115600.209 3   -989815.271 1
  22818479.818     5038836.293 5   3898204.081 3
  19714994.053    -8317170.207 7  -6325073.809 8
  20761149.451    -9956387.085 7  -7667782.637 7
  21335294.826    -9020502.532 7  -6956707.745 7
 95  2 19 16 50 59.9980000  0  6 25 18 15 14 22 29
  22145316.568     3932940.292 6   3043787.802 6
  23572505.287    -3231093.705 3  -1079810.179 2
  22829864.475     5098660.204 5   3944820.028 4
  19703212.123    -8379102.246 7  -6373332.551 8
  20746369.123   -10034063.215 7  -7728309.487 7
  21318713.701    -9107625.274 7  -7024595.590 7
 95  2 19 16 51 29.9980000  0  6 25 18 15 14 22 29
  22154456.303     3980981.153 6   3081222.185 6
  23550520.803    -3346615.308 3  -1169826.973 2
  22841261.467     5158562.602 5   3991497.124 5
  19691511.896    -8440561.781 7  -6421223.110 8
  20731688.795   -10111229.722 7  -7788439.226 7
  21302142.131    -9194702.951 7  -7092448.329 7
 95  2 19 16 51 59.9970000  0  6 25 18 15 14 22 29
  22163620.993     4029124.195 6   3118736.188 6
  23528534.173    -3462166.424 3  -1259866.762 1
  22852677.360     5218538.865 5   4038231.770 4
  19679907.821    -8501531.287 7  -6468731.828 8
  20717101.970   -10187884.657 7  -7848170.345 7
  21285582.524    -9281728.186 7  -7160260.208 7
 95  2 19 16 52 29.9970000  0  6 25 18 15 14 22 29
  22172799.235     4077369.484 6   3156329.857 6
  23506539.993    -3577761.764 3  -1349941.020 2
  22864100.423     5278590.223 5   4085024.952 4
  19668403.009    -8562001.082 7  -6515851.169 8
  20702614.353   -10264018.180 7  -7907495.165 7
  21269032.017    -9368693.010 7  -7228025.006 7
 95  2 19 16 52 59.9970000  0  6 25 18 15 14 22 29
  22181999.251     4125710.368 6   3193998.004 6
  23484537.767    -3693386.015 3  -1440037.816 1
  22875542.868     5338713.859 5   4131874.419 5
  19656993.595    -8621961.428 7  -6562573.531 8
  20688225.454   -10339619.845 7  -7966405.554 7
  21252500.759    -9455579.887 7  -7295729.081 7
 95  2 19 16 53 29.9970000  0  6 25 18 15 14 22 29
  22191218.899     4174156.997 6   3231748.573 6
  23462527.993    -3809027.565 3  -1530148.089 2
  22886997.587     5398902.308 5   4178774.396 5
  19645680.110    -8681425.033 7  -6608908.829 8
  20673940.267   -10414680.039 7  -8024894.012 7
  21235978.399    -9542390.722 7  -7363373.897 7
 95  2 19 16 53 59.9970000  0  6 25 18 15 14 22 29
  22200459.618     4222715.264 6   3269586.127 6
  23440525.196    -3924661.829 4  -1620252.682 2
  22898461.962     5459160.731 5   4225728.914 5
  19634462.337    -8740378.472 7  -6654846.593 8
  20659759.743   -10489192.375 7  -8082955.567 7
  21219475.360    -9629120.578 7  -7430955.614 7
 95  2 19 16 54 29.9970000  0  6 25 18 15 14 22 29
  22209718.103     4271379.400 6   3307506.173 6
  23418521.704    -4040284.724 4  -1710348.446 2
  22909944.743     5519480.750 5   4272731.443 4
  19623337.173    -8798829.719 7  -6700393.036 8
  20645685.665   -10563165.286 7  -8140596.789 7
  21202986.587    -9715771.403 7  -7498475.742 7
 95  2 19 16 54 59.9970000  0  6 25 18 15 14 22 29
  22218999.384     4320145.113 6   3345505.374 6
  23396528.282    -4155893.890 5  -1800433.498 2
  22921433.517     5579855.891 5   4319776.928 4
  19612312.642    -8856776.182 7  -6745546.136 8
  20631707.712   -10636606.352 7  -8197823.590 7
  21186512.728    -9802348.748 7  -7565938.614 7
 95  2 19 16 55 29.9970000  0  6 25 18 15 14 22 29
  22228299.415     4369016.599 6   3383586.990 6
  23374522.212    -4271500.331 4  -1890516.432 2
  22932932.032     5640283.221 5   4366863.057 4
  19601381.587    -8914209.218 7  -6790299.171 8
  20617834.899   -10709521.196 7  -8254640.348 7
  21170052.313    -9888851.434 7  -7633343.308 7
 95  2 19 16 55 59.9970000  0  6 25 18 15 14 22 29
  22237616.915     4417980.508 6   3421740.639 6
  23352522.595    -4387117.308 4  -1980607.542 2
  22944440.376     5700761.550 5   4413988.942 5
  19590551.470    -8971124.493 7  -6834648.743 8
  20604059.360   -10781913.362 7  -8311049.825 7
  21153608.087    -9975271.152 7  -7700683.347 7
 95  2 19 16 56 29.9970000  0  6 25 18 15 14 22 29
  22246953.603     4467036.627 6   3459966.122 6
  23330520.618    -4502759.295 4  -2070718.161 1
  22955960.478     5761294.608 5   4461157.480 5
  19579814.665    -9027524.579 7  -6878596.872 8
  20590387.181   -10853771.870 7  -8367043.463 7
  21137179.931   -10061596.021 7  -7767949.472 7
 95  2 19 16 56 59.9970000  0  6 25 18 15 14 22 29
  22256301.517     4516169.804 6   3498251.662 6
  23308510.548    -4618427.752 5  -2160849.394 1
  22967484.642     5821875.930 5   4508363.623 4
  19569181.532    -9083416.790 7  -6922149.262 8
  20576813.251   -10925096.027 7  -8422620.732 8
  21120770.071   -10147830.360 7  -7835145.066 7
 95  2 19 16 57 29.9970000  0  6 25 18 15 14 22 29
  22265669.321     4565399.131 6   3536612.123 6
  23286494.603    -4734103.653 4  -2250986.442 3
  22979027.563     5882514.996 5   4555614.743 4
  19558642.431    -9138804.608 7  -6965308.608 8
  20563344.985   -10995872.357 7  -8477771.110 8
  21104381.548   -10233960.384 7  -7902259.366 7
 95  2 19 16 57 59.9970000  0  6 25 18 15 14 22 29
  22275052.813     4614706.370 6   3575033.292 6
  23264480.298    -4849780.491 3  -2341124.215 3
  22990572.376     5943195.589 5   4602898.247 3
  19548194.267    -9193699.556 7  -7008083.907 7
  20549980.376   -11066106.358 7  -8532498.909 8
  21088005.532   -10320015.391 7  -7969315.207 7
 95  2 19 16 58 29.9970000  0  6 25 18 15 14 22 29
  22284451.446     4664097.270 6   3613519.650 6
  23242479.376    -4965429.051 3  -2431239.951 2
  23002132.610     6003918.080 5   4650214.394 2
  19537847.329    -9248086.581 7  -7050463.418 8
  20536720.696   -11135779.866 7  -8586789.956 8
  21071641.134   -10405999.334 7  -8036315.683 7
 95  2 19 16 58 59.9970000  0  6 25 18 15 14 22 29
  22293867.931     4713579.319 6   3652077.024 6
  23220478.220    -5081034.100 3  -2521321.769 2
  23013688.649     6064673.447 5   4697556.139 2
  19527594.720    -9301962.439 7  -7092444.620 8
  20523566.157   -11204893.411 7  -8640644.670 8
  21055291.938   -10491927.304 7  -8103272.535 7
 95  2 19 16 59 29.9970000  0  6 25 18 15 14 22 29
  22303301.657     4763153.954 6   3690706.558 6
  23198479.126    -5196603.211 3  -2611375.592 1
  23025257.704     6125456.314 4   4744919.336 2
  19517444.610    -9355313.493 7  -7134016.884 7
  20510518.571   -11273453.753 7  -8694068.310 8
  21038947.290   -10577805.639 7  -8170190.717 7
 95  2 19 16 59 59.9970000  0  6 25 18 15 14 22 29
  22312752.267     4812811.926 6   3729401.019 6
  23176497.978    -5312141.350 3  -2701405.288 2
  23036826.259     6186268.008 3   4792304.936 2
  19507392.720    -9408124.005 7  -7175167.947 8
  20497580.181   -11341454.340 7  -8747055.781 8
  21022617.438   -10663619.962 7  -8237059.016 7
 95  2 19 17  0 29.9970000  0  6 25 18 15 14 22 29
  22322219.220     4862556.571 6   3768163.018 6
  23154513.954    -5427677.112 4  -2791433.133 2
  23048404.806     6247103.888 4   4839709.406 2
  19497443.813    -9460400.616 7  -7215902.977 8
  20484749.892   -11408898.276 7  -8799609.497 8
  21006301.563   -10749347.194 7  -8303859.450 7
 95  2 19 17  0 59.9970000  0  6 25 18 15 14 22 29
  22331700.626     4912396.660 6   3806999.396 6
  23132512.821    -5543240.421 4  -2881482.432 1
  23059988.790     6307959.339 5   4887129.165 2
  19487594.931    -9512153.781 7  -7256230.130 7
  20472018.399   -11475809.696 7  -8851748.262 8
  20990007.040   -10834985.858 7  -8370590.872 7
 95  2 19 17  1 29.9970000  0  6 25 18 15 14 22 29
  22341203.298     4962320.637 6   3845901.137 6
  23110524.657    -5658841.841 5  -2971561.482 1
  23071570.329     6368840.469 4   4934568.895 4
  19477846.290    -9563378.424 7  -7296145.445 7
  20459387.728   -11542173.719 7  -8903460.486 8
  20973732.907   -10920515.246 7  -8437237.141 7
 95  2 19 17  1 59.9970000  0  6 25 18 15 14 22 29
  22350718.907     5012323.804 6   3884864.583 6
  23088516.485    -5774487.673 5  -3061675.058 1
  23083161.728     6429739.310 5   4982022.437 2
  19468201.024    -9614081.633 7  -7335654.449 7
  20446864.064   -11607974.046 7  -8954733.469 8
  20957479.884   -11005928.940 7  -8503793.266 7
 95  2 19 17  2 29.9970000  0  6 25 18 15 14 22 29
  22360247.759     5062412.522 6   3923894.693 6
  23066499.829    -5890171.161 5  -3151818.065 2
  23094751.126     6490651.155 5   5029486.111 4
  19458652.142    -9664260.565 7  -7374754.926 7
  20434448.587   -11673212.481 7  -9005568.606 8
  20941247.220   -11091239.762 7  -8570269.223 7
 95  2 19 17  2 59.9970000  0  6 25 18 15 14 22 29
  22369794.978     5112577.143 6   3962983.955 6
  23044485.274    -6005870.981 5  -3241973.753 2
  23106344.673     6551572.617 5   5076957.267 3
  19449201.876    -9713911.763 7  -7413444.184 7
  20422144.306   -11737877.861 7  -9055957.204 8
  20925028.181   -11176461.294 7  -8636675.610 7
 95  2 19 17  3 29.9970000  0  6 25 18 15 14 22 29
  22379355.290     5162813.291 6   4002128.935 6
  23022472.048    -6121564.572 5  -3332124.592 2
  23117937.626     6612504.532 5   5124436.588 4
  19439855.884    -9763023.283 7  -7451712.908 7
  20409955.587   -11801943.778 7  -9105878.689 8
  20908831.360   -11261577.930 7  -8703000.251 7
 95  2 19 17  3 59.9970000  0  6 25 18 15 14 22 29
  22388931.524     5213133.559 6   4041339.476 6
  23000457.884    -6237239.508 5  -3422260.864 2
  23129538.118     6673439.449 5   5171918.239 5
  19430613.103    -9811604.919 7  -7489568.740 7
  20397872.564   -11865421.735 7  -9155342.028 8
  20892653.392   -11346597.863 7  -8769249.548 7
 95  2 19 17  4 29.9970000  0  6 25 18 15 14 22 29
  22398520.923     5263533.165 6   4080611.827 6
  22978448.048    -6352894.300 5  -3512381.456 2
  23141132.735     6734376.034 5   5219401.174 4
  19421466.712    -9859667.431 7  -7527020.055 7
  20385902.360   -11928326.680 7  -9204358.861 8
  20876491.790   -11431530.977 7  -8835431.188 7
 95  2 19 17  4 59.9970000  0  6 25 18 15 14 22 29
  22408122.470     5314001.210 6   4119937.514 5
  22956442.704    -6468529.004 5  -3602486.395 2
  23152728.548     6795315.182 5   5266886.116 2
  19412420.376    -9907206.983 7  -7564063.876 7
  20374046.095   -11990653.567 7  -9252925.258 8
  20860347.157   -11516360.375 7  -8901532.014 7
 95  2 19 17  5 29.9970000  0  6 25 18 15 14 22 29
  22417741.228     5364536.016 6   4159315.223 5
  22934443.454    -6584154.507 4  -3692584.158 4
  23164317.907     6856249.954 5   5314367.636 3
  19403473.212    -9954227.723 7  -7600703.423 7
  20362287.884   -12052424.334 7  -9301058.322 8
  20844225.110   -11601085.392 7  -8967551.500 7
 95  2 19 17  5 59.9970000  0  6 25 18 15 14 22 29
  22427369.001     5415139.069 6   4198746.104 6
  22912442.595    -6699769.569 4  -3782673.773 4
  23175917.673     6917183.703 5   5361848.364 5
  19394623.532   -10000721.852 7  -7636932.624 7
  20350641.345   -12113641.608 7  -9348760.083 8
  20828120.634   -11685714.496 7  -9033496.256 8
 95  2 19 17  6 29.9970000  0  6 25 18 15 14 22 29
  22437007.978     5465786.496 6   4238211.575 6
  22890443.751    -6815394.004 4  -3872770.702 4
  23187514.165     6978100.657 5   5409316.040 3
  19385879.540   -10046686.458 7  -7672749.207 7
  20339093.157   -12174315.030 7  -9396038.066 8
  20812032.017   -11770257.160 7  -9099373.647 7
 95  2 19 17  6 59.9970000  0  6 25 18 15 14 22 29
  22446658.954     5516497.861 6   4277726.856 6
  22868435.079    -6931010.347 4  -3962861.322 3
  23199101.907     7039006.609 5   5456775.100 2
  19377233.571   -10092101.641 7  -7708137.670 7
  20327656.548   -12234425.365 7  -9442877.283 8
  20795963.665   -11854704.012 7  -9165176.387 7
 95  2 19 17  7 29.9970000  0  6 25 18 15 14 22 29
  22456322.532     5567290.414 6   4317305.398 5
  22846438.657    -7046605.104 4  -4052935.116 4
  23210691.673     7099905.515 5   5504228.699 3
  19368701.337   -10136961.420 7  -7743093.361 7
  20316328.243   -12293949.233 7  -9489259.517 8
  20779907.087   -11939069.966 7  -9230916.097 8
 95  2 19 17  7 59.9970000  0  6 25 18 15 14 22 29
  22466001.228     5618146.361 6   4356933.344 6
  22824441.665    -7162192.185 5  -4143002.963 3
  23222273.493     7160783.170 5   5551665.726 3
  19360264.274   -10181274.099 7  -7777622.732 7
  20305116.938   -12352874.217 7  -9535175.088 8
  20763866.798   -12023372.187 7  -9296606.141 8
 95  2 19 17  8 29.9970000  0  6 25 18 15 14 22 29
  22475693.712     5669067.392 6   4396612.002 6
  22802449.657    -7277768.853 5  -4233062.658 4
  23233855.532     7221640.753 4   5599087.104 3
  19351939.001   -10225037.561 7  -7811724.148 7
  20294015.829   -12411194.031 7  -9580619.088 8
  20747838.181   -12107603.276 7  -9362240.754 8
 95  2 19 17  8 59.9970000  0  6 25 18 15 14 22 29
  22485391.478     5720047.759 6   4436336.903 5
  22780457.149    -7393329.008 5  -4323109.491 4
  23245428.907     7282479.286 3   5646493.642 2
  19343713.587   -10268250.348 7  -7845396.464 7
  20283034.860   -12468913.704 7  -9625595.461 8
  20731823.017   -12191766.081 7  -9427822.171 8
 95  2 19 17  9 29.9970000  0  6 25 18 15 14 22 29
  22495103.735     5771076.133 6   4476099.205 5
  22758469.532    -7508888.010 5  -4413155.436 4
  23257003.681     7343296.901 3   5693883.841 2
  19335598.509   -10310908.547 7  -7878636.636 7
  20272162.915   -12526038.901 7  -9670108.597 8
  20715819.376   -12275847.358 7  -9493340.051 8
 95  2 19 17  9 59.9970000  0  6 25 18 15 14 22 29
  22504822.196     5822150.918 6   4515897.664 5
  22736480.845    -7624454.760 5  -4503207.416 2
  23268574.017     7404087.951 3   5741253.383 2
  19327585.290   -10353016.808 7  -7911448.282 7
  20261399.329   -12582592.187 7  -9714176.093 8
  20699841.095   -12359828.594 7  -9558779.981 8
 95  2 19 17 10 29.9970000  0  6 25 18 15 14 22 29
  22514551.470     5873272.362 6   4555732.493 5
  22714488.673    -7740017.216 5  -4593256.074 3
  23280139.462     7464848.386 3   5788599.060 3
  19319672.962   -10394578.614 7  -7943834.124 7
  20250746.235   -12638590.916 7  -9757811.468 8
  20683880.837   -12443700.272 7  -9624134.542 7
 95  2 19 17 10 59.9970000  0  6 25 18 15 14 22 29
  22524288.704     5924440.035 6   4595603.332 5
  22692499.274    -7855570.353 5  -4683297.452 3
  23291693.907     7525574.747 3   5835918.180 2
  19311871.806   -10435594.654 7  -7975794.692 7
  20240194.970   -12694033.028 7  -9801013.114 8
  20667941.587   -12527452.935 7  -9689396.364 8
 95  2 19 17 11 29.9970000  0  6 25 18 15 14 22 29
  22534035.673     5975661.860 6   4635516.362 5
  22670509.118    -7971118.786 5  -4773335.158 3
  23303239.634     7586256.501 3   5883202.532 2
  19304167.993   -10476072.757 7  -8007336.089 7
  20229753.985   -12748910.912 7  -9843775.105 8
  20652027.259   -12611090.926 7  -9754568.831 8
 95  2 19 17 11 59.9970000  0  7 25 18 15 14 22 29 19
  22543793.853     6026942.204 6   4675475.015 5
  22648527.657    -8086639.742 4  -4863351.424 2
  23314774.688     7646894.164 3   5930452.538 2
  19296566.001   -10516015.276 7  -8038460.143 7
  20219418.798   -12803219.761 7  -9886093.677 8
  20636130.954   -12694622.525 7  -9819658.401 7
  23663760.040          -0.05012
 95  2 19 17 12 29.9970000  0  7 25 18 15 14 22 29 19
  22553562.524     6078272.916 6   4715472.904 5
  22626551.056    -8202130.669 5  -4953344.325 2
  23326312.126     7707490.481 3   5977670.301 1
  19289072.899   -10555408.121 7  -8069155.893 7
  20209193.188   -12856941.092 7  -9927954.448 8
  20620254.056   -12778052.421 7  -9884668.713 8
  23639494.189     -127484.346 3        -0.42714
 95  2 19 17 12 59.9970000  0  7 25 18 15 14 22 29 19
  22563334.970     6129649.440 6   4755506.483 5
  22604576.751    -8317607.913 5  -5043326.567 3
  23337836.063     7768038.888 4   6024850.743 1
  19281679.978   -10594252.958 7  -8099424.614 7
  20199085.392   -12910065.385 7  -9969349.999 8
  20604395.228   -12861397.842 7  -9949613.202 8
  23615270.938     -254806.738 3    -99212.636 4
 95  2 19 17 13 29.9960000  0  7 25 18 15 14 22 29 19
  22573126.074     6181077.222 6   4795580.017 5
  22582603.723    -8433059.902 4  -5133289.112 4
  23349345.668     7828541.641 5   6071995.671 1
  19274391.098   -10632537.017 7  -8129256.370 7
  20189094.387   -12962575.426 7 -10010266.905 8
  20588551.926   -12944658.491 7 -10014491.629 8
  23591076.590     -381958.651 3   -198292.031 4
 95  2 19 17 13 59.9960000  0  7 25 18 15 14 22 29 19
  22582916.856     6232539.328 6   4835680.301 5
  22560639.613    -8548499.015 5  -5223241.620 4
  23360852.230     7888998.589 4   6119104.852 1
  19267213.520   -10670265.931 7  -8158655.540 7
  20179218.332   -13014476.877 7 -10050709.588 8
  20572721.379   -13027836.104 7 -10079305.360 8
  23566906.434     -508958.400 4   -297252.833 3
 95  2 19 17 14 29.9960000  0  7 25 18 15 14 22 29 19
  22592716.145     6284030.174 6   4875802.979 5
  22538673.379    -8663933.538 5  -5313190.601 4
  23372346.309     7949402.297 4   6166172.552 2
  19260144.449   -10707426.845 7  -8187612.113 7
  20169453.707   -13065771.199 7 -10090679.190 8
  20556912.770   -13110917.757 7 -10144044.302 8
  23542766.027     -635820.512 4   -396106.388 1
 95  2 19 17 14 59.9960000  0  7 25 18 15 14 22 29 19
  22602526.637     6335572.882 5   4915966.073 5
  22516711.027    -8779339.235 5  -5403117.079 4
  23383828.316     8009758.484 3   6213203.201 1
  19253184.770   -10744009.346 7  -8216117.984 7
  20159806.434   -13116463.732 7 -10130179.849 8
  20541123.934   -13193882.154 7 -10208691.882 8
  23518651.598     -762530.823 4   -494841.690 2
 95  2 19 17 15 29.9960000  0  7 25 18 15 14 22 29 19
  22612340.676     6387164.690 5   4956167.416 5
  22494756.816    -8894716.376 5  -5493021.336 2
  23395310.949     8070061.616 3   6260192.503 2
  19246330.988   -10780018.628 7  -8244177.185 7
  20150274.949   -13166562.783 7 -10169218.067 8
  20525362.371   -13276714.056 7 -10273236.223 8
  23494571.746     -889087.446 4   -593457.168 2
 95  2 19 17 15 59.9960000  0  7 25 18 15 14 22 29 19
  22622165.574     6438788.996 6   4996394.102 5
  22472801.785    -9010085.268 5  -5582919.147 2
  23406765.262     8130298.335 3   6307130.048 1
  19239581.676   -10815473.745 7  -8271804.567 7
  20140851.941   -13216086.728 7 -10207808.148 8
  20509625.973   -13359415.609 7 -10337678.986 8
  23470516.035    -1015496.254 3   -691957.526 2
 95  2 19 17 16 29.9960000  0  7 25 18 15 14 22 29 19
  22631998.684     6490460.689 6   5036657.696 5
  22450850.324    -9125438.193 5  -5672804.527 4
  23418221.754     8190471.507 4   6354018.089 3
  19232940.160   -10850369.693 7  -8298996.227 7
  20131540.293   -13265034.002 7 -10245948.873 8
  20493913.051   -13441976.178 7 -10402011.892 8
  23446489.871    -1141748.221 3   -790335.635 1
 95  2 19 17 16 59.9960000  0  7 25 18 15 14 22 29 19
  22641841.465     6542177.953 5   5076956.823 5
  22428906.035    -9240771.563 5  -5762674.680 2
  23429658.848     8250581.138 5   6400856.614 4
  19226403.004   -10884725.087 7  -8325766.684 7
  20122338.684   -13313384.624 7 -10283624.676 8
  20478230.035   -13524398.924 7 -10466237.414 8
  23422500.113    -1267840.191 3
 95  2 19 17 17 29.9960000  0  7 25 18 15 14 22 29 19
  22651688.293     6593931.436 6   5117284.158 5
  22406959.027    -9356095.479 5  -5852537.461 2
  23441086.340     8310625.571 5   6447644.339 3
  19219966.801   -10918541.982 7  -8352117.531 7
  20113256.199   -13361116.178 7 -10320818.088 8
  20462571.129   -13606692.147 7 -10530362.001 8
  23398531.910    -1393790.531 3
 95  2 19 17 17 59.9960000  0  7 25 18 15 14 22 29 19
  22661544.887     6645727.983 5   5157645.040 5
  22385017.035    -9471405.082 5  -5942389.086 4
  23452495.676     8370598.280 4   6494376.164 4
  19213636.098   -10951810.844 7  -8378041.332 7
  20104286.973   -13408240.207 7 -10357538.108 8
  20446933.848   -13688873.100 7 -10594399.107 8
  23374589.316    -1519600.152 3        -0.13111
 95  2 19 17 18 29.9960000  0  7 25 18 15 14 22 29 19
  22671409.738     6697572.321 5   5198043.174 5
  22363078.645    -9586687.333 5  -6032219.383 4
  23463895.473     8430496.718 3   6541050.122 2
  19207412.090   -10984524.756 7  -8403532.715 7
  20095435.074   -13454756.887 7 -10393784.865 8
  20431315.043   -13770947.738 7 -10658353.365 8
  23350672.910    -1645269.959 3
 95  2 19 17 18 59.9960000  0  7 25 18 15 14 22 29 19
  22681288.441     6749473.008 5   5238485.205 5
  22341147.441    -9701934.889 5  -6122022.645 3
  23475279.410     8490325.932 3   6587670.123 2
  19201294.480   -11016670.721 7  -8428581.541 7
  20086703.129   -13500651.271 7 -10429546.720 8
  20415714.012   -13852915.998 7 -10722224.734 8
  23326791.238    -1770790.860 3        -0.09411
 95  2 19 17 19 29.9960000  0  7 25 18 15 14 22 29 19
  22691173.363     6801419.877 5   5278963.229 5
  22319221.379    -9817154.945 5  -6211804.488 3
  23486655.270     8550070.599 3   6634224.264 2
  19195286.840   -11048243.302 7  -8453183.568 7
  20078080.887   -13545953.221 7 -10464846.941 8
  20400135.270   -13934785.404 7 -10786019.075 8
  23302926.441    -1896173.929 3    -97701.149 1
 95  2 19 17 19 59.9960000  0  6 25 18 14 22 29 19
  22701063.426     6853400.854 5   5319467.818 5
  22297299.598    -9932342.969 5  -6301561.371 3
  19189388.426   -11079244.254 7  -8477340.176 7
  20069571.793   -13590662.430 7 -10499685.285 8
  20384579.137   -14016539.496 7 -10849723.553 8
  23279106.598    -2021395.363 4   -195276.263 1
 95  2 19 17 20 29.9960000  0  6 25 18 14 22 29 19
  22710957.176     6905390.975 5   5359979.549 5
  22275390.848   -10047508.094 5  -6391300.393 4
  19183597.949   -11109683.175 7  -8501058.836 7
  20061178.496   -13634766.049 7 -10534051.747 8
  20369046.512   -14098169.521 7 -10913331.370 8
  23255298.230    -2146458.290 3   -292727.828 1
 95  2 19 17 20 59.9960000  0  7 25 18 15 14 22 29 19
  22720851.160     6957386.944 5   5400495.821 5
  22253475.418   -10162656.304 5  -6481026.258 4
  23520661.434          -0.06412
  19177914.629   -11139551.763 7  -8524333.084 7
  20052901.105   -13678263.648 7 -10567945.990 8
  20353534.402   -14179671.636 7 -10976839.509 8
  23231535.004    -2271350.983 4   -390046.782 2
 95  2 19 17 21 29.9960000  0  7 25 18 15 14 22 29 19
  22730745.590     7009384.332 5   5441013.191 5
  22231566.598   -10277790.453 5  -6570741.134 4
  23531962.566       59391.309 2
  19172339.949   -11168841.068 7  -8547155.938 7
  20044740.082   -13721154.621 7 -10601367.525 8
  20338050.121   -14261047.266 7 -11040249.091 8
  23207803.605    -2396056.821 4   -487220.129 2
 95  2 19 17 21 59.9960000  0  7 25 18 15 14 22 29 19
  22740645.473     7061394.595 5   5481540.605 5
  22209660.754   -10392905.881 5  -6660441.430 4
  23543241.129      118698.438 3
  19166875.012   -11197549.337 7  -8569526.030 7
  20036699.105   -13763423.861 7 -10634304.596 8
  20322587.223   -14342307.553 7 -11103568.790 8
  23184115.652    -2520562.776 4   -584237.726 3
 95  2 19 17 22 29.9960000  0  7 25 18 15 14 22 29 19
  22750545.551     7113420.855 5   5522080.460 5
  22187756.754   -10508004.063 5  -6750128.311 5
  23554511.832      177913.039 3        -0.15912
  19161521.809   -11225679.319 7  -8591445.516 7
  20028770.449   -13805092.899 7 -10666773.986 8
  20307142.043   -14423471.420 7 -11166813.355 8
  23160451.301    -2644888.098 3   -681114.548 2
 95  2 19 17 22 59.9960000  0  7 25 18 15 14 22 29 19
  22760450.738     7165471.975 5   5562639.692 5
  22165863.207   -10623079.710 5  -6839797.605 4
  23565768.168      237036.217 5     46069.750 1
  19156281.691   -11253233.478 7  -8612916.312 7
  20020952.004   -13846161.553 7 -10698775.534 8
  20291715.043   -14504538.875 7 -11229982.806 8
  23136828.176    -2769032.633 3   -777850.502 3
 95  2 19 17 23 29.9960000  0  7 25 18 15 14 22 29 19
  22770357.543     7217535.825 5   5603208.841 5
  22143964.270   -10738133.966 5  -6929450.255 3
  23576995.535      296054.305 5     92057.744 1
  19151144.504   -11280228.340 7  -8633951.287 7
  20013250.723   -13886626.846 7 -10730306.933 8
  20276306.809   -14585511.928 7 -11293078.683 8
  23113234.934    -2893017.036 3   -874461.678 2
 95  2 19 17 23 59.9960000  0  7 25 18 15 14 22 29 19
  22780264.465     7269608.060 5   5643784.527 5
  22122077.606   -10853149.767 5  -7019072.919 5
  23588205.184      354964.215 5    137961.502 1
  19146108.855   -11306673.485 7  -8654557.915 7
  20005666.684   -13926492.418 7 -10761371.009 8
  20260920.191   -14666367.941 7 -11356083.370 8
  23089669.981    -3016851.368 4   -970955.943 2
 95  2 19 17 24 29.9960000  0  7 25 18 15 14 22 29 19
  22790176.699     7321688.970 5   5684366.969 5
  22100195.793   -10968121.323 5  -7108661.111 4
  23599400.887      413778.043 5    183790.318 1
  19141185.770   -11332550.069 7  -8674721.510 7
  19998197.981   -13965743.977 7 -10791956.631 8
  20245564.395   -14747069.642 7 -11418967.809 8
  23066139.199    -3140515.968 4  -1067317.936 2
 95  2 19 17 24 59.9960000  0  7 25 18 15 14 22 29 19
  22800092.152     7373779.566 5   5724956.969 5
  22078331.496   -11083054.244 5  -7198219.219 5
  23610565.574      472487.692 4    229537.953 1
  19136374.707   -11357845.205 7  -8694432.023 7
  19990844.316   -14004367.715 7 -10822053.043 8
  20230234.230   -14827621.572 7 -11481735.547 8
  23042634.887    -3264003.311 3  -1163541.806 2
 95  2 19 17 25 29.9960000  0  7 25 18 15 14 22 29 19
  22810006.340     7425881.330 5   5765555.672 5
  22056466.762   -11197942.698 5  -7287742.664 5
  23621724.004      531088.651 4    275200.942 2
  19131669.809   -11382554.290 7  -8713685.883 7
  19983615.590   -14042372.589 7 -10851667.223 8
  20214935.762   -14908026.066 7 -11544388.398 8
  23019178.660    -3387307.107 4  -1259622.649 3
 95  2 19 17 25 59.9960000  0  7 25 18 15 14 22 29 19
  22819919.027     7477996.309 5   5806164.672 5
  22034609.254   -11312795.694 5  -7377238.474 5
  23632851.332      589570.031 3    320770.729 1
  19127080.113   -11406685.838 7  -8732489.709 7
  19976497.879   -14079772.753 7 -10880810.201 8
  20199659.332   -14988293.949 7 -11606934.802 8
  22995746.262    -3510436.388 4  -1355567.541 2
 95  2 19 17 26 29.9960000  0  7 25 18 15 14 22 29 19
  22829843.395     7530130.577 5   5846788.681 5
  22012759.152   -11427616.864 5  -7466709.484 5
  23643952.481      647928.143 2    366244.499 1
  19122597.551   -11430238.400 7  -8750842.374 7
  19969494.527   -14116568.256 7 -10909482.013 8
  20184408.520   -15068444.115 7 -11669389.482 8
  22972348.371    -3633397.039 4  -1451380.976 2
 95  2 19 17 26 59.9960000  0  7 25 18 15 14 22 29 19
  22839772.129     7582304.412 5   5887443.516 5
  21990922.731   -11542367.774 5  -7556125.753 3
  23655039.543      706172.364 2    411629.480 1
  19118224.574   -11453210.005 7  -8768742.356 7
  19962613.598   -14152749.252 7 -10937674.986 8
  20169178.598   -15148475.696 7 -11731751.756 8
  22948980.340    -3756191.592 4  -1547065.041 1
 95  2 19 17 27 29.9960000  0  6 25 18 14 22 29 19
  22849702.441     7634510.120 5   5928123.214 5
  21969101.848   -11657056.031 5  -7645493.193 4
  19113960.152   -11475634.485 7  -8786215.995 7
  19955838.996   -14188326.767 7 -10965397.715 8
  20153974.730   -15228380.720 7 -11794015.413 8
  22925641.309    -3878846.765 4  -1642640.436 2
 95  2 19 17 27 59.9960000  0  6 25 18 14 22 29 19
  22859644.137     7686731.194 5   5968814.882 4
  21947283.582   -11771704.707 5  -7734829.799 4
  19109791.832   -11497519.451 7  -8803269.233 7
  19949185.949   -14223306.374 7 -10992654.543 8
  20138791.637   -15308159.977 7 -11856181.064 8
  22902323.285    -4001379.865 4  -1738120.746 2
 95  2 19 17 28 29.9960000  0  6 25 18 14 22 29 19
  22869582.543     7738960.979 5   6009513.354 4
  21925473.293   -11886312.791 5  -7824134.779 5
  19105734.418   -11518854.104 7  -8819893.660 8
  19942639.988   -14257689.439 7 -11019446.535 8
  20123635.441   -15387801.822 7 -11918239.647 8
  22879026.504    -4123779.464 4  -1833497.007 3
 95  2 19 17 28 59.9960000  0  6 25 18 14 22 29 19
  22879524.293     7791208.419 5   6050225.572 4
  21903672.059   -12000887.842 5  -7913414.001 5
  19101779.691   -11539632.813 7  -8836084.887 7
  19936214.777   -14291470.591 7 -11045769.501 8
  20108510.824   -15467288.333 7 -11980177.183 8
  22855763.730    -4246034.066 5  -1928760.300 2
 95  2 19 17 29 29.9960000  0  6 25 18 14 22 29 19
  22889467.496     7843476.125 5   6090953.556 2
  21881868.012   -12115458.200 5  -8002689.571 5
  19097933.535   -11559845.725 7  -8851835.229 8
  19929898.574   -14324650.657 7 -11071624.098 8
  20093416.574   -15546605.104 7 -12041982.454 8
  22832534.434    -4368114.451 5  -2023887.833 2
 95  2 19 17 29 59.9960000  0  6 25 18 14 22 29 19
  22899420.035     7895751.342 5   6131687.420 3
  21860064.762   -12230028.071 5  -8091964.761 5
  19094199.285   -11579483.333 7  -8867137.287 8
  19923698.856   -14357235.196 7 -11097014.641 8
  20078351.770   -15625773.760 7 -12103672.309 8
  22809339.980    -4490004.864 5  -2118867.353 3
 95  2 19 17 30 29.9960000  0  6 25 18 14 22 29 19
  22909368.231     7948048.058 5   6172438.019 4
  21838267.691   -12344572.869 5  -8181220.420 5
  19090568.668   -11598543.159 7  -8881989.121 8
  19917615.934   -14389206.529 7 -11121927.366 8
  20063313.356   -15704803.185 7 -12165253.677 8
  22786184.152    -4611685.710 5  -2213683.578 4
 95  2 19 17 30 59.9960000  0  6 25 18 14 22 29 19
  22919322.762     8000366.876 5   6213205.846 4
  21816479.785   -12459083.502 5  -8270449.455 5
  19087052.762   -11617032.562 7  -8896396.475 8
  19911649.418   -14420546.315 7 -11146347.978 8
  20048299.434   -15783700.613 7 -12226732.189 8
  22763066.910    -4733153.134 4  -2308333.470 4
 95  2 19 17 31 29.9960000  0  6 25 18 14 22 29 19
  22929282.801     8052691.716 5   6253978.360 3
  21794697.418   -12573547.450 5  -8359642.121 5
  19083643.488   -11634943.900 7  -8910353.386 8
  19905809.910   -14451237.977 7 -11170263.562 8
  20033308.285   -15862474.799 7 -12288114.659 8
  22739996.871    -4854410.316 5  -2402819.557 2
 95  2 19 17 31 59.9960000  0  6 25 18 14 22 29 19
  22939235.473     8105014.524 4   6294749.302 4
  21772930.324   -12687940.845 5  -8448779.802 5
  19080343.949   -11652274.305 7  -8923857.625 8
  19900097.301   -14481273.359 7 -11193667.746 8
  20018342.605   -15941126.667 7 -12349401.821 8
  22716955.215    -4975483.839 5  -2497162.516 4
 95  2 19 17 32 29.9960000  0  6 25 18 14 22 29 19
  22949197.887     8157331.799 5   6335515.914 4
  21751172.879   -12802261.646 5  -8537860.903 5
  19077154.371   -11669027.554 7  -8936912.128 8
  19894502.090   -14510666.395 7 -11216571.420 8
  20003401.082   -16019638.464 7 -12410579.850 8
  22693952.332    -5096381.258 4  -2591368.279 4
 95  2 19 17 32 59.9960000  0  6 25 18 14 22 29 19
  22959149.332     8209635.222 5   6376271.725 4
  21729433.910   -12916514.960 5  -8626889.433 5
  19074083.074   -11685192.261 7  -8949508.021 8
  19889028.777   -14539416.623 7 -11238974.190 8
  19988492.043   -16097992.327 7 -12471634.801 8
  22670980.512    -5217099.327 4  -2685434.275 2
 95  2 19 17 33 29.9960000  0  6 25 18 14 22 29 19
  22969096.746     8261906.386 5   6417002.424 5
  21707703.145   -13030712.677 5  -8715874.638 5
  19071118.316   -11700773.223 7  -8961649.052 8
  19883674.262   -14567554.133 7 -11260899.526 8
  19973612.090   -16176187.773 7 -12532566.316 8
  22648036.691    -5337649.822 4  -2779369.667 3
 95  2 19 17 33 59.9960000  0  6 25 18 14 22 29 19
  22979035.387     8314154.805 5   6457715.374 5
  21685979.793   -13144862.943 5  -8804822.871 5
  19068260.434   -11715786.116 7  -8973347.433 8
  19878431.918   -14595107.858 7 -11282369.959 8
  19958761.754   -16254213.670 7 -12593365.713 8
  22625126.629    -5458029.061 4  -2873171.650 3
 95  2 19 17 34 29.9950000  0  6 25 18 14 22 29 19
  22988976.991     8366392.842 5   6498420.249 4
  21664266.710   -13258952.604 5  -8893723.869 5
  19065512.702   -11730220.686 7  -8984595.171 8
  19873301.601   -14622070.897 7 -11303380.118 8
  19943948.023   -16332071.460 7 -12654034.121 8
  22602263.671    -5578208.500 4  -2966817.922 2
 95  2 19 17 34 59.9950000  0  6 25 18 14 22 29 19
  22998915.194     8418606.303 5   6539105.973 4
  21642566.319   -13373005.527 5  -8982596.245 5
  19062873.444   -11744085.125 7  -8995398.653 8
  19868282.960   -14648455.895 7 -11323939.856 8
  19929158.624   -16409789.953 7 -12714593.987 8
  22579421.491    -5698218.010 4  -3060331.800 2
 95  2 19 17 35 29.9950000  0  6 25 18 14 22 29 19
  23008843.085     8470791.672 5   6579769.816 5
  21620868.437   -13487029.847 5  -9071446.336 5
  19060339.554   -11757398.504 7  -9005772.743 8
  19863367.858   -14674289.195 7 -11344069.704 8
  19914394.601   -16487369.304 7 -12775045.427 8
  22556618.444    -5818070.588 5  -3153723.387 3
 95  2 19 17 35 59.9950000  0  6 25 18 14 22 29 19
  23018779.523     8522990.391 5   6620444.056 5
  21599178.819   -13601004.515 5  -9160257.733 5
  19057916.671   -11770131.296 7  -9015694.422 8
  19858561.257   -14699532.286 7 -11363739.644 8
  19899663.101   -16564784.582 7 -12835369.017 8
  22533846.421    -5937729.087 5  -3246963.775 1
 95  2 19 17 36 29.9950000  0  6 25 18 14 22 29 19
  23028708.624     8575186.522 5   6661116.260 5
  21577498.694   -13714937.714 5  -9249036.821 5
  19055606.437   -11782278.768 7  -9025160.008 8
  19853869.788   -14724178.071 7 -11382944.159 8
  19884960.710   -16642051.238 7 -12895576.803 8
  22511114.304    -6057197.825 5  -3340056.268 3
 95  2 19 17 36 59.9950000  0  6 25 18 14 22 29 19
  23038643.874     8627374.435 5   6701782.084 5
  21555820.851   -13828838.773 5  -9337790.861 5
  19053406.187   -11793847.812 7  -9034174.876 8
  19849295.116   -14748218.744 7 -11401677.156 8
  19870290.827   -16719140.856 7 -12955646.637 8
  22488418.569    -6176461.627 5  -3432989.067 2
 95  2 19 17 37 29.9950000  0  6 25 18 14 22 29 19
  23048572.679     8679560.053 5   6742446.082 5
  21534155.116   -13942700.921 6  -9426514.598 5
  19051311.624   -11804853.087 7  -9042750.440 8
  19844836.397   -14771643.060 7 -11419929.875 8
  19855657.194   -16796053.002 7 -13015578.172 8
  22465764.991    -6295501.665 5  -3525747.531 3
 95  2 19 17 37 59.9950000  0  6 25 18 14 22 29 19
  23058502.327     8731726.991 5   6783095.544 5
  21512493.210   -14056526.239 5  -9515209.622 5
  19049324.804   -11815295.216 7  -9050887.186 8
  19840495.788   -14794452.559 7 -11437703.529 8
  19841048.483   -16872812.988 7 -13075391.142 8
  22443150.452    -6414328.118 5  -3618339.543 2
 95  2 19 17 38 29.9950000  0  6 25 18 14 22 29 19
  23068420.890     8783866.692 5   6823723.803 4
  21490844.358   -14170303.274 5  -9603867.035 5
  19047445.155   -11825174.686 7  -9058585.502 8
  19836273.413   -14816647.760 7 -11454998.500 8
  19826466.616   -16949433.289 7 -13135095.274 8
  22420578.624    -6532947.200 5  -3710769.979 3
 95  2 19 17 38 59.9950000  0  6 25 18 14 22 29 19
  23078341.023     8835984.637 5   6864335.083 5
  21469201.952   -14284024.259 5  -9692480.757 5
  19045669.554   -11834504.769 7  -9065855.717 8
  19832166.358   -14838234.139 7 -11471819.067 8
  19811915.046   -17025908.392 7 -13194686.256 9
  22398045.671    -6651368.923 5  -3803046.615 4
 95  2 19 17 39 29.9950000  0  6 25 18 14 22 29 19
  23088258.702     8888105.388 5   6904948.554 4
  21447577.265   -14397674.699 6  -9781039.517 5
  19044002.085   -11843266.905 7  -9072683.382 8
  19828174.522   -14859209.870 7 -11488163.802 8
  19797388.015   -17102249.643 7 -13254172.941 8
  22375543.351    -6769616.157 5  -3895187.291 5
 95  2 19 17 39 59.9950000  0  6 25 18 14 22 29 19
  23098175.460     8940231.559 4   6945566.242 3
  21425960.358   -14511262.145 5  -9869549.200 5
  19042441.327   -11851458.659 7  -9079066.589 8
  19824297.773   -14879584.245 7 -11504039.953 8
  19782884.030   -17178468.843 7 -13313564.522 8
  22353068.616    -6887708.643 5  -3987207.372 5
 95  2 19 17 40 29.9950000  0  6 25 18 14 22 29 19
  23108099.890     8992373.696 4   6986196.394 3
  21404360.601   -14624783.514 6  -9958007.377 5
  19040988.913   -11859087.265 7  -9085010.987 8
  19820538.991   -14899347.062 7 -11519439.559 8
  19768404.288   -17254556.266 7 -13372853.421 8
  22330626.968    -7005640.264 5  -4079102.090 4
 95  2 19 17 40 59.9950000  0  6 25 18 14 22 29 19
  23118029.702     9044522.947 4   7026832.048 3
  21382771.171   -14738236.865 6 -10046412.557 5
  19039643.968   -11866149.977 7  -9090514.429 8
  19816894.007   -14918502.065 7 -11534365.549 8
  19753955.960   -17330485.816 7 -13432019.303 8
  22308218.062    -7123407.015 4  -4170868.336 5
 95  2 19 17 41 29.9950000  0  6 25 18 14 22 29 19
  23127947.851     9096683.523 4   7067476.551 2
  21361197.210   -14851609.698 6 -10134755.010 5
  19038411.296   -11872628.530 7  -9095562.676 8
  19813367.569   -14937031.621 7 -11548804.170 8
  19739540.757   -17406246.319 7 -13491053.453 8
  22285844.351    -7240982.496 4  -4262485.536 5
 95  2 19 17 41 59.9950000  0  6 25 18 14 22 29 19
  23137865.819     9148824.101 3   7108105.471 2
  21339638.905   -14964904.453 6 -10223036.615 5
  19037291.976   -11878536.543 7  -9100166.347 8
  19809956.218   -14954947.574 7 -11562764.661 8
  19725154.491   -17481832.985 7 -13549952.151 9
  22263511.288    -7358351.362 5  -4353941.741 5
 95  2 19 17 42 29.9950000  0  6 25 18 14 22 29 19
  23147786.499     9200911.777 4   7148693.166 2
  21318086.772   -15078137.712 6 -10311270.303 5
  19036273.397   -11883885.133 7  -9104334.106 8
  19806659.491   -14972269.745 7 -11576262.462 8
  19710808.671   -17557234.675 7 -13608706.714 8
  22241215.530    -7475524.711 5  -4445245.599 5
 95  2 19 17 42 59.9950000  0  6 25 18 14 22 29 19
  23157693.905     9252936.796 3   7189232.080 2
  21296556.366   -15191302.577 6 -10399450.680 5
  19035361.858   -11888663.176 7  -9108057.282 8
  19803477.093   -14989002.759 7 -11589301.188 8
  19696495.530   -17632441.949 7 -13667309.780 9
  22218955.624    -7592498.155 5  -4536393.690 4
 95  2 19 17 43 29.9950000  0  6 25 18 14 22 29 19
  23167571.921     9304912.440 4   7229732.446 2
  21275035.022   -15304397.994 6 -10487576.964 5
  19034561.726   -11892868.320 7  -9111334.037 8
  19800406.851   -15005142.229 7 -11601877.401 8
  19682218.304   -17707466.642 7 -13725770.582 8
  22196731.405    -7709286.293 5  -4627397.376 5
 95  2 19 17 43 59.9950000  0  7 25 18  4 14 22 29 19
  23177456.687     9356832.975 5   7270189.944 1
  21253523.069   -15417431.837 6 -10575655.245 5
  23447515.944          -0.66214
  19033872.054   -11896503.833 7  -9114166.930 8
  19797444.819   -15020699.042 7 -11613999.604 8
  19667976.233   -17782313.564 7 -13784092.862 9
  22174537.288    -7825904.352 5  -4718268.538 4
 95  2 19 17 44 29.9950000  0  7 25 18  4 14 22 29 19
  23187329.171     9408720.502 5   7310621.703 3
  21232026.898   -15530393.846 6 -10663677.570 5
  23439702.397      -41068.972 4
  19033292.421   -11899552.456 7  -9116542.500 8
  19794598.944   -15035650.577 7 -11625650.164 8
  19653768.202   -17856974.491 7 -13842270.211 9
  22152377.858    -7942345.105 5  -4809001.526 5
 95  2 19 17 44 59.9950000  0  7 25 18  4 14 22 29 19
  23197199.460     9460586.914 5   7351037.020 3
  21210545.374   -15643282.556 6 -10751642.777 5
  23431976.358      -81657.935 3        -0.21211
  19032818.741   -11902019.408 7  -9118464.822 8
  19791873.273   -15049989.971 7 -11636823.728 8
  19639591.226   -17931472.256 7 -13900320.420 9
  22130256.335    -8058609.088 5  -4899596.785 4
 95  2 19 17 45 29.9950000  0  7 25 18  4 14 22 29 19
  23207069.288     9512449.033 5   7391448.963 2
  21189073.304   -15756113.178 6 -10839562.707 6
  23424341.054     -121772.853 3    -31258.633 2
  19032458.780   -11903917.212 7  -9119943.653 8
  19789259.741   -15063721.679 7 -11647523.774 8
  19625444.874   -18005815.324 7 -13958250.088 8
  22108166.780    -8174685.777 5  -4990046.103 3
 95  2 19 17 45 59.9950000  0  6 18  4 14 22 29 19
  21167616.296   -15868877.383 6 -10927430.887 5
  23416801.194     -161411.949 4    -62146.289 1
  19032207.757   -11905249.833 7  -9120982.087 8
  19786760.702   -15076837.024 7 -11657743.543 8
  19611328.374   -18079997.469 7 -14016054.357 9
  22086119.983    -8290548.065 5  -5080328.344 4
 95  2 19 17 46 29.9950000  0  6 18  4 14 22 29 19
  21146166.491   -15981587.229 6 -11015256.719 5
  23409347.397     -200595.758 4    -92679.124 2
  19032051.898   -11906040.304 7  -9121598.062 8
  19784384.116   -15089351.429 7 -11667495.049 8
  19597238.069   -18154037.208 7 -14073747.663 9
  22064110.898    -8406205.591 5  -5170451.034 4
 95  2 19 17 46 59.9950000  0  6 18  4 14 22 29 19
  21124732.858   -16094234.219 6 -11103033.564 6
  23401977.413     -239322.741 3   -122856.052 2
  19032010.210   -11906299.856 7
  19782110.304   -15101280.225 7 -11676790.229 8
  19583177.140   -18227934.637 7 -14131330.076 9
  22042142.163    -8521650.956 5  -5260408.421 4
 95  2 19 17 47 29.9950000  0  6 18  4 14 22 29 19
  21103312.023   -16206802.843 6 -11190749.328 5
  23394699.827     -277573.633 4   -152661.973 1
  19032054.655   -11906026.356 7
  19779954.023   -15112620.181 7 -11685626.580 8
  19569147.241   -18301665.896 7 -14188783.010 9
  22020210.866    -8636878.002 5  -5350195.656 4
 95  2 19 17 47 59.9950000  0  6 18  4 14 22 29 19
  21081904.640   -16319285.498 6 -11278398.128 6
  23387506.772     -315347.888 3   -182096.435 1
  19032215.015   -11905214.143 7  -9120954.368 8
  19777905.577   -15123374.833 7 -11694006.849 8
  19555146.858   -18375228.362 7 -14246104.407 9
  21998325.413    -8751912.949 5  -5439833.232 4
 95  2 19 17 48 29.9950000  0  6 18  4 14 22 29 19
  21060519.546   -16431675.141 6 -11365974.442 5
  23380411.460     -352627.937 3   -211145.863 1
  19032472.757   -11903840.573 7  -9119884.083 8
  19775972.702   -15133544.642 7 -11701931.392 8
  19541188.827   -18448591.688 7 -14303270.631 9
  21976473.030    -8866747.089 5  -5529314.312 3
 95  2 19 17 48 59.9950000  0  6 18  4 14 22 29 19
  21039146.483   -16543983.372 6 -11453487.313 5
  23373409.702     -389424.774 3   -239818.748 1
  19032843.710   -11901916.860 7  -9118385.111 8
  19774144.913   -15143138.477 7 -11709407.124 8
  19527264.749   -18521755.119 7 -14360281.100 9
  21954657.179    -8981388.032 5  -5618644.890 3
 95  2 19 17 49 29.9950000  0  6 18  4 14 22 29 19
  21017791.374   -16656208.375 6 -11540935.336 5
  23366506.851     -425728.048 4   -268107.020 2
  19033312.648   -11899425.511 7  -9116443.830 8
  19772435.983   -15152133.071 7 -11716415.921 8
  19513384.515   -18594696.606 7 -14417118.617 9
  21932880.640    -9095826.783 5  -5707817.883 4
 95  2 19 17 49 59.9950000  0  6 18  4 14 22 29 19
  20996451.397   -16768347.983 6 -11628316.827 6
  23359693.124     -461546.788 4   -296017.790 2
  19033901.648   -11896355.335 7  -9114051.508 8
  19770837.179   -15160519.372 7 -11722950.705 8
  19499547.812   -18667403.833 7 -14473773.596 9
  21911145.538    -9210052.924 5  -5796825.225 5
 95  2 19 17 50 29.9950000  0  6 18  4 14 22 29 19
  20975126.304   -16880416.513 6 -11715642.928 5
  23352956.249     -496907.469 4   -323571.582 2
  19034584.452   -11892733.163 7  -9111229.067 8
  19769357.460   -15168312.751 7 -11729023.473 8
  19485754.257   -18739898.432 7 -14530262.888 9
  21889446.397    -9324070.296 5  -5885669.878 4
 95  2 19 17 50 59.9950000  0  6 18  4 14 22 29 19
  20953816.601   -16992401.398 6 -11802903.844 5
  23346314.593     -531814.710 3   -350772.029 1
  19035382.296   -11888560.529 7  -9107977.689 8
  19767986.835   -15175497.612 7 -11734622.077 8
  19471996.804   -18812193.652 7 -14586596.817 9
  21867787.679    -9437880.186 5  -5974352.863 4
 95  2 19 17 51 29.9950000  0  6 18  4 14 22 29 19
  20932522.202   -17104299.728 6 -11890097.318 6
  23339765.038     -566268.225 3   -377618.934 1
  19036285.319   -11883826.925 7  -9104289.198 8
  19766736.530   -15182076.647 7 -11739748.602 8
  19458277.015   -18884289.930 7 -14642775.734 9
  21846170.312    -9551493.066 5  -6062882.330 3
 95  2 19 17 51 59.9950000  0  6 18  4 14 22 29 19
  20911247.960   -17216106.083 6 -11977219.116 6
  23333290.874     -600267.818 3   -404112.092 1
  19037286.944   -11878535.541 7  -9100166.070 8
  19765597.929   -15188063.614 7 -11744413.779 8
  19444592.694   -18956204.454 7 -14698813.016 9
  21824586.562    -9664911.804 5  -6151260.530 4
 95  2 19 17 52 29.9950000  0  5 18 14 22 29 19
  20889987.038   -17327817.918 6 -12064267.268 6
  19038404.179   -11872680.341 7  -9095603.610 8
  19764568.999   -15193464.502 7 -11748622.274 8
  19430940.015   -19027950.678 7 -14754719.156 9
  21803042.249    -9778118.173 5  -6239473.235 4
 95  2 19 17 52 59.9950000  0  5 18 14 22 29 19
  20868745.499   -17439445.243 6 -12151249.570 6
  19039626.210   -11866263.958 7  -9090603.860 8
  19763651.874   -15198290.849 7 -11752383.069 8
  19417319.882   -19099525.084 7 -14810491.418 9
  21781541.335    -9891116.256 5  -6327523.628 5
 95  2 19 17 53 29.9950000  0  5 18 14 22 29 19
  20847523.921   -17550980.660 6 -12238160.251 6
  19040952.101   -11859282.422 7  -9085163.739 8
  19762842.249   -15202547.755 7 -11755700.147 8
  19403736.765   -19170907.225 7 -14866113.868 9
  21760083.233   -10003893.265 5  -6415401.760 4
 95  2 19 17 53 59.9950000  0  5 18 14 22 29 19
  20826308.937   -17662446.008 6 -12325016.332 5
  19042383.812   -11851759.390 7  -9079301.661 8
  19762134.538   -15206261.636 7 -11758594.082 8
  19390186.937   -19242112.630 7 -14921598.603 9
  21738661.554   -10116459.595 5  -6503115.727 5
 95  2 19 17 54 29.9950000  0  5 18 14 22 29 19
  20805113.788   -17773844.360 6 -12411820.207 6
  19043922.304   -11843695.007 7  -9073017.760 8
  19761529.108   -15209432.619 7 -11761064.993 8
  19376674.890   -19313118.440 7 -14976927.808 9
  21717276.030   -10228816.704 5  -6590666.673 4
 95  2 19 17 54 59.9950000  0  5 18 14 22 29 19
  20783930.241   -17885166.187 6 -12498564.455 6
  19045555.015   -11835102.797 7  -9066322.558 8
  19761030.804   -15212054.256 7 -11763107.838 8
  19363203.108   -19383904.304 7 -15032085.624 9
  21695933.288   -10340986.455 5  -6678071.602 5
 95  2 19 17 55 29.9940000  0  5 18 14 22 29 19
  20762762.908   -17996382.830 6 -12585226.736 6
  19047290.893   -11825971.017 7  -9059206.919 8
  19760645.549   -15214102.945 7 -11764704.234 8
  19349778.791   -19454453.549 7 -15087059.064 9
  21674628.018   -10452950.391 5  -6765316.172 5
 95  2 19 17 55 59.9940000  0  5 18 14 22 29 19
  20741617.182   -18107511.022 6 -12671820.112 6
  19049132.596   -11816303.652 7  -9051673.936 8
  19760361.252   -15215574.111 7 -11765850.611 8
  19336392.650   -19524783.368 7 -15141861.521 9
  21653359.064   -10564717.433 5  -6852407.304 5
 95  2 19 17 56 29.9940000  0  5 18 14 22 29 19
  20720488.557   -18218539.030 6 -12758335.413 6
  19051074.064   -11806114.748 7  -9043734.559 8
  19760191.440   -15216461.806 7 -11766542.334 8
  19323048.846   -19594916.878 7 -15196511.005 9
  21632131.361   -10676292.743 5  -6939349.030 5
 95  2 19 17 56 59.9940000  0  5 18 14 22 29 19
  20699384.721   -18329446.407 6 -12844756.714 6
  19053111.861   -11795396.771 7  -9035382.918 8
  19760139.986   -15216741.171 7
  19309740.307   -19664858.196 7 -15251010.736 9
  21610935.330   -10787653.017 5  -7026123.203 5
 95  2 19 17 57 29.9940000  0  5 18 14 22 29 19
  20678296.541   -18440261.139 6 -12931105.824 6
  19055253.205   -11784146.627 7  -9026616.606 8
  19760198.682   -15216436.537 7
  19296461.744   -19734638.084 7 -15305384.676 9
  21589781.799   -10898806.268 5  -7112736.055 5
 95  2 19 17 57 59.9940000  0  5 18 14 22 29 19
  20657228.236   -18550978.386 6
  19057496.729   -11772347.835 7  -9017422.775 8
  19760365.369   -15215554.678 7 -11765835.538 8
  19283213.252   -19804261.148 7 -15359636.408 9
  21568669.979   -11009750.036 5
 95  2 19 17 58 29.9940000  0  5 18 14 22 29 19
  20636176.283   -18661603.031 6
  19059844.893   -11760008.229 7  -9007807.526 8
  19760644.807   -15214102.861 7 -11764704.265 8
  19269995.791   -19873717.107 7 -15413757.937 9
  21547600.166   -11120497.365 5
 95  2 19 17 58 59.9940000  0  5 18 14 22 29 19
  20615143.260   -18772140.681 6
  19062297.580   -11747109.850 7  -8997756.874 8
  19761026.971   -15212081.961 7 -11763129.562 8
  19256814.861   -19942980.115 7 -15467729.108 9
  21526560.057   -11231037.621 5
 95  2 19 17 59 29.9940000  0  5 18 14 22 29 19
  20594127.869   -18882594.212 6
  19064860.682   -11733643.781 7  -8987263.863 8
  19761521.713   -15209500.318 7 -11761117.910 8
  19243673.908   -20012035.350 7 -15521538.382 9
  21505568.471   -11341378.808 5
 95  2 19 17 59 59.9940000  0  5 18 14 22 29 19
  20573126.447   -18992934.025 6 -13361759.879 6
  19067528.635   -11719623.937 7  -8976339.342 8
  19762120.986   -15206337.804 7 -11758653.636 8
  19230576.658   -20080860.527 7 -15575168.380 9
  21484608.455   -11451512.689 5  -7543416.076 5
 95  2 19 18  0 29.9940000  0  5 18 14 22 29 19
  20552152.588   -19103149.026 6 -13447641.678 6
  19070300.135   -11705060.486 7  -8964991.231 8
  19762837.236   -15202581.847 7 -11755726.936 8
  19217527.025   -20149433.729 7 -15628602.045 9
  21463688.627   -11561427.618 5  -7629064.029 5
 95  2 19 18  0 59.9940000  0  5 18 14 22 29 19
  20531206.682   -19213229.304 6 -13533418.485 6
  19073173.697   -11689960.019 7  -8953224.669 8
  19763658.721   -15198253.538 7 -11752354.248 8
  19204524.369   -20217768.257 7 -15681849.728 9
  21442813.221   -11671130.451 5  -7714546.701 5
 95  2 19 18  1 29.9940000  0  5 18 14 22 29 19
  20510285.596   -19323174.900 6 -13619090.354 6
  19076144.760   -11674340.214 7  -8941053.430 8
  19764590.674   -15193367.342 7 -11748546.836 8
  19191566.416   -20285865.957 7 -15734912.874 9
  21421976.440   -11780633.555 5  -7799873.743 5
 95  2 19 18  1 59.9940000  0  5 18 14 22 29 19
  20489388.236   -19432992.468 6 -13704662.469 6
  19079213.611   -11658219.384 7  -8928491.782 8
  19765624.674   -15187931.934 7 -11744311.476 8
  19178650.393   -20353736.069 7 -15787798.663 9
  21401174.822   -11889939.399 5  -7885047.082 5
 95  2 19 18  2 29.9940000  0  5 18 14 22 29 19
  20468510.432   -19542702.205 6 -13790150.545 6
  19082379.971   -11641581.502 7  -8915527.233 8
  19766763.221   -15181951.894 7 -11739651.724 8
  19165780.127   -20421372.151 7 -15840502.095 9
  21380417.229   -11999029.255 5  -7970052.127 5
 95  2 19 18  2 59.9940000  0  5 18 14 22 29 19
  20447648.611   -19652327.291 6 -13875572.668 6
  19085643.174   -11624433.457 7  -8902165.145 8
  19768002.947   -15175432.386 7 -11734571.611 8
  19152953.104   -20488777.684 7 -15893025.885 9
  21359700.150   -12107913.223 5  -8054896.747 5
 95  2 19 18  3 29.9940000  0  5 18 14 22 29 19
  20426800.900   -19761884.709 6 -13960942.061 6
  19089003.479   -11606786.439 7  -8888414.263 8
  19769345.479   -15168360.646 7 -11729061.191 8
  19140169.111   -20555959.604 7 -15945375.422 9
  21339016.752   -12216595.225 5  -8139583.980 5
 95  2 19 18  3 59.9940000  0  5 18 14 22 29 19
  20405966.205   -19871364.267 6 -14046250.776 6
  19092456.080   -11588647.640 7  -8874280.171 8
  19770796.807   -15160725.920 7 -11723112.073 8
  19127424.682   -20622928.036 7 -15997558.616 9
  21318371.338   -12325078.534 5  -8224116.399 5
 95  2 19 18  4 29.9940000  0  5 18 14 22 29 19
  20385154.354   -19980743.428 6 -14131481.267 6
  19096003.611   -11569996.920 7  -8859747.179 8
  19772357.627   -15152527.918 7 -11716724.042 8
  19114722.760   -20689678.960 7 -16049572.321 9
  21297767.721   -12433363.294 5  -8308494.094 5
 95  2 19 18  4 59.9940000  0  5 18 14 22 29 19
  20364361.518   -20090004.647 6 -14216619.852 6
  19099647.096   -11550846.572 7  -8844824.867 8
  19774025.838   -15143787.028 7 -11709912.979 8
  19102056.322   -20756237.730 7 -16101436.297 9
  21277192.619   -12541472.336 5  -8392734.857 5
 95  2 19 18  5 29.9940000  0  5 18 14 22 29 19
  20343596.190   -20199126.354 6 -14301649.728 6
  19103389.932   -11531188.451 7  -8829506.882 8
  19775787.924   -15134521.042 7 -11702692.745 8
  19089427.986   -20822608.771 7 -16153153.985 9
  21256657.713   -12649390.887 5  -8476827.215 5
 95  2 19 18  5 59.9940000  0  5 18 14 22 29 19
  20322860.658   -20308095.656 6 -14386560.849 6
  19107232.604   -11510996.591 7  -8813773.001 8
  19777646.838   -15124736.259 7 -11695068.259 8
  19076835.338   -20888773.626 7 -16204711.013 9
  21236162.713   -12757084.976 5  -8560744.644 5
 95  2 19 18  6 29.9940000  0  5 18 14 22 29 19
  20302153.596   -20416902.795 6 -14471345.608 6
  19111179.400   -11490249.052 7  -8797606.120 8
  19779611.236   -15114418.155 7 -11687028.209 8
  19064291.854   -20954699.406 7 -16256081.754 9
  21215720.690   -12864514.471 5  -8644455.912 5
 95  2 19 18  6 59.9940000  0  5 18 14 22 29 19
  20281479.096   -20525562.780 6 -14556015.710 6
  19115226.041   -11468972.851 7  -8781027.288 8
  19781678.283   -15103565.247 7 -11678571.418 8
  19051790.213   -21020389.192 7 -16307268.597 9
  21195326.440   -12971683.276 5  -8727964.041 5
 95  2 19 18  7 29.9940000  0  5 18 14 22 29 19
  20260826.479   -20634088.603 6 -14640581.259 6
  19119374.682   -11447173.343 7  -8764040.694 8
  19783846.424   -15092172.263 7 -11669693.788 8
  19039335.291   -21085844.693 7 -16358272.885 9
  21174980.916   -13078601.500 5  -8811276.903 5
 95  2 19 18  7 59.9940000  0  5 18 14 22 29 19
  20240200.018   -20742475.288 6 -14725038.395 6
  19123623.127   -11424863.238 7  -8746656.222 8
  19786117.439   -15080225.380 7 -11660384.552 7
  19026925.283   -21151057.081 7 -16409087.734 9
  21154679.432   -13185283.355 5  -8894405.574 5
 95  2 19 18  8 29.9940000  0  5 18 14 22 29 19
  20219601.940   -20850725.478 6 -14809389.175 6
  19127960.557   -11402061.821 7  -8728888.922 8
  19788497.854   -15067729.890 7 -11650647.829 8
  19014561.869   -21216027.652 7 -16459714.155 9
  21134415.791   -13291761.148 5  -8977375.246 5
 95  2 19 18  8 59.9940000  0  5 18 14 22 29 19
  20199025.416   -20958838.923 6 -14893633.400 6
  19132393.416   -11378762.478 7  -8710733.626 8
  19790977.244   -15054698.441 7 -11640493.482 7
  19002245.104   -21280755.992 7 -16510151.823 9
  21114193.119   -13398046.473 5  -9060194.932 5
 95  2 19 18  9 29.9940000  0  5 18 14 22 29 19
  20178477.643   -21066824.723 6 -14977778.153 6
  19136925.705   -11354955.503 7  -8692182.772 8
  19793556.682   -15041134.370 7 -11629924.094 7
  18989979.104   -21345220.516 7 -16560383.919 9
  21094008.689   -13504125.838 5  -9142854.127 5
 95  2 19 18  9 59.9940000  0  5 18 14 22 29 19
  20157949.486   -21174709.182 6 -15061843.947 6
  19141547.635   -11330659.755 7  -8673251.064 8
  19796236.705   -15027057.672 7 -11618955.264 8
  18977760.315   -21409420.320 7 -16610409.740 9
  21073856.799   -13610012.631 5  -9225363.260 5
 95  2 19 18 10 29.9940000  0  5 18 14 22 29 19
  20137438.229   -21282496.733 6 -15145834.224 6
  19146267.674   -11305855.362 7  -8653923.000 8
  19799014.541   -15012464.279 7 -11607583.804 7
  18965592.729   -21473361.483 7 -16660234.027 9
  21053746.564   -13715690.529 5  -9307709.612 5
 95  2 19 18 10 59.9940000  0  5 18 14 22 29 19
  20116943.846   -21390189.087 6 -15229750.325 6
  19151088.213   -11280531.372 7  -8634190.062 8
  19801888.291   -14997348.555 7 -11595805.333 7
  18953471.315   -21537061.923 7 -16709870.742 9
  21033679.760   -13821150.249 6  -9389885.969 5
 95  2 19 18 11 29.9940000  0  5 18 14 22 29 19
  20096470.564   -21497779.648 6 -15313587.104 6
  19156001.947   -11254697.649 7  -8614059.931 8
  19804867.674   -14981702.350 7 -11583613.509 7
  18941392.861   -21600532.484 7 -16759328.322 9
  21013647.799   -13926405.309 6  -9471902.826 5
 95  2 19 18 11 59.9940000  0  5 18 14 22 29 19
  20076021.658   -21605243.936 6 -15397325.493 6
  19161016.002   -11228350.480 7  -8593529.713 8
  19807944.486   -14965518.599 7 -11571002.812 8
  18929356.619   -21663790.057 7 -16808619.943 9
  20993657.338   -14031460.001 6  -9553763.568 5
 95  2 19 18 12 29.9940000  0  5 18 14 22 29 19
  20055599.236   -21712571.785 6 -15480957.559 6
  19166126.025   -11201497.046 7  -8572605.002 8
  19811128.064   -14948801.040 7 -11557976.166 7
  18917357.557   -21726838.038 7 -16857748.241 9
  20973702.049   -14136316.109 6  -9635469.580 5
 95  2 19 18 12 59.9940000  0  5 18 14 22 29 19
  20035201.596   -21819748.356 6 -15564471.752 6
  19171329.596   -11174156.432 7  -8551300.673 8
  19814411.502   -14931558.854 7 -11544540.722 7
  18905403.744   -21789653.270 7 -16906695.180 9
  20953786.049   -14240985.892 6  -9717030.397 5
 95  2 19 18 13 29.9940000  0  5 18 14 22 29 19
  20014838.424   -21926764.646 6 -15647861.053 6
  19176620.213   -11146357.757 7  -8529639.416 8
  19817786.314   -14913807.853 7 -11530708.788 7
  18893501.135   -21852215.248 7 -16955444.778 9
  20933905.002   -14345468.787 6  -9798445.593 5
 95  2 19 18 13 59.9940000  0  5 18 14 22 29 19
  19994507.830   -22033605.480 6 -15731113.633 6
  19181997.705   -11118089.314 7  -8507612.102 8
  19821262.830   -14895546.487 7 -11516479.174 7
  18881645.314   -21914507.669 7 -17003984.326 9
  20914061.182   -14449742.151 6  -9879697.520 5
 95  2 19 18 14 29.9940000  0  5 18 14 22 29 19
  19974208.447   -22140276.017 6 -15814233.511 6
  19187466.908   -11089357.936 7  -8485224.057 8
  19824828.932   -14876796.050 7 -11501868.475 7
  18869840.979   -21976532.063 7 -17052315.020 9
  20894256.697   -14553802.860 6  -9960783.738 5
 95  2 19 18 14 59.9940000  0  5 18 14 22 29 19
  19953940.252   -22246772.779 6 -15897217.983 6
  19193023.486   -11060155.925 7  -8462469.292 8
  19828494.369   -14857550.253 7 -11486871.774 7
  18858091.088   -22038288.820 7 -17100437.173 9
  20874503.244   -14657628.988 6 -10041687.164 5
 95  2 19 18 15 29.9940000  0  5 18 14 22 29 19
  19933706.314   -22353114.697 6 -15980081.790 7
  19198670.150   -11030481.714 7  -8439346.578 8
  19832248.619   -14837805.259 7 -11471486.084 7
  18846386.315   -22099799.574 7 -17148367.624 9
  20854790.775   -14761216.988 6 -10122405.038 5
 95  2 19 18 15 59.9930000  0  5 18 14 22 29 19
  19913496.958   -22459304.487 6 -16062827.059 6
  19204412.271   -11000320.323 7  -8415844.239 8
  19836106.060   -14817546.193 7 -11455699.831 7
  18834727.044   -22161065.895 7 -17196107.616 9
  20835121.997   -14864563.387 6 -10202934.648 5
 95  2 19 18 16 29.9930000  0  5 18 14 22 29 19
  19893319.388   -22565350.617 6 -16145460.393 7
  19210242.528   -10969663.403 7  -8391955.775 8
  19840061.481   -14796765.863 7 -11439507.395 7
  18823120.247   -22222064.488 7 -17243638.983 9
  20815500.989   -14967668.267 6 -10283276.065 5
 95  2 19 18 16 59.9930000  0  6 28 18 14 22 29 19
  22947047.255          -0.94012
  19873162.028   -22671278.773 6 -16228001.794 6
  19216170.130   -10938534.392 7  -8367699.450 8
  19844108.966   -14775468.327 7 -11422911.942 7
  18811559.302   -22282804.062 7 -17290968.520 8
  20795921.349   -15070565.909 6 -10363456.016 5
 95  2 19 18 17 29.9930000  0  6 28 18 14 22 29 19
  22926382.333     -108542.039 2        -0.02812
  19853030.122   -22777073.452 7 -16310439.186 6
  19222183.278   -10906923.113 7  -8343067.323 7
  19848265.474   -14753648.075 7 -11405909.181 7
  18800054.669   -22343268.227 7 -17338083.452 9
  20776377.466   -15173262.002 6 -10443478.909 5
 95  2 19 18 17 59.9930000  0  6 28 18 14 22 29 19
  22905747.442     -217008.454 3    -84519.155 3
  19832926.114   -22882724.319 6 -16392764.517 6
  19228290.146   -10874826.625 7  -8318057.122 8
  19852512.122   -14731328.264 7 -11388517.152 7
  18788602.794   -22403452.517 7 -17384980.297 9
  20756876.435   -15275756.942 6 -10523345.051 5
 95  2 19 18 18 29.9930000  0  6 28 18 14 22 29 19
  22885124.091     -325397.147 3   -168977.790 2
  19812847.161   -22988232.174 6 -16474978.413 7
  19234489.927   -10842254.854 7  -8292676.567 8
  19856850.575   -14708520.447 7 -11370744.858 7
  18777199.974   -22463374.515 7 -17431672.765 8
  20737408.239   -15378048.085 6 -10603052.383 5
 95  2 19 18 18 59.9930000  0  6 28 18 14 22 29 19
  22864519.700     -433694.846 3   -253365.458 2
  19792799.200   -23093576.748 6 -16557065.070 7
  19240778.810   -10809205.772 7  -8266924.088 7
  19861289.114   -14685212.118 7 -11352582.556 7
  18765843.310   -22523045.742 7 -17478169.826 9
  20717987.771   -15480120.463 6 -10682589.253 6
 95  2 19 18 19 29.9930000  0  6 28 18 14 22 29 19
  22843921.067     -541907.447 3   -337686.852 3
  19772784.981   -23198750.993 6 -16639019.016 6
  19247154.817   -10775695.263 7  -8240812.054 7
  19865812.903   -14661432.385 7 -11334052.922 7
  18754538.372   -22582467.216 7 -17524472.273 9
  20698608.114   -15581965.226 6 -10761948.782 5
 95  2 19 18 19 59.9930000  0  6 28 18 14 22 29 19
  22823348.005     -650031.519 3   -421939.236 2
  19752804.724   -23303757.174 7 -16720842.001 7
  19253619.544   -10741732.783 7  -8214347.828 7
  19870426.552   -14637173.735 7 -11315150.103 7
  18743278.419   -22641633.013 7 -17570575.493 9
  20679270.583   -15683574.419 6 -10841124.749 6
 95  2 19 18 20 29.9930000  0  6 28 18 14 22 29 19
  22802788.310     -758064.566 3   -506120.719 2
  19732852.708   -23408605.140 7 -16802541.701 7
  19260166.817   -10707327.052 7  -8187538.218 7
  19875138.950   -14612424.273 7 -11295864.840 7
  18732069.794   -22700535.950 7 -17616473.892 9
  20659976.560   -15784958.267 6 -10920125.103 5
 95  2 19 18 20 59.9930000  0  6 28 18 14 22 29 19
  22782247.872     -866002.354 3   -590227.965 2
  19712933.911   -23513284.427 7 -16884109.961 7
  19266796.091   -10672478.019 7  -8160383.170 7
  19879940.356   -14587201.000 7 -11276210.364 7
  18720915.911   -22759148.267 7 -17662145.826 9
  20640723.817   -15886139.359 6 -10998967.487 5
 95  2 19 18 21 29.9930000  0  6 28 18 14 22 29 19
  22761729.091     -973844.117 3   -674260.347 1
  19693044.653   -23617795.735 7 -16965547.335 7
  19273513.739   -10637183.688 7  -8132881.142 7
  19884826.661   -14561510.917 7 -11256192.147 7
  18709819.489   -22817461.442 7 -17707584.669 9
  20621508.474   -15987123.626 6 -11077656.483 5
 95  2 19 18 21 59.9930000  0  6 28 18 14 22 29 19
  22741222.864    -1081583.537 3   -758213.023 2
  19673188.239   -23722145.553 7 -17046858.866 7
  19280317.208   -10601436.038 7  -8105025.885 7
  19889803.919   -14535345.158 7 -11235803.283 7
  18698779.067   -22875484.016 7 -17752797.076 9
  20602326.864   -16087912.010 6 -11156192.852 6
 95  2 19 18 22 29.9930000  0  6 28 18 14 22 29 19
  22720745.474    -1189217.822 3   -842083.768 2
  19653362.028   -23826329.559 7 -17128041.191 7
  19287206.536   -10565225.717 7  -8076810.096 7
  19894872.169   -14508727.667 7 -11215062.401 7
  18687791.677   -22933220.328 7 -17797786.427 8
  20583181.497   -16188514.674 6 -11234584.509 6
 95  2 19 18 22 59.9930000  0  6 28 18 14 22 29 19
  22700278.981    -1296743.923 3   -925870.171 1
  19633567.739   -23930343.304 7 -17209090.840 7
  19294182.021   -10528562.555 7  -8048241.454 7
  19900024.317   -14481658.135 7 -11193969.291 7
  18676857.286   -22990675.284 7 -17842556.510 8
  20564079.935   -16288915.328 6 -11312818.743 5
 95  2 19 18 23 29.9930000  0  6 28 18 14 22 29 19
  22679840.005    -1404160.740 3  -1009571.438 2
  19613806.060   -24034201.891 7 -17290019.591 7
  19301245.536   -10491447.641 7  -8019320.786 7
  19905265.388   -14454114.159 7 -11172506.484 7
  18665974.294   -23047867.908 7 -17887122.206 9
  20545015.083   -16389093.375 6 -11390879.525 6
 95  2 19 18 23 59.9930000  0  6 28 18 14 22 29 19
  22659423.825    -1511459.846 3  -1093180.990 2
  19594069.856   -24137899.093 7 -17370822.581 7
  19308395.677   -10453878.452 7  -7990046.142 7
  19910595.630   -14426090.252 7 -11150669.706 7
  18655141.802   -23104792.782 7 -17931479.252 9
  20525994.036   -16489041.774 6 -11468761.351 6
 95  2 19 18 24 29.9930000  0  6 28 18 14 22 29 19
  22639029.411    -1618639.612 4  -1176697.534 1
  19574373.458   -24241421.042 7 -17451489.023 7
  19315630.396   -10415862.256 7  -7960423.186 7
  19916021.052   -14397583.873 7 -11128456.974 7
  18644362.169   -23161444.417 7 -17975623.386 9
  20507019.849   -16588759.372 6 -11546463.329 6
 95  2 19 18 24 59.9930000  0  6 28 18 14 22 29 19
  22618657.685    -1725694.737 4  -1260116.975 2
  19554711.036   -24344752.132 7 -17532006.722 7
  19322946.974   -10377413.539 7  -7930463.201 7
  19921539.778   -14368578.622 7 -11105855.518 7
  18633633.411   -23217823.870 7 -18019555.430 8
  20488087.591   -16688234.282 6 -11623976.208 6
 95  2 19 18 25 29.9930000  0  6 28 18 14 22 29 19
  22598306.646    -1832624.272 4  -1343438.540 2
  19535085.224   -24447876.944 7 -17612363.696 7
  19330346.403   -10338531.475 7  -7900165.542 7
  19927152.724   -14339087.023 7 -11082875.081 7
  18622956.130   -23273930.234 7 -18063274.679 9
  20469204.935   -16787478.829 6 -11701309.572 6
 95  2 19 18 25 59.9930000  0  6 28 18 14 22 29 19
  22577988.841    -1939424.786 4  -1426659.541 2
  19515503.317   -24550775.194 7 -17692544.129 7
  19337824.966   -10299225.748 6  -7869537.756 7
  19932855.825   -14309130.222 7 -11059532.156 7
  18612333.177   -23329751.913 7 -18106772.092 9
  20450364.302   -16886489.670 6 -11778460.833 6
 95  2 19 18 26 29.9930000  0  6 28 18 14 22 29 19
  22557684.474    -2046098.978 4  -1509782.142 1
  19495965.935   -24653459.654 7 -17772557.963 7
  19345381.247   -10259510.691 7  -7838591.011 7
  19938643.442   -14278713.012 7 -11035830.466 7
  18601765.224   -23385289.552 7 -18150048.174 9
  20431563.067   -16985272.831 6 -11855434.673 6
 95  2 19 18 26 59.9930000  0  6 28 18 14 22 29 19
  22537413.606    -2152627.460 3  -1592791.151 1
  19476463.247   -24755932.859 7 -17852407.197 7
  19353020.239   -10219372.697 7  -7807314.712 7
  19944518.935   -14247837.351 7 -11011771.552 7
  18591253.950   -23440526.188 7 -18193089.712 8
  20412813.974   -17083820.728 6 -11932225.196 6
 95  2 19 18 27 29.9930000  0  6 28 18 14 22 29 19
  22517165.583    -2259019.265 3  -1675693.697 1
  19456996.810   -24858236.532 7 -17932124.331 7
  19360736.771   -10178812.612 6  -7775709.506 7
  19950475.388   -14216529.605 7 -10987375.943 7
  18580799.708   -23495470.962 7 -18235903.824 9
  20394099.153   -17182154.502 6 -12008848.869 6
 95  2 19 18 27 59.9930000  0  6 28 18 14 22 29 19
  22496945.849    -2365274.484 3  -1758489.788 2
  19437557.060   -24960391.569 7 -18011725.629 7
  19368536.442   -10137827.028 6  -7743772.742 7
  19956516.364   -14184798.680 7 -10962650.586 7
  18570397.411   -23550122.519 7 -18278489.455 9
  20375425.708   -17280288.305 6 -12085316.735 5
 95  2 19 18 28 29.9930000  0  6 28 18 14 22 29 19
  22476754.083    -2471389.849 3  -1841176.891 1
  19418145.575   -25062401.493 7 -18091213.863 7
  19376417.974   -10096409.912 6  -7711499.718 7
  19962633.435   -14152643.865 7 -10937594.921 7
  18560054.044   -23604484.535 7 -18320849.471 9
  20356782.888   -17378245.147 6 -12161646.693 6
 95  2 19 18 28 59.9930000  0  6 28 18 14 22 29 19
  22456589.200    -2577358.987 3  -1923750.068 2
  19398765.489   -25164242.989 7 -18170570.861 7
  19384384.333   -10054547.167 6  -7678879.448 7
  19968831.810   -14120068.628 7 -10912211.662 7
  18549765.005   -23658551.617 7 -18362979.667 9
  20338178.356   -17476024.368 6 -12237838.261 6
 95  2 19 18 29 29.9930000  0  6 28 18 14 22 29 19
  22436450.935    -2683179.557 3  -2006207.511 2
  19379421.872   -25265891.515 7 -18249777.489 7
  19392435.349   -10012244.495 6  -7645916.382 7
  19975115.169   -14087053.699 7 -10886485.773 7
  18539534.341   -23712316.521 7 -18404874.397 9
  20319606.927   -17573621.267 6 -12313887.753 6
 95  2 19 18 29 59.9930000  0  6 28 18 14 22 29 19
  22416341.411    -2788851.243 3  -2088548.880 1
  19360121.146   -25367322.592 7 -18328814.685 7
  19400564.161    -9969516.045 6  -7612621.542 7
  19981483.325   -14053587.720 7 -10860408.433 7
  18529361.966   -23765778.574 7 -18446533.144 9
  20301068.724   -17671025.532 6 -12389787.144 6
 95  2 19 18 30 29.9930000  0  6 28 18 14 22 29 19
  22396266.646    -2894368.007 3  -2170769.617 2
  19340861.903   -25468528.832 7 -18407676.684 7
  19408774.911    -9926375.174 6  -7579005.335 7
  19987939.958   -14019657.939 7 -10833969.685 7
  18519243.896   -23818941.680 7 -18487958.946 9
  20282576.739   -17768214.810 6 -12465519.018 6
 95  2 19 18 30 59.9930000  0  6 28 18 14 22 29 19
  22376212.896    -2999733.239 3  -2252872.264 3
  19321643.231   -25569523.800 7 -18486374.047 7
  19417059.255    -9882835.091 6  -7545078.050 7
  19994481.489   -13985276.919 7 -10807179.322 7
  18509182.630   -23871816.165 7 -18529159.854 8
  20264123.599   -17865177.268 6 -12541074.154 6
 95  2 19 18 31 29.9930000  0  6 28 18 14 22 29 19
  22356191.888    -3104940.894 3  -2334852.150 2
  19302463.036   -25670321.339 7 -18564917.573 7
  19425421.888    -9838896.377 6  -7510840.145 7
  20001111.060   -13950444.380 7 -10780037.118 7
  18499175.489   -23924404.233 7 -18570137.578 8
  20245715.091   -17961909.972 6 -12616450.250 6
 95  2 19 18 31 59.9930000  0  6 28 18 14 22 29 19
  22336202.161    -3209983.206 3  -2416703.146 3
  19283315.036   -25770930.726 7 -18643314.483 7
  19433862.333    -9794545.097 6  -7476280.762 7
  20007822.763   -13915169.494 6 -10752550.238 7
  18489220.544   -23976712.111 7 -18610896.968 8
  20227356.802   -18058406.033 6 -12691641.963 6
 95  2 19 18 32 29.9930000  0  6 28 18 14 22 29 19
  22316246.763    -3314855.330 3  -2498421.556 4
  19264206.122   -25871354.086 7 -18721566.436 7
  19442383.888    -9749770.752 6  -7441391.722 7
  20014616.622   -13879464.712 6 -10724728.369 7
  18479320.622   -24028740.316 7 -18651438.437 8
  20209037.450   -18154669.801 6 -12766652.665 6
 95  2 19 18 32 59.9930000  0  6 28 18 14 22 29 19
  22296317.169    -3419556.601 3  -2580006.854 3
  19245132.599   -25971590.174 7 -18799672.461 7
  19450984.966    -9704571.345 6  -7406171.459 7
  20021489.208   -13843348.741 6 -10696586.090 7
  18469475.692   -24080475.535 7 -18691751.604 8
  20190759.013   -18250708.919 6 -12841488.306 6
 95  2 19 18 33 29.9930000  0  6 28 18 14 22 29 19
  22276431.052    -3524085.144 3  -2661457.544 3
  19226093.692   -26071638.040 7 -18877631.826 7
  19459665.989    -9658951.688 6  -7370623.721 7
  20028440.161   -13806809.408 6 -10668113.910 7
  18459688.653   -24131910.812 7 -18731831.039 8
  20172526.231   -18346527.891 6 -12916152.419 6
 95  2 19 18 33 59.9930000  0  6 28 18 14 22 29 19
  22256572.419    -3628441.233 4  -2742773.844 2
  19207090.872   -26171493.999 7 -18955441.655 7
  19468420.505    -9612940.691 6  -7334771.059 7
  20035475.185   -13769852.584 6 -10639316.428 7
  18449959.880   -24183038.539 7 -18771670.834 8
  20154336.239   -18442120.187 6 -12990639.884 6
 95  2 19 18 34 29.9930000  0  6 28 18 14 22 29 19
  22236749.661    -3732618.474 4  -2823950.808 4
  19188128.481   -26271147.811 7 -19033093.964 7
  19477245.028    -9566560.743 6  -7298630.896 7
  20042587.685   -13732479.806 6 -10610194.819 7
  18440291.685   -24233837.351 7 -18811254.335 8
  20136189.325   -18537482.926 6 -13064948.476 6
 95  2 19 18 34 59.9930000  0  6 28 18 14 22 29 19
  22216959.536    -3836614.619 4  -2904986.651 4
  19169202.646   -26370597.387 7 -19110587.122 7
  19486139.122    -9519819.757 6  -7262209.412 7
  20049779.802   -13694694.042 6 -10580751.401 7
  18430689.271   -24284297.047 7 -18850573.586 8
  20118082.614   -18632623.912 6 -13139084.278 6
 95  2 19 18 35 29.9930000  0  6 28 18 14 22 29 19
  22197203.255    -3940431.835 5  -2985883.085 4
  19150321.677   -26469828.619 7 -19187910.146 7
  19495103.474    -9472728.249 6  -7225514.786 7
  20057045.896   -13656490.367 6 -10550982.345 7
  18421149.122   -24334430.073 7 -18889638.284 8
  20100017.122   -18727550.818 6 -13213053.261 6
 95  2 19 18 35 59.9930000  0  6 28 18 14 22 29 19
  22177483.614    -4044060.376 5  -3066632.494 4
  19131482.942   -26568820.898 7 -19265046.973 7
  19504134.669    -9425275.002 6  -7188538.288 7
  20064394.146   -13617885.068 6 -10520900.330 7
  18411673.114   -24384225.271 7 -18928439.744 8
  20081999.458   -18822250.933 6 -13286845.520 6
 95  2 19 18 36 29.9930000  0  6 28 18 14 22 29 19
  22157798.263    -4147486.946 5  -3147224.567 4
  19112694.060   -26667558.126 7 -19341985.062 8
  19513236.380    -9377425.431 6  -7151252.957 7
  20071817.528   -13578876.666 6 -10490504.208 7
  18402264.083   -24433673.934 7 -18966971.178 8
  20064024.013   -18916726.792 6 -13360463.035 6
 95  2 19 18 36 59.9920000  0  6 28 18 14 22 29 19
  22138157.586    -4250715.233 5  -3227662.148 3
  19093953.195   -26766043.521 7 -19418726.914 8
  19522420.141    -9329177.046 6  -7113656.873 7
  20079317.703   -13539475.450 6 -10459801.998 7
  18392917.953   -24482789.169 7 -19005242.797 8
  20046083.008   -19010991.269 6 -13433915.823 6
 95  2 19 18 37 29.9920000  0  6 28 18 14 22 29 19
  22118548.125    -4353743.274 5  -3307943.684 4
  19075258.930   -26864286.478 7 -19495279.862 7
  19531676.930    -9280531.723 6  -7075751.487 7
  20086890.133   -13499665.986 6 -10428781.683 7
  18383632.625   -24531579.526 7 -19043261.264 8
  20028184.922   -19105037.013 6 -13507198.191 6
 95  2 19 18 37 59.9920000  0  6 28 18 14 22 29 19
  22098978.586    -4456577.477 5  -3388074.146 4
  19056601.641   -26962321.542 7 -19571670.810 7
  19541006.438    -9231503.026 6  -7037547.362 6
  20094538.227   -13459473.237 6 -10397462.702 7
  18374408.945   -24580054.843 7 -19081034.245 8
  20010329.414   -19198884.669 6 -13580326.190 6
 95  2 19 18 38 29.9920000  0  6 28 18 14 22 29 19
  22079455.289    -4559208.279 5  -3468046.171 5
  19037985.898   -27060150.831 7 -19647901.415 7
  19550409.000    -9182091.602 6  -6999045.011 7
  20102263.305   -13418882.044 6 -10365833.248 7
  18365245.633   -24628216.740 7 -19118562.995 8
  19992506.289   -19292544.857 6 -13653308.116 6
 95  2 19 18 38 59.9920000  0  6 28 18 14 22 29 19
  22059963.086    -4661638.940 4  -3547862.223 4
  19019408.984   -27157781.227 7 -19723977.037 7
  19559881.781    -9132309.091 6  -6960253.502 6
  20110062.844   -13377899.029 6 -10333898.473 7
  18356135.305   -24676083.080 7 -19155861.446 8
  19974718.648   -19386015.132 6 -13726142.067 6
 95  2 19 18 39 29.9920000  0  6 28 18 14 22 29 19
  22040509.023    -4763863.562 4  -3627517.722 3
  19000868.203   -27255208.559 7 -19799894.425 7
  19569427.945    -9082150.921 6  -6921169.269 6
  20117932.375   -13336532.964 6 -10301665.222 7
  18347083.024   -24723656.097 7 -19192931.334 8
  19956968.391   -19479283.006 6 -13798818.288 6
 95  2 19 18 39 59.9920000  0  6 28 18 14 22 29 19
  22021095.938    -4865885.991 4  -3707015.673 4
  18982367.336   -27352427.061 7 -19875649.096 8
  19579044.047    -9031618.735 6  -6881793.592 7
  20125874.500   -13294802.392 6 -10269147.936 7
  18338086.133   -24770929.473 7 -19229767.734 8
  19939260.024   -19572356.266 6 -13871342.874 6
 95  2 19 18 40 29.9920000  0  6 28 18 14 22 29 19
  22001723.188    -4967687.207 4  -3786341.234 4
  18963912.734   -27449399.889 7 -19951212.342 8
  19588730.609    -8980705.021 6  -6842120.623 6
  20133887.578   -13252694.600 6 -10236336.713 7
  18329150.930   -24817886.043 7 -19266357.275 8
  19921588.273   -19665198.126 6 -13943687.151 6
 95  2 19 18 40 59.9920000  0  6 28 18 14 22 29 19
  21982394.914    -5069263.307 3  -3865491.391 3
  18945509.813   -27546120.072 7 -20026578.710 8
  19598491.867    -8929421.769 6  -6802159.697 6
  20141973.609   -13210202.642 6 -10203226.148 7
  18320279.141   -24864510.107 7 -19302687.715 8
  19903966.797   -19757804.509 6 -14015847.939 6
 95  2 19 18 41 29.9920000  0  6 28 18 14 22 29 19
  21963104.844    -5170609.970 3  -3944462.749 2
  18927151.336   -27642588.447 7 -20101748.884 8
  19608318.414    -8877786.937 6  -6761924.821 6
  20150133.672   -13167313.857 6 -10169806.357 7
  18311474.320   -24910775.258 7 -19338738.486 8
  19886393.414   -19850183.484 6 -14087831.526 6
 95  2 19 18 41 59.9920000  0  6 28 18 14 22 29 19
  21943861.266    -5271737.062 3  -4023263.034 2
  18908840.563   -27738814.439 7 -20176730.176 8
  19618204.117    -8825823.431 6  -6721433.830 6
  20158370.383   -13124036.086 6 -10136083.458 7
  18302738.609   -24956684.778 7 -19374512.146 8
  19868850.078   -19942359.491 6 -14159656.958 6
 95  2 19 18 42 29.9920000  0  6 28 18 14 22 29 19
  21924663.813    -5372646.434 4  -4101893.676 2
  18890575.414   -27834801.129 7 -20251524.997 8
  19628155.828    -8773539.316 6  -6680693.013 6
  20166679.102   -13080374.820 6 -10102061.730 7
  18294069.180   -25002250.367 7 -19410017.804 8
  19851345.086   -20034339.352 6 -14231329.542 6
 95  2 19 18 42 59.9920000  0  6 28 18 14 22 29 19
  21905506.984    -5473327.586 5  -4180346.463 2
  18872353.984   -27930546.424 7 -20326131.718 8
  19638168.180    -8720924.845 6  -6639694.776 6
  20175061.836   -13036330.334 6 -10067741.390 7
  18285463.883   -25047462.847 7 -19445248.309 8
  19833881.164   -20126124.959 6 -14302850.751 6
 95  2 19 18 43 29.9920000  0  6 28 18 14 22 29 19
  21886387.367    -5573778.636 4  -4258619.953 2
  18854183.656   -28026042.838 7 -20400544.501 8
  19648244.766    -8667967.467 6  -6598429.343 6
  20183511.797   -12991921.011 6 -10033136.762 7
  18276924.336   -25092340.301 7 -19480217.761 8
  19816454.078   -20217695.256 6 -14374204.198 6
 95  2 19 18 43 59.9920000  0  6 28 18 14 22 29 19
  21867316.563    -5673984.263 4  -4336702.208 1
  18836060.727   -28121271.035 7 -20474748.286 8
  19658391.820    -8614645.873 6  -6556880.113 6
  20192032.688   -12947147.618 6  -9998248.444 6
  18268445.633   -25136896.397 7 -19514936.803 8
  19799078.828   -20309023.595 6 -14445369.098 6
 95  2 19 18 44 29.9920000  0  7 28 18 31 14 22 29 19
  21848298.508    -5773947.553 5  -4414595.626 1
  18817991.211   -28216241.184 7 -20548750.992 8
  22378246.906          -0.67612
  19668603.867    -8560969.936 6  -6515054.756 6
  20200621.992   -12902019.185 6  -9963083.460 7
  18260026.430   -25181141.275 7 -19549413.333 8
  19781742.227   -20400104.961 6 -14516341.564 6
 95  2 19 18 44 59.9920000  0  7 28 18 31 14 22 29 19
  21829326.281    -5873662.902 5  -4492295.831 3
  18799965.672   -28310953.597 7 -20622552.864 8
  22354554.609     -124474.502 2
  19678887.688    -8506937.149 6  -6472951.340 6
  20209276.563   -12856518.580 6  -9927628.487 6
  18251667.024   -25225066.683 7 -19583640.936 8
  19764460.180   -20490942.887 6 -14587124.326 6
 95  2 19 18 45 29.9920000  0  7 28 18 31 14 22 29 19
  21810393.844    -5973132.195 5  -4569804.317 2
  18781991.945   -28405414.630 7 -20696158.863 8
  22330868.883     -248992.823 1        -0.39412
  19689234.500    -8452555.017 6  -6430575.714 6
  20218009.328   -12810636.992 6  -9891876.641 6
  18243368.852   -25268679.024 7 -19617624.583 8
  19747212.961   -20581554.564 6 -14657730.794 6
 95  2 19 18 45 59.9920000  0  6 28 18 14 22 29 19
  21791507.547    -6072350.562 5  -4647117.269 2
  18764060.359   -28499634.028 7 -20769576.581 8
  19699649.524    -8397830.889 6  -6387933.594 6
  20226813.922   -12764372.735 6  -9855826.619 6
  18235133.742   -25311957.807 7 -19651348.321 8
  19730012.117   -20671966.352 6 -14728181.500 6
 95  2 19 18 46 29.9920000  0  6 28 18 14 22 29 19
  21772682.422    -6171317.506 5  -4724234.326 4
  18746176.039   -28593621.017 7 -20842813.189 8
  19710126.156    -8342770.817 6  -6345029.692 6
  20235686.445   -12717734.926 6  -9819485.512 6
  18226963.688   -25354884.961 7 -19684798.059 8
  19712837.883   -20762197.007 6 -14798491.065 6
 95  2 19 18 46 59.9920000  0  7 28 18 31 14 22 29 19
  21753895.805    -6270042.970 5  -4801163.181 4
  18728331.648   -28687390.592 7 -20915880.386 8
  22259771.688     -124553.715 3
  19720666.211    -8287394.803 6  -6301879.613 6
  20244629.828   -12670747.613 6  -9782872.059 6
  18218859.922   -25397474.210 7 -19717984.496 8
  19695698.453   -20852266.178 6 -14868674.807 6
 95  2 19 18 47 29.9920000  0  7 28 18 31 14 22 29 19
  21735154.734    -6368507.047 5  -4877888.363 5
  18710535.961   -28780910.336 7 -20988752.906 8
  22236071.781     -249124.182 3
  19731263.773    -8231701.636 6  -6258482.401 6
  20253636.195   -12623418.699 6  -9745992.423 6
  18210820.477   -25439712.453 7 -19750897.427 8
  19678599.383   -20942140.529 6 -14938706.739 6
 95  2 19 18 47 59.9920000  0  7 28 18 31 14 22 29 19
  21716467.141    -6466710.396 5  -4954410.394 4
  18692790.258   -28874175.299 7 -21061426.893 8
  22212345.578     -373731.636 3
  19741919.055    -8175703.003 6  -6214847.150 6
  20262705.641   -12575760.491 6  -9708856.207 6
  18202850.070   -25481601.623 7 -19783538.342 8
  19661531.750   -21031810.823 6 -15008579.668 6
 95  2 19 18 48 29.9920000  0  7 28 18 31 14 22 29 19
  21697827.531    -6564652.793 5  -5030729.123 4
  18675090.578   -28967181.923 7 -21133899.576 8
  22188632.016     -498401.065 3        -0.20611
  19752633.672    -8119406.756 6  -6170980.001 6
  20271833.149   -12527776.538 6  -9671466.155 6
  18194943.484   -25523153.956 7 -19815916.793 8
  19644513.172   -21121258.000 6 -15078278.744 6
 95  2 19 18 48 59.9920000  0  7 28 18 31 14 22 29 19
  21679241.516    -6662343.126 5  -5106851.425 4
  18657440.688   -29059924.736 7 -21206166.688 8
  22164899.172     -623133.897 3    -97194.394 1
  19763398.063    -8062832.129 6  -6126895.937 6
  20281026.594   -12479480.211 6  -9633832.714 6
  18187096.984   -25564384.878 7 -19848044.793 8
  19627534.375   -21210484.929 6 -15147806.191 6
 95  2 19 18 49 29.9920000  0  7 28 18 31 14 22 29 19
  21660703.883    -6759759.249 5  -5182760.054 4
  18639848.297   -29152378.573 7 -21278208.626 8
  22141158.031     -747896.265 3   -194411.610 2
  19774222.531    -8005953.901 6  -6082575.299 6
  20290278.469   -12430854.753 6  -9595942.788 6
  18179319.383   -25605261.719 7 -19879896.892 8
  19610598.734   -21299472.508 6 -15217147.142 6
 95  2 19 18 49 59.9920000  0  7 28 18 31 14 22 29 19
  21642217.703    -6856905.909 5  -5258458.717 5
  18622303.633   -29244577.007 7 -21350051.553 8
  22117406.125     -872688.870 3   -291652.361 1
  19785105.055    -7948764.069 6  -6038011.848 6
  20299592.039   -12381908.070 6  -9557802.569 6
  18171608.273   -25645780.445 7 -19911469.935 8
  19593706.461   -21388233.827 6 -15286311.787 6
 95  2 19 18 50 29.9920000  0  7 28 18 31 14 22 29 19
  21623776.500    -6953772.108 5  -5333938.861 4
  18604808.727   -29336509.574 7 -21421687.314 8
  22093660.117     -997484.956 3   -388895.830 2
  19796047.914    -7891252.004 6  -5993197.315 6
  20308968.141   -12332640.500 6  -9519412.313 6
  18163970.086   -25685920.050 7 -19942747.561 8
  19576859.813   -21476766.027 6 -15355297.897 6
 95  2 19 18 50 59.9920000  0  7 28 18 31 14 22 29 19
  21605401.883    -7050357.846 5  -5409200.445 5
  18587365.133   -29428173.307 7 -21493113.592 8
  22069911.711    -1122280.255 3   -486138.742 1
  19807054.258    -7833420.607 6  -5948133.955 6
  20318404.656   -12283050.753 6  -9480771.020 6
  18156404.758   -25725679.535 7 -19973728.995 8
  19560053.273   -21565094.256 6 -15424125.065 6
 95  2 19 18 51 29.9920000  0  7 28 18 31 14 22 29 19
  21587077.305    -7146665.989 5  -5484245.758 4
  18569970.664   -29519577.626 7 -21564337.731 8
  22046159.828    -1247091.744 3   -583394.217 1
  19818118.703    -7775275.416 6  -5902826.071 6
  20327905.016   -12233133.527 6  -9441874.535 6
  18148911.078   -25765058.680 7 -20004414.051 8
  19543283.906   -21653221.499 6 -15492795.625 6
 95  2 19 18 51 59.9920000  0  7 28 18 31 14 22 29 19
  21568804.773    -7242685.041 5  -5559065.794 4
  18552630.648   -29610704.575 7 -21635345.740 8
  22022403.899    -1371918.930 4   -680661.939 2
  19829245.414    -7716809.388 6  -5857268.189 6
  20337470.797   -12182866.982 6  -9402705.858 6
  18141486.555   -25804063.844 7 -20034807.695 8
  19526553.898   -21741138.046 6 -15561302.014 6
 95  2 19 18 52 29.9920000  0  7 28 18 31 14 22 29 19
  21550588.211    -7338418.364 5  -5633663.173 5
  18535345.742   -29701535.341 7 -21706122.958 8
  21998644.281    -1496770.820 4   -777948.941 2
  19840428.672    -7658039.781 6  -5811473.749 6
  20347101.078   -12132255.048 6  -9363268.057 6
  18134132.188   -25842716.756 7 -20064926.869 8
  19509861.641   -21828859.898 6 -15629656.691 6
 95  2 19 18 52 59.9920000  0  7 28 18 31 14 22 29 19
  21532420.070    -7433864.717 4  -5708036.951 5
  18518117.750   -29792069.351 7 -21776668.946 8
  21974883.000    -1621652.857 4   -875259.426 2
  19851668.617    -7598973.126 6  -5765447.844 6
  20356797.266   -12081296.272 6  -9323559.964 6
  18126841.406   -25881027.559 7 -20094779.445 8
  19493207.297   -21916379.995 6 -15697854.150 6
 95  2 19 18 53 29.9920000  0  7 28 18 31 14 22 29 19
  21514311.641    -7529028.421 5  -5782190.465 5
  18500943.133   -29882321.394 7 -21846995.218 8
  21951112.461    -1746550.059 3   -972581.797 3
  19862963.164    -7539619.254 6  -5719198.135 6
  20366558.711   -12030013.308 6  -9283599.271 6
  18119616.133   -25919002.717 7 -20124370.487 8
  19476590.227   -22003696.646 6 -15765893.086 6
 95  2 19 18 53 59.9920000  0  7 28 18 31 14 22 29 19
  21496261.656    -7623895.128 5  -5856112.563 4
  18483823.820   -29972286.155 7 -21917097.634 8
  21927348.750    -1871434.707 3  -1069894.335 1
  19874314.188    -7479967.691 6  -5672716.468 6
  20376377.320   -11978413.239 6  -9243391.474 6
  18112453.906   -25956638.535 7 -20153697.110 8
  19460010.836   -22090815.704 6 -15833778.049 6
 95  2 19 18 54 29.9920000  0  7 28 18 31 14 22 29 19
  21478270.320    -7718455.049 5  -5929795.604 5
  18466761.156   -30061964.264 7 -21986976.684 8
  21903586.102    -1996287.306 3  -1167181.926 1
  19885719.930    -7420023.796 6  -5626006.993 6
  20386255.594   -11926499.905 6  -9202939.578 6
  18105359.523   -25993919.398 7 -20182747.146 8
  19443469.172   -22177738.218 6 -15901509.868 6
 95  2 19 18 54 59.9920000  0  7 28 18 31 14 22 29 19
  21460334.891    -7812713.896 5  -6003244.036 5
  18449745.727   -30151372.995 7 -22056645.830 8
  21879840.883    -2121108.713 3  -1264445.264 1
  19897181.172    -7359804.123 6  -5579082.640 6
  20396192.008   -11874282.574 6  -9162250.793 6
  18098335.367   -26030833.310 7 -20211511.241 8
  19426966.367   -22264463.778 6 -15969088.225 6
 95  2 19 18 55 29.9920000  0  7 28 18 31 14 22 29 19
  21442450.047    -7906666.503 5  -6076453.847 5
  18432781.891   -30240516.409 7 -22126108.229 8
  21856086.117    -2245912.474 3  -1361694.881 1
  19908693.539    -7299306.615 6  -5531941.788 6
  20406185.227   -11821766.169 6  -9121328.964 6
  18091380.281   -26067378.536 7 -20239988.050 8
  19410504.438   -22350994.853 6 -16036515.028 6
 95  2 19 18 55 59.9920000  0  7 28 18 31 14 22 29 19
  21424631.469    -8000320.470 5  -6149430.946 5
  18415870.867   -30329393.310 7 -22195362.959 8
  21832336.680    -2370736.000 3  -1458959.880 1
  19920253.422    -7238548.547 6  -5484597.907 6
  20416233.844   -11768962.388 6  -9080183.196 6
  18084496.242   -26103557.704 7 -20268179.625 8
  19394069.695   -22437336.705 6 -16103794.379 6
 95  2 19 18 56 29.9920000  0  7 28 18 31 14 22 29 19
  21406869.094    -8093664.781 5  -6222166.747 5
  18399013.539   -30417980.082 7 -22264391.616 8
  21808577.914    -2495573.817 3  -1556236.076 2
  19931866.680    -7177526.011 6  -5437047.948 6
  20426339.313   -11715859.452 6  -9038804.326 6
  18077686.844   -26139346.103 7 -20296066.694 8
  19377679.867   -22523461.300 6 -16170904.445 6
 95  2 19 18 56 59.9920000  0  8 28 18 31 14 22 29 19 27
  21389162.149    -8186691.267 5  -6294654.878 5
  18382212.484   -30506261.820 7 -22333182.581 8
  21784823.078    -2620412.594 3  -1653512.986 2
  19943531.930    -7116226.943 6  -5389282.508 6
  20436501.352   -11662464.778 6  -8997198.129 6
  18070951.273   -26174735.956 7 -20323643.217 8
  19361340.164   -22609350.034 6 -16237830.723 6
  22469175.688          -0.52913
 95  2 19 18 57 29.9920000  0  8 28 18 31 14 22 29 19 27
  21371515.273    -8279414.283 5  -6366906.535 4
  18365471.797   -30594249.333 7 -22401744.291 8
  21761071.125    -2745254.510 3  -1750792.333 1
  19955246.688    -7054659.537 6  -5341307.967 6
  20446711.750   -11608800.140 6  -8955381.568 6
  18064289.109   -26209749.317 7 -20350926.363 8
  19345032.305   -22695026.899 6 -16304591.907 6
  22447216.406     -115389.256 3        -0.06013
 95  2 19 18 57 59.9920000  0  8 28 18 31 14 22 29 19 27
  21353936.149    -8371822.003 5  -6438912.508 5
  18348785.828   -30681924.958 7 -22470062.959 8
  21737315.516    -2870055.562 3  -1848039.831 3
  19967013.414    -6992822.990 6  -5293123.704 6
  20456977.820   -11554849.739 6  -8913342.345 6
  18057700.297   -26244374.775 7 -20377907.254 8
  19328772.703   -22780483.666 6 -16371181.577 6
  22425272.297     -230718.528 3    -89866.949 4
 95  2 19 18 58 29.9910000  0  8 28 18 31 14 22 29 19 27
  21336413.987    -8463900.412 5  -6510661.878 4
  18332160.769   -30769282.429 7 -22538133.719 8
  21713584.097    -2994778.940 4  -1945226.850 2
  19978837.675    -6930707.153 6  -5244721.822 6
  20467300.769   -11500602.659 6  -8871071.946 6
  18051183.214   -26278616.144 7 -20404588.850 8
  19312555.355   -22865703.810 6 -16437586.878 7
  22403333.753     -345974.030 3   -179676.369 4
 95  2 19 18 58 59.9910000  0  8 28 18 31 14 22 29 19 27
  21318952.440    -8555658.394 5  -6582161.563 4
  18315596.612   -30856338.443 7 -22605969.575 8
  21689860.769    -3119438.113 4  -2042363.779 2
  19990706.987    -6868321.576 6  -5196109.751 6
  20477677.519   -11446066.789 6  -8828576.518 6
  18044736.245   -26312499.235 7 -20430991.271 8
  19296376.347   -22950711.785 6 -16503826.840 6
  22381415.487     -461158.303 3   -269430.246 2
 95  2 19 18 59 29.9910000  0  8 28 18 31 14 22 29 19 27
  21301551.831    -8647087.056 5  -6653404.643 4
  18299087.441   -30943090.753 7 -22673568.780 8
  21666151.370    -3244039.612 4  -2139455.774 3
  20002625.550    -6805683.921 6  -5147301.247 6
  20488112.206   -11391234.799 6  -8785850.358 6
  18038357.050   -26346022.963 7 -20457113.668 8
  19280241.847   -23035508.760 6 -16569902.389 7
  22359511.995     -576259.442 4   -359119.357 2
 95  2 19 18 59 59.9910000  0  8 28 18 31 14 22 29 19 27
  21284218.526    -8738191.540 5  -6724395.114 4
  18282633.565   -31029548.285 7 -22740938.283 8
  21642450.917    -3368603.319 4  -2236518.336 1
  20014587.214    -6742822.171 6  -5098318.148 6
  20498600.886   -11336124.251 6  -8742907.136 6
  18032044.323   -26379200.362 7 -20482966.198 8
  19264145.183   -23120100.792 6 -16635818.246 7
  22337624.745     -691279.343 4   -448745.181 2
 95  2 19 19  0 29.9910000  0  8 28 18 31 14 22 29 19 27
  21266948.089    -8828967.205 5  -6795129.376 5
  18266237.581   -31115711.250 7 -22808078.252 8
  21618748.628    -3493139.959 4  -2333559.793 3
  20026594.011    -6679736.204 6  -5049160.318 5
  20509140.003   -11280739.483 6  -8699750.252 6
  18025796.651   -26412027.763 7 -20508546.004 8
  19248086.347   -23204496.484 6 -16701581.102 6
  22315756.620     -806211.301 3   -538302.497 1
 95  2 19 19  0 59.9910000  0  8 28 18 31 14 22 29 19 27
  21249734.894    -8919411.084 5  -6865605.084 4
  18249898.058   -31201584.569 7 -22874992.518 8
  21595052.401    -3617653.526 3  -2430583.247 3
  20038639.964    -6616434.695 6  -4999834.538 5
  20519728.105   -11225094.302 6  -8656390.450 6
  18019619.909   -26444483.961 7 -20533836.562 8
  19232059.081   -23288708.480 6 -16767200.826 6
  22293896.581     -921057.164 4   -627792.719 2
 95  2 19 19  1 29.9910000  0  8 28 18 31 14 22 29 19 27
  21232587.550    -9009511.245 5  -6935812.981 4
  18233613.667   -31287162.798 7 -22941676.850 8
  21571365.355    -3742129.093 4  -2527577.106 2
  20050730.636    -6552902.086 6  -4950328.676 6
  20530369.276   -11169177.468 6  -8612818.982 6
  18013517.831   -26476552.228 7 -20558824.834 8
  19216072.386   -23372716.221 6 -16832661.390 6
  22272062.573    -1035818.440 4   -717217.051 1
 95  2 19 19  1 59.9910000  0  8 28 18 31 14 22 29 19 27
  21215506.198    -9099276.702 5  -7005760.069 5
  18217383.276   -31372450.976 7 -23008135.165 8
  21547687.901    -3866560.288 4  -2624536.357 3
  20062864.183    -6489131.361 6  -4900637.271 5
  20541059.995   -11112998.207 6  -8569043.022 6
  18007486.448   -26508243.116 7 -20583519.041 8
  19200124.425   -23456530.693 7 -16897971.359 7
  22250237.628    -1150510.478 3   -806587.406 2
 95  2 19 19  2 29.9910000  0  8 28 18 31 14 22 29 19 27
  21198485.472    -9188694.262 5  -7075436.041 5
  18201211.800   -31457425.356 7 -23074348.970 8
  21524021.034    -3990929.714 4  -2721447.524 2
  20075050.112    -6425098.487 6  -4850741.599 5
  20551804.065   -11056545.102 6  -8525053.679 6
  18001532.308   -26539539.750 7 -20607906.041 8
  19184216.753   -23540134.664 6 -16963117.301 6
  22228427.386    -1265125.953 3   -895898.097 1
 95  2 19 19  2 59.9910000  0  8 28 18 31 14 22 29 19 27
  21181536.472    -9277776.714 5  -7144850.914 5
  18185100.206   -31542086.506 7 -23140318.694 9
  21500363.237    -4115257.337 4  -2818326.083 2
  20087282.073    -6360815.907 6  -4800651.350 5
  20562592.495   -10999844.143 6  -8480871.211 6
  17995650.792   -26570453.458 7 -20631994.658 8
  19168349.487   -23623527.511 6 -17028098.725 6
  22206621.948    -1379679.921 3   -985160.914 2
 95  2 19 19  3 29.9910000  0  8 28 18 31 14 22 29 19 27
  21164654.901    -9366514.827 5  -7213997.457 4
  18169056.183   -31626406.723 7 -23206022.763 8
  21476713.800    -4239534.832 4  -2915165.548 2
  20099564.503    -6296270.269 6  -4750356.118 5
  20573434.245   -10942873.922 6  -8436478.918 6
  17989839.980   -26600985.696 7 -20655786.032 8
  19152515.831   -23706703.805 6 -17092911.415 7
  22184839.831    -1494171.073 3  -1074374.747 1
 95  2 19 19  3 59.9910000  0  8 28 18 31 14 22 29 19 27
  21147837.722    -9454899.144 5  -7282868.331 5
  18153077.847   -31710373.270 7 -23271451.242 9
  21453075.034    -4363756.870 4  -3011961.860 3
  20111900.308    -6231458.555 6  -4699853.553 5
  20584326.878   -10885637.415 6  -8391879.133 6
  17984104.565   -26631123.310 7 -20679269.900 8
  19136728.480   -23789676.536 6 -17157565.483 6
  22163062.120    -1608595.314 3  -1163536.418 1
 95  2 19 19  4 29.9910000  0  8 28 18 31 14 22 29 19 27
  21131084.433    -9542930.562 5  -7351464.214 5
  18137164.323   -31793995.889 7 -23336611.721 9
  21429446.808    -4487935.084 4  -3108724.011 2
  20124277.995    -6166399.198 6  -4649158.022 5
  20595264.597   -10828145.081 6  -8347079.999 6
  17978443.659   -26660869.786 7 -20702448.993 8
  19120976.003   -23872452.758 6 -17222066.425 6
  22141307.073    -1722951.142 3
 95  2 19 19  4 59.9910000  0  8 28 18 31 14 22 29 19 27
  21114397.691    -9630608.917 5  -7419784.969 5
  18121315.487   -31877290.207 7 -23401516.387 9
  21405821.698    -4612063.094 4  -3205447.033 2
  20136703.198    -6101105.683 6  -4598280.031 5
  20606256.675   -10770396.164 6  -8302080.923 6
  17972856.401   -26690225.786 7 -20725323.812 8
  19105259.784   -23955044.498 7 -17286423.620 7
  22119556.441    -1837236.743 2
 95  2 19 19  5 29.9910000  0  8 28 18 31 14 22 29 19 27
  21097773.042    -9717937.605 5  -7487833.287 4
  18105524.042   -31960276.303 7 -23466180.874 9
  21382216.792    -4736131.124 4  -3302123.329 1
  20149168.464    -6035600.832 6  -4547237.360 5
  20617296.628   -10712389.451 6  -8256880.968 6
  17967343.011   -26719206.851 7 -20747906.477 8
  19089574.050   -24037467.823 7 -17350649.581 6
  22097825.339          -0.51312
 95  2 19 19  5 59.9910000  0  8 28 18 31 14 22 29 19 27
  21081227.886    -9804906.907 5  -7555601.564 5
  18089789.417   -32042951.827 7 -23530603.356 9
  21358621.362    -4860120.275 4  -3398738.148 3
  20161671.050    -5969898.187 6  -4496040.570 5
  20628380.190   -10654131.859 6  -8211485.532 6
  17961898.440   -26747808.031 7 -20770193.121 8
  19073930.026   -24119701.684 7 -17414727.915 7
  22076100.456     -114131.827 2
 95  2 19 19  6 29.9910000  0  8 28 18 31 14 22 29 19 27
  21064750.019    -9891504.405 5  -7623080.122 5
  18074120.284   -32125294.253 7 -23594766.281 9
  21335043.761    -4984009.069 4  -3495274.819 2
  20174210.933    -5904002.205 5  -4444693.124 5
  20639519.151   -10595606.050 6  -8165881.071 6
  17956531.597   -26776022.500 7 -20792178.443 8
  19058322.019   -24201712.272 7 -17478632.250 6
  22054403.237     -228154.719 2        -0.23111
 95  2 19 19  6 59.9910000  0  8 28 18 31 14 22 29 19 27
  21048341.941    -9977729.386 5  -7690268.402 5
  18058518.315   -32207294.847 7
  21311486.675    -5107790.313 4  -3591727.662 2
  20186787.558    -5837917.167 5  -4393198.367 5
  20650703.894   -10536819.833 6  -8120073.702 6
  17951235.815   -26803848.828 7 -20813861.307 8
  19042755.964   -24283501.612 7
  22032723.331     -342078.294 3    -88771.791 2
 95  2 19 19  7 29.9910000  0  8 28 18 31 14 22 29 19 27
  21032003.081   -10063585.337 5  -7757169.130 5
  18042980.042   -32288951.339 7
  21287955.448    -5231475.060 4  -3688105.295 2
  20199397.792    -5771649.090 6  -4341560.984 5
  20661939.425   -10477786.072 6  -8074073.442 6
  17946012.933   -26831295.710 7 -20835248.511 8
  19027234.276   -24365068.584 7
  22011063.433     -455911.105 3   -177472.597 1
 95  2 19 19  7 59.9910000  0  8 28 18 31 14 22 29 19 27
  21015736.065   -10149069.858 5  -7823780.434 5
  18027507.214   -32370257.681 7
  21264435.417    -5355058.335 4  -3784403.860 3
  20212045.394    -5705188.587 5  -4289773.664 5
  20673216.730   -10418516.385 6  -8027889.313 5
  17940862.198   -26858361.498 7 -20856338.749 8
  19011754.706   -24446410.939 7
  21989416.276     -569660.152 3   -266108.186 2
 95  2 19 19  8 29.9910000  0  8 28 18 31 14 22 29 19 27
  20999543.097   -10234180.135 5  -7890100.132 5
  18012098.550   -32451221.601 7 -23848735.654 9
  21240936.175    -5478545.718 4  -3880627.731 2
  20224731.909    -5638518.107 5  -4237822.717 5
  20684538.440   -10359018.167 6  -7981527.147 6
  17935784.401   -26885045.700 7 -20877131.653 8
  18996317.753   -24527539.321 7 -17598682.945 6
  21967783.995     -683341.012 3   -354690.591 2
 95  2 19 19  8 59.9910000  0  8 28 18 31 14 22 29 19 27
  20983415.691   -10318912.314 5  -7956125.197 5
  17996751.605   -32531867.806 7 -23911576.864 8
  21217456.675    -5601940.035 4  -3976779.070 1
  20237459.862    -5571622.843 5  -4185696.628 5
  20695905.190   -10299298.980 6  -7934992.781 6
  17930780.855   -26911340.530 7 -20897621.145 8
  18980920.573   -24608466.553 7 -17661743.127 7
  21946164.573     -796957.926 3   -443223.199 2
 95  2 19 19  9 29.9910000  0  8 28 18 31 14 22 29 19 27
  20967362.448   -10403261.836 5  -8021852.060 5
  17981466.292   -32612193.068 7 -23974167.987 8
  21193991.690    -5725243.745 5  -4072859.850 3
  20250234.620    -5504504.018 5  -4133396.342 5
  20707307.417   -10239360.206 5  -7888287.329 6
  17925851.253   -26937241.952 7 -20917804.089 8
  18965556.612   -24689190.282 6 -17724644.723 6
  21924560.831     -910502.620 4   -531699.499 3
 95  2 19 19  9 59.9910000  0  8 28 18 31 14 22 29 19 27
  20951388.776   -10487233.708 5  -8087284.667 5
  17966242.730   -32692203.996 7 -24036514.164 9
  21170545.870    -5848459.789 5  -4168872.306 3
  20263044.276    -5437174.267 5  -4080931.685 5
  20718751.417   -10179222.910 5  -7841427.156 6
  17920996.105   -26962750.338 7 -20937680.769 8
  18950229.972   -24769727.580 7 -17787401.054 7
  21902960.573    -1023977.734 3   -620121.613 2
 95  2 19 19 10 29.9910000  0  8 28 18 31 14 22 29 19 27
  20935480.050   -10570819.675 5  -8152416.569 5
  17951075.097   -32771899.062 7 -24098614.218 8
  21147111.190    -5971590.504 5  -4264818.239 2
  20275897.300    -5369638.845 5  -4028306.774 5
  20730234.011   -10118879.113 5  -7794406.091 5
  17916221.862   -26987842.742 7 -20957233.309 8
  18934944.214   -24850068.404 7 -17850004.287 7
  21881381.839    -1137382.299 4   -708488.738 2
 95  2 19 19 10 59.9910000  0  8 28 18 31 14 22 29 19 27
  20919647.995   -10654021.606 5  -8217249.220 5
  17935973.183   -32851271.323 7 -24160462.731 9
  21123697.339    -6094635.969 5  -4360697.809 2
  20288784.378    -5301918.971 5  -3975538.122 5
  20741758.886   -10058323.220 5  -7747219.765 6
  17911527.237   -27012516.354 7 -20976459.517 8
  18919690.034   -24930219.108 7 -17912459.371 7
  21859816.261    -1250724.498 4   -796807.263 3
 95  2 19 19 11 29.9910000  0  8 28 18 31 14 22 29 19 27
  20903884.909   -10736836.910 5  -8281780.573 5
  17920933.464   -32930295.210 7 -24222039.786 8
  21100301.409    -6217590.992 5  -4456506.863 3
  20301699.214    -5234038.813 5  -3922644.585 5
  20753322.730    -9997555.959 5  -7699868.725 6
  17906909.440   -27036780.680 7 -20995366.804 8
  18904474.433   -25010183.111 7 -17974768.977 7
  21838265.714    -1364004.534 4   -885077.393 3
 95  2 19 19 11 59.9910000  0  8 28 18 31 14 22 29 19 27
  20888202.558   -10819264.615 5  -8346009.903 5
  17905963.206   -33008978.077 7 -24283351.114 8
  21076924.737    -6340442.849 5  -4552235.526 2
  20314649.605    -5166010.460 5  -3869635.565 5
  20764927.612    -9936573.650 5  -7652350.111 6
  17902367.855   -27060651.237 7 -21013967.259 8
  18889292.261   -25089960.152 7 -18036932.899 7
  21816711.339    -1477230.482 3   -973305.336 2
 95  2 19 19 12 29.9910000  0  8 28 18 31 14 22 29 19 27
  20872592.276   -10901307.132 5  -8409939.088 5
  17891056.526   -33087311.411 7 -24344390.077 8
  21053565.761    -6463189.754 5  -4647882.411 3
  20327623.573    -5097831.011 5  -3816508.815 5
  20776576.058    -9875367.612 5  -7604657.195 6
  17897898.183   -27084140.171 7 -21032270.342 8
  18874144.612   -25169550.791 7 -18098951.572 7
  21795175.878    -1590413.893 3  -1061500.117 3
 95  2 19 19 12 59.9910000  0  8 28 18 31 14 22 29 19 27
  20857048.933   -10982961.855 5  -8473566.101 5
  17876220.730   -33165276.298 7 -24405141.943 8
  21030227.870    -6585820.757 5  -4743438.968 3
  20340625.714    -5029507.607 5  -3763269.894 5
  20788264.839    -9813931.761 5  -7556785.205 5
  17893497.042   -27107263.635 7 -21050288.648 8
  18859033.323   -25248956.343 7 -18160826.022 7
  21773646.136    -1703531.198 4  -1149643.441 3
 95  2 19 19 13 29.9910000  0  8 28 18 31 14 22 29 19 27
  20841593.253   -11064212.377 5  -8536878.133 5
  17861457.855   -33242853.594 7 -24465591.780 8
  21006919.636    -6708307.440 5  -4838883.094 4
  20353655.362    -4961018.437 5  -3709901.791 5
  20800000.386    -9752267.782 5  -7508735.441 5
  17889169.831   -27130004.277 7 -21068008.646 8
  18843965.940   -25328146.588 7 -18222532.695 7
  21752143.058    -1816555.226 4  -1237714.042 3
 95  2 19 19 13 59.9910000  0  8 28 18 31 14 22 29 19 27
  20826206.316   -11145066.965 5  -8599881.655 5
  17846765.933   -33320060.453 7 -24525752.968 8
  20983639.276    -6830655.121 5  -4934218.881 4
  20366724.425    -4892352.503 5  -3656395.969 5
  20811770.198    -9690396.028 5  -7460523.780 5
  17884916.386   -27152365.800 7 -21085433.234 8
  18828939.464   -25407116.048 7 -18284067.334 7
  21730642.167    -1929505.475 3  -1325727.152 2
 95  2 19 19 14 29.9910000  0  8 28 18 31 14 22 29 19 27
  20810899.128   -11225514.818 5  -8662568.236 5
  17832145.620   -33396881.390 7 -24585613.433 8
  20960386.698    -6952858.824 5  -5029442.473 5
  20379827.245    -4823489.049 5  -3602736.230 5
  20823588.519    -9628313.364 5  -7412147.784 6
  17880738.237   -27174308.174 7 -21102531.202 8
  18813957.620   -25485851.789 7 -18345419.850 7
  21709172.316    -2042367.253 3  -1413671.366 3
 95  2 19 19 14 59.9910000  0  8 28 18 31 14 22 29 19 27
  20795669.323   -11305558.893 5  -8724940.182 5
  17817595.839   -33473340.758 7 -24645192.160 8
  20937157.151    -7074919.031 5  -5124554.251 3
  20392967.198    -4754445.303 5  -3548936.006 5
  20835440.605    -9566040.530 5  -7363623.582 5
  17876645.628   -27195827.717 7 -21119299.699 8
  18799014.808   -25564360.385 7 -18406595.379 7
  21687710.573    -2155141.669 3  -1501547.459 2
 95  2 19 19 15 29.9910000  0  8 28 18 31 14 22 29 19 27
  20780510.245   -11385197.436 5  -8786996.135 5
  17803114.308   -33549449.371 7 -24704497.572 8
  20913958.261    -7196838.042 5  -5219556.005 3
  20406140.331    -4685212.351 5  -3494988.357 5
  20847322.878    -9503596.115 5  -7314965.694 6
  17872630.722   -27216920.306 7 -21135735.504 8
  18784117.456   -25642658.862 7 -18467607.170 7
  21666257.456    -2267851.868 3  -1589373.519 2
 95  2 19 19 15 59.9910000  0  8 28 18 31 14 22 29 19 27
  20765428.636   -11464428.284 5  -8848734.402 5
  17788695.042   -33625213.943 7 -24763534.891 8
  20890778.534    -7318621.461 4  -5314452.102 4
  20419349.159    -4615804.487 5  -3440904.410 5
  20859238.651    -9440970.532 5  -7266166.638 5
  17868696.964   -27237593.836 7 -21151844.766 8
  18769254.769   -25720769.619 7 -18528472.692 7
  21644825.097    -2380491.297 3  -1677144.460 2
 95  2 19 19 16 29.9910000  0  8 28 18 31 14 22 29 19 27
  20750433.323   -11543242.343 5  -8910147.888 5
  17774345.081   -33700626.460 7 -24822297.890 8
  20867633.175    -7440253.207 5  -5409229.997 3
  20432587.776    -4546235.269 5  -3386694.740 5
  20871189.730    -9378161.739 5  -7217224.816 5
  17864843.878   -27257843.084 7 -21167623.419 8
  18754423.386   -25798705.682 7 -18589202.079 7
  21623414.487    -2493037.124 4  -1764842.487 3
 95  2 19 19 16 59.9910000  0  8 28 18 31 14 22 29 19 27
  20735511.714   -11621646.388 5  -8971241.879 5
  17760059.401   -33775705.352 7 -24880800.918 8
  20844516.816    -7561746.901 4  -5503900.347 3
  20445853.448    -4476528.386 5  -3332377.796 5
  20883175.886    -9315183.962 5  -7168151.311 5
  17861064.612   -27277701.369 7 -21183097.421 8
  18739619.855   -25876487.984 7 -18649811.659 7
  21602010.097    -2605504.832 4  -1852479.572 3
 95  2 19 19 17 29.9910000  0  8 28 18 31 14 22 29 19 27
  20720678.753   -11699632.118 5  -9032009.921 5
  17745839.526   -33850432.314 7 -24939029.721 8
  20821423.339    -7683104.254 5  -5598464.447 4
  20459143.839    -4406684.926 5  -3277954.435 5
  20895191.745    -9252028.371 5  -7118939.226 5
  17857360.362   -27297169.598 7 -21198267.490 8
  18724848.269   -25954107.141 7 -18710294.107 7
  21580620.964    -2717882.738 4  -1940046.706 2
 95  2 19 19 17 59.9910000  0  8 28 18 31 14 22 29 19 27
  20705924.636   -11777197.876 5
  17731684.917   -33924815.175 7 -24996990.383 8
  20798356.136    -7804322.861 5  -5692920.426 3
  20472460.112    -4336708.827 5  -3223427.718 5
  20907242.745    -9188700.959 5  -7069593.261 5
  17853730.433   -27316243.900 7 -21213130.594 8
  18710109.214   -26031548.814 7
  21559256.222    -2830164.590 4  -2027539.019 2
 95  2 19 19 18 29.9910000  0  8 28 18 31 14 22 29 19 27
  20691233.355   -11854347.263 5  -9152567.065 5
  17717595.034   -33998853.360 7 -25054682.475 8
  20775315.511    -7925407.960 5  -5787272.382 3
  20485802.386    -4266603.406 5  -3168800.222 5
  20919326.081    -9125209.768 5  -7020119.695 5
  17850174.558   -27334925.352 7 -21227687.591 8
  18695410.964   -26108809.340 7 -18830841.259 7
  21537905.198    -2942370.165 4  -2114971.845 3
 95  2 19 19 18 59.9910000  0  8 28 18 31 14 22 29 19 27
  20676632.511   -11931070.053 5  -9212351.004 5
  17703574.690   -34072528.312 7 -25112091.530 8
  20752298.151    -8046353.721 5  -5881515.761 4
  20499168.026    -4196353.562 5  -3114060.192 5
  20931445.542    -9061529.461 5  -6970498.749 5
  17846696.706   -27353201.446 7 -21241928.724 8
  18680750.253   -26185862.317 7 -18890882.527 7
  21516568.909    -3054498.720 4  -2202344.711 2
 95  2 19 19 19 29.9900000  0  8 28 18 31 14 22 29 19 27
  20662111.467   -12007382.884 5  -9271815.479 5
  17689621.740   -34145844.318 7 -25169220.880 8
  20729315.334    -8167152.496 5  -5975644.594 2
  20512559.279    -4125978.590 5  -3059222.681 5
  20943592.053    -8997679.647 5  -6920745.731 5
  17843294.842   -27371082.502 7 -21255862.031 8
  18666124.506   -26262721.312 7 -18950772.644 7
  21495241.326    -3166560.263 3  -2289665.328 2
 95  2 19 19 19 59.9900000  0  8 28 18 31 14 22 29 19 27
  20647671.568   -12083276.558 5  -9330953.348 5
  17675745.022   -34218779.654 7 -25226053.617 8
  20706355.600    -8287780.821 5  -6069640.642 3
  20525978.725    -4055466.658 5  -3004278.446 4
  20955780.186    -8933641.793 5  -6870846.173 5
  17839972.576   -27388545.256 7 -21269469.386 8
  18651533.397   -26339376.972 7 -19010504.314 7
  21473928.264    -3278558.681 4  -2376936.781 2
 95  2 19 19 20 29.9900000  0  8 28 18 31 14 22 29 19 27
  20633312.147   -12158738.619 5  -9389754.889 5
  17661941.498   -34291300.162 7 -25282563.103 8
  20683439.826    -8408215.989 5  -6163486.155 3
  20539420.115    -3984829.010 5  -2949236.241 5
  20968009.108    -8869399.030 5  -6820786.954 5
  17836730.037   -27405579.485 7 -21282742.827 8
  18636990.631   -26415817.902 7 -19070068.672 7
  21452633.443    -3390477.016 4  -2464145.826 3
 95  2 19 19 20 59.9900000  0  8 28 18 31 14 22 29 19 27
  20619029.615   -12233766.021 5  -9448217.749 5
  17648222.232   -34363406.284 7 -25338749.686 8
  20660559.967    -8528449.814 5  -6257174.778 3
  20552888.178    -3914061.558 5  -2894092.892 4
  20980269.193    -8804964.351 5  -6770578.186 5
  17833570.670   -27422184.886 7 -21295682.117 8
  18622484.818   -26492041.888 7 -19129463.978 7
  21431351.568    -3502317.689 4  -2551294.350 2
 95  2 19 19 21 29.9900000  0  8 28 18 31 14 22 29 19 27
  20604838.139   -12308341.724 5  -9506328.639 5
  17634584.029   -34435084.633 7 -25394602.952 8
  20637718.709    -8648463.981 5  -6350692.229 2
  20566377.061    -3843155.599 5  -2838841.620 5
  20992564.498    -8740351.507 5  -6720230.604 5
  17830494.076   -27438351.457 7 -21308279.464 8
  18608019.615   -26568047.894 7 -19188689.437 7
  21410083.029    -3614066.228 4  -2638371.091 3
 95  2 19 19 21 59.9900000  0  8 28 18 31 14 22 29 19 27
  20590732.232   -12382475.694 5  -9564095.306 5
  17621024.553   -34506345.644 7 -25450131.013 8
  20614919.045    -8768288.414 5  -6444061.834 5
  20579892.936    -3772125.717 5  -2783493.787 5
  21004886.803    -8675591.513 5  -6669768.354 5
  17827496.936   -27454102.742 7 -21320553.212 8
  18593596.123   -26643848.698 7 -19247754.990 7
  21388830.381    -3725743.545 3  -2725392.336 3
 95  2 19 19 22 29.9900000  0  8 28 18 31 14 22 29 19 27
  20576707.061   -12456174.781 5  -9621523.103 5
  17607538.936   -34577216.770 7 -25505355.261 8
  20592147.733    -8887947.180 5  -6537302.357 3
  20593437.803    -3700970.223 5  -2728048.070 5
  21017234.795    -8610705.633 5  -6619208.008 5
  17824573.522   -27469465.045 7 -21332523.860 8
  18579206.170   -26719465.756 7 -19306677.368 7
  21367590.373    -3837363.275 3  -2812368.706 3
 95  2 19 19 22 59.9900000  0  8 28 18 31 14 22 29 19 27
  20562768.943   -12529433.593 5  -9678607.835 5
  17594122.076   -34647703.544 7 -25560280.020 8
  20569408.748    -9007450.561 5  -6630421.775 3
  20607003.842    -3629675.801 5  -2672494.100 4
  21029603.998    -8545702.486 5  -6568556.288 5
  17821723.897   -27484439.479 7 -21344192.270 8
  18564853.904   -26794901.526 7 -19365458.484 7
  21346363.904    -3948914.451 4  -2899291.635 3
 95  2 19 19 23 29.9900000  0  8 28 18 31 14 22 29 19 27
  20548917.467   -12602246.957 5  -9735345.446 5
  17580783.764   -34717792.385 7 -25614894.704 8
  20546696.912    -9126793.517 5  -6723416.181 4
  20620592.904    -3558255.549 5  -2616842.079 4
  21041991.061    -8480585.330 5  -6517815.751 5
  17818950.123   -27499018.688 7 -21355552.713 8
  18550532.529   -26870160.516 7 -19424101.850 7
  21325156.670    -4060385.819 4  -2986152.419 3
 95  2 19 19 23 59.9900000  0  8 28 18 31 14 22 29 19 27
  20535140.014   -12674610.671 5  -9791732.693 5
  17567524.084   -34787491.970 7 -25669206.073 8
  20524013.865    -9245977.548 5  -6816286.775 5
  20634207.576    -3486720.142 5  -2561100.340 5
  21054410.459    -8415331.454 5  -6466968.663 5
  17816251.295   -27513194.239 7 -21366598.622 8
  18536243.482   -26945235.132 7 -19482601.543 7
  21303956.842    -4171777.808 4  -3072951.310 2
 95  2 19 19 24 29.9900000  0  8 28 18 31 14 22 29 19 27
  20521451.545   -12746534.681 5  -9847777.304 5
  17554330.654   -34856816.036 7 -25723224.825 8
  20501370.631    -9365000.191 5  -6909031.578 4
  20647838.123    -3415090.197 5  -2505284.941 5
  21066854.967    -8349936.668 5  -6416011.787 5
  17813632.709   -27526957.022 7 -21377322.890 8
  18521991.670   -27020135.749 7 -19540965.659 7
  21282770.951    -4283095.430 4  -3159692.295 3
 95  2 19 19 24 59.9900000  0  8 28 18 31 14 22 29 19 27
  20507853.334   -12818014.869 5  -9903476.092 5
  17541209.295   -34925752.823 7 -25776941.811 8
  20478753.459    -9483836.160 5  -7001630.941 4
  20661484.373    -3343377.109 5  -2449404.742 5
  21079327.092    -8284391.258 5  -6364937.529 5
  17811097.201   -27540283.071 7 -21387706.848 8
  18507777.467   -27094848.570 7 -19599183.437 7
  21261603.592    -4394335.633 4  -3246372.954 2
 95  2 19 19 25 29.9900000  0  8 28 18 31 14 22 29 19 27
  20494336.303   -12889038.723 5  -9958819.297 5
  17528170.092   -34994286.877 7 -25830344.971 8
  20456180.006    -9602462.006 5  -7094066.564 4
  20675150.686    -3271577.653 5  -2393457.264 4
  21091836.100    -8218677.925 5  -6313732.419 5
  17808647.154   -27553166.237 7 -21397745.701 8
  18493595.209   -27169366.892 7 -19657249.658 7
  21240449.358    -4505511.342 5  -3333003.350 2
 95  2 19 19 25 59.9900000  0  8 28 18 31 14 22 29 19 27
  20480906.709   -12959616.794 5 -10013815.116 5
  17515200.865   -35062433.934 7 -25883446.574 8
  20433643.740    -9720895.138 5  -7186352.023 5
  20688828.514    -3199701.845 5  -2337450.291 5
  21104370.037    -8152803.634 5  -6262401.905 5
  17806275.139   -27565628.350 7 -21407456.466 8
  18479453.014   -27243695.287 7 -19715167.891 7
  21219301.670    -4616639.158 5  -3419596.422 2
 95  2 19 19 26 29.9900000  0  8 28 18 31 14 22 29 19 27
  20467564.076   -13029741.372 5 -10068457.572 5
  17502311.436   -35130170.153 7 -25936228.052 8
  20411145.334    -9839112.581 5  -7278469.425 4
  20702520.061    -3127733.551 5  -2281371.247 5
  21116932.100    -8086782.608 5  -6210957.040 5
  17803982.482   -27577674.379 7 -21416843.007 8
  18465343.607   -27317834.135 7 -19772938.411 7
  21198164.787    -4727712.524 5  -3506147.044 2
 95  2 19 19 26 59.9900000  0  8 28 18 31 14 22 29 19 27
  20454303.959   -13099407.330 5 -10122742.667 5
  17489502.654   -35197491.970 7 -25988686.614 8
  20388693.123    -9957115.791 5  -7370419.882 4
  20716232.397    -3055677.151 5  -2225223.534 4
  21129524.022    -8020624.405 5  -6159405.281 5
  17801764.740   -27589324.341 7 -21425920.929 8
  18451267.537   -27391786.918 7 -19830563.954 7
  21177042.037    -4838724.164 5  -3592649.604 4
 95  2 19 19 27 29.9900000  0  8 28 18 31 14 22 29 19 27
  20441132.615   -13168616.051 5 -10176671.478 5
  17476768.240   -35264408.728 7 -26040829.545 8
  20366276.186   -10074913.059 5  -7462209.875 5
  20729958.436    -2983545.762 5  -2169017.408 4
  21142134.006    -7954338.193 5  -6107753.764 5
  17799618.092   -27600601.658 7 -21434708.481 8
  18437230.483   -27465565.751 7 -19888053.953 7
  21155925.123    -4949670.125 5  -3679100.970 1
 95  2 19 19 27 59.9900000  0  8 28 18 31 14 22 29 19 27
  20428055.967   -13237364.646 5 -10230241.746 5
  17464110.725   -35330928.121 7 -26092662.841 8
  20343899.334   -10192494.599 5  -7553831.763 5
  20743696.881    -2911350.824 5  -2112761.756 3
  21154771.475    -7887923.026 5  -6056001.775 5
  17797547.584   -27611485.486 7 -21443189.414 8
  18423222.967   -27539160.102 7 -19945400.197 7
  21134832.061    -5060530.754 5  -3765485.844 2
 95  2 19 19 28 29.9900000  0  8 28 18 31 14 22 29 19 27
  20415056.576   -13305648.295 5 -10283449.725 5
  17451524.256   -35397052.394 7 -26144188.251 8
  20321570.029   -10309840.549 5  -7645270.072 4
  20757450.061    -2839091.942 5  -2056456.263 4
  21167437.068    -7821371.020 5  -6004143.149 5
  17795556.076   -27621957.061 7 -21451349.115 8
  18409254.811   -27612573.449 7 -20002605.402 7
  21113750.334    -5171301.181 5  -3851800.426 4
 95  2 19 19 28 59.9900000  0  8 28 18 31 14 22 29 19 27
  20402154.318   -13373464.370 5 -10336293.365 5
  17439014.475   -35462794.464 7 -26195415.843 8
  20299282.975   -10426954.407 5  -7736527.538 4
  20771207.576    -2766782.254 5  -2000111.207 4
  21180129.951    -7754681.389 5  -5952177.277 5
  17793643.756   -27632004.469 7 -21459178.294 8
  18395323.350   -27685797.986 7 -20059663.486 7
  21092696.529    -5281972.889 5  -3938038.070 4
 95  2 19 19 29 29.9900000  0  8 28 18 31 14 22 29 19 27
  20389336.467   -13440808.872 5 -10388769.528 5
  17426577.115   -35528154.525 7 -26246345.767 8
  20277041.975   -10543826.041 5  -7827596.252 5
  20784982.701    -2694404.912 5  -1943713.415 4
  21192843.561    -7687857.862 5  -5900107.073 5
  17791816.959   -27641601.560 7 -21466656.573 8
  18381427.717   -27758824.817 7 -20116567.508 7
  21071650.522    -5392561.987 5  -4024211.349 5
 95  2 19 19 29 59.9900000  0  8 28 18 31 14 22 29 19 27
  20376610.936   -13507681.801 5 -10440878.256 5
  17414215.006   -35593124.385 7 -26296971.629 8
  20254850.920   -10660451.346 5  -7918473.036 4
  20798769.061    -2621944.558 4  -1887250.974 3
  21205589.514    -7620914.931 5  -5847943.855 5
  17790078.100   -27650741.384 7 -21473778.546 8
  18367567.967   -27831647.594 7 -20173312.524 7
  21050614.459    -5503078.041 4  -4110327.700 4
 95  2 19 19 30 29.9900000  0  8 28 18 31 14 22 29 19 27
  20363973.264   -13574089.416 5 -10492624.413 5
  17401925.584   -35657705.914 7 -26347294.898 8
  20232703.787   -10776838.594 5  -8009164.314 5
  20812576.678    -2549390.683 4  -1830715.641 4
  21218339.529    -7553880.650 5  -5795709.457 5
  17788419.959   -27659447.318 7 -21480562.415 8
  18353744.045   -27904286.979 7 -20229914.660 7
  21029596.850    -5613533.276 4  -4196396.696 5
 95  2 19 19 30 59.9900000  0  8 28 18 31 14 22 29 19 27
  20351426.068   -13640025.888 5 -10544003.433 5
  17389712.889   -35721886.316 7 -26397305.607 8
  20210602.154   -10892984.837 5  -8099667.798 5
  20826400.897    -2476737.321 4  -1774102.799 4
  21231113.623    -7486766.606 5  -5743412.905 5
  17786847.459   -27667716.707 7 -21487006.125 8
  18339956.709   -27976736.401 7 -20286368.752 7
  21008591.936    -5723928.480 4  -4282418.885 5
 95  2 19 19 31 29.9900000  0  8 28 18 31 14 22 29 19 27
  20338975.834   -13705485.086 5 -10595010.561 5
  17377578.654   -35785639.294 7 -26446983.256 8
  20188546.787   -11008884.494 5  -8189979.127 5
  20840249.467    -2403969.922 4  -1717401.094 3
  21243900.162    -7419565.405 5  -5691048.435 5
  17785356.147   -27675553.954 7 -21493113.097 8
  18326208.389   -28048989.051 7 -20342669.521 7
  20987595.107    -5834270.832 5  -4368399.923 4
 95  2 19 19 31 59.9900000  0  8 28 18 31 14 22 29 19 27
  20326605.397   -13770470.366 5 -10645648.407 5
  17365528.826   -35848964.338 7 -26496327.450 8
  20166535.131   -11124540.470 5  -8280100.580 5
  20854117.225    -2331110.473 5  -1660627.643 4
  21256704.115    -7352278.433 5  -5638617.115 4
  17783942.678   -27682983.925 7 -21498902.717 8
  18312497.287   -28121049.415 7 -20398820.449 7
  20966612.818    -5944537.903 5  -4454322.290 5
 95  2 19 19 32 29.9900000  0  8 28 18 31 14 22 29 19 27
  20314329.654   -13834979.372 5 -10695915.126 5
  17353562.936   -35911859.705 7 -26545336.835 8
  20144574.475   -11239957.504 5  -8370035.853 5
  20867991.436    -2258176.075 4  -1603795.790 3
  21269529.529    -7284886.345 5  -5586103.901 4
  17782607.272   -27689999.513 7 -21504369.444 8
  18298818.631   -28192923.812 7 -20454826.479 7
  20945642.248    -6054721.067 4  -4540179.301 3
 95  2 19 19 32 59.9900000  0  8 28 18 31 14 22 29 19 27
  20302147.201   -13899007.812 5 -10745807.395 5
  17341677.607   -35974316.201 7 -26594004.237 8
  20122654.631   -11355139.011 5  -8459787.596 5
  20881883.545    -2185182.741 4  -1546918.034 3
  21282380.037    -7217367.100 5  -5533491.592 3
  17781353.131   -27696596.602 7 -21509510.059 8
  18285177.826   -28264597.406 7 -20510676.030 7
  20924687.936    -6164824.164 4  -4625973.888 4
 95  2 19 19 33 29.9900000  0  8 28 18 31 14 22 29 19 27
  20290055.897   -13962545.738 5 -10795317.444 5
  17329873.912   -36036337.613 7 -26642332.615 8
  20100781.443   -11470080.615 5  -8549352.382 5
  20895789.436    -2112130.736 4  -1489994.528 3
  21295254.967    -7149692.241 4  -5480758.055 4
  17780175.522   -27702780.371 7 -21514328.609 8
  18271580.279   -28336066.711 7 -20566366.396 7
  20903754.654    -6274826.128 4  -4711689.702 5
 95  2 19 19 33 59.9900000  0  8 28 18 31 14 22 29 19 27
  20278059.873   -14025590.601 5 -10844443.291 6
  17318151.162   -36097936.739 7 -26690331.928 8
  20078956.740   -11584775.285 5  -8638724.762 5
  20909695.404    -2039033.147 4  -1433035.535 2
  21308165.803    -7081855.188 4  -5427898.126 3
  17779080.412   -27708530.907 7 -21518809.573 8
  18258018.608   -28407339.822 7 -20621903.881 7
  20882846.647    -6384722.119 5  -4797322.899 4
 95  2 19 19 34 29.9900000  0  8 28 18 31 14 22 29 19 27
  20266155.014   -14088147.818 5 -10893189.146 6
  17306511.631   -36159115.636 7 -26738003.803 8
  20057175.326   -11699225.718 5  -8727906.807 5
  20923612.482    -1965893.369 5  -1376043.679 4
  21321105.084    -7013866.257 5  -5374919.838 4
  17778069.748   -27713850.044 7 -21522954.385 8
  18244486.436   -28478433.315 7 -20677301.401 7
  20861945.787    -6494545.445 5  -4882899.500 3
 95  2 19 19 34 59.9900000  0  8 28 18 31 14 22 29 19 27
  20254343.772   -14150220.438 5 -10941557.400 5
  17294947.772   -36219876.760 7 -26785350.133 8
  20035445.365   -11813428.921 5  -8816896.229 5
  20937538.068    -1892712.765 5  -1319019.983 4
  21334061.193    -6945761.956 4  -5321851.670 4
  17777135.397   -27718758.994 7 -21526779.569 8
  18230993.295   -28549349.473 7 -20732560.735 7
  20841061.951    -6604297.467 5  -4968420.534 3
 95  2 19 19 35 29.9900000  0  8 28 18 31 14 22 29 19 27
  20242622.834   -14211795.466 5 -10989537.922 5
  17283467.428   -36280202.882 7 -26832357.509 8
  20013764.022   -11927361.178 5  -8905674.511 5
  20951476.326    -1819478.237 5  -1261954.266 4
  21347039.693    -6877560.792 4  -5268708.015 4
  17776281.733   -27723240.382 7 -21530271.590 8
  18217533.904   -28620087.210 7 -20787681.050 7
  20820194.092    -6713969.284 5  -5053879.073 4
 95  2 19 19 35 59.9900000  0  8 28 18 31 14 22 29 19 27
  20230998.365   -14272875.007 5 -11037132.346 5
  17272074.850   -36340082.159 7 -26879016.695 8
  19992138.811   -12041012.829 5  -8994234.146 5
  20965422.350    -1746194.467 5  -1204850.200 4
  21360033.600    -6809299.139 4  -5215517.241 5
  17775512.811   -27727287.786 7 -21533425.434 8
  18204105.412   -28690652.548 7 -20842667.029 7
  20799333.436    -6823586.671 5  -5139295.190 4
 95  2 19 19 36 29.9900000  0  8 28 18 31 14 22 29 19 27
  20219473.201   -14333465.188 5 -11084345.440 6
  17260760.193   -36399524.420 7 -26925335.339 8
  19970564.131   -12154388.530 5  -9082578.753 5
  20979373.092    -1672867.554 5  -1147712.496 3
  21373030.272    -6741000.790 4  -5162297.857 4
  17774820.857   -27730920.322 7 -21536256.014 8
  18190710.162   -28761049.642 7 -20897521.909 7
  20778482.936    -6933152.926 5  -5224671.469 4
 95  2 19 19 36 59.9900000  0  8 28 18 31 14 22 29 19 27
  20208036.326   -14393560.766 5 -11131173.130 5
  17249532.748   -36458530.111 7 -26971313.801 8
  19949043.623   -12267477.374 5  -9170699.830 5
  20993335.357    -1599508.887 5  -1090550.058 4
  21386035.662    -6672657.720 5  -5109043.635 5
  17774209.232   -27734128.140 7 -21538755.636 8
  18177347.662   -28831254.501 7 -20952226.988 7
  20757642.014    -7042659.174 5  -5310000.977 3
 95  2 19 19 37 29.9900000  0  8 28 18 31 14 22 29 19 27
  20196691.873   -14453167.066 5 -11177619.553 5
  17238389.701   -36517105.397 7 -27016956.877 8
  19927576.186   -12380281.591 5  -9258599.134 5
  21007295.561    -1526141.769 5  -1033381.050 4
  21399052.139    -6604251.248 5  -5055740.018 5
  17773681.686   -27736902.947 7 -21540917.851 8
  18164024.256   -28901265.998 7 -21006781.397 7
  20736812.412    -7152125.308 5  -5395299.262 4
 95  2 19 19 37 59.9900000  0  8 28 18 31 14 22 29 19 27
  20185449.022   -14512280.974 5 -11223682.284 6
  17227322.162   -36575247.013 7 -27062262.031 8
  19906163.998   -12492802.571 5  -9346277.728 5
  21021258.514    -1452765.311 5   -976204.730 4
  21412086.264    -6535761.405 5  -5002371.416 5
  17773236.295   -27739252.541 7 -21542748.731 8
  18150743.272   -28971063.482 7 -21061169.048 7
  20715994.428    -7261532.989 5  -5480551.972 4
 95  2 19 19 38 29.9900000  0  8 28 18 31 14 22 29 19 27
  20174289.232   -14570896.687 5 -11269356.827 5
  17216343.068   -36632946.625 7 -27107222.766 7
  19884807.584   -12605043.465 5  -9433738.064 5
  21035223.498    -1379383.487 3   -919024.233 4
  21425138.600    -6467164.963 5  -4948919.775 5
  17772871.076   -27741177.222 7 -21544248.510 8
  18137507.717   -29040625.384 7 -21115373.124 7
  20695193.108    -7370856.182 5  -5565738.850 4
 95  2 19 19 38 59.9900000  0  8 28 18 31 14 22 29 19 27
  20163231.662   -14628999.021 5 -11314631.322 6
  17205453.123   -36690171.132 7 -27151813.294 8
  19863502.201   -12716994.398 5  -9520972.471 5
  21049189.076    -1305993.707 3   -861837.575 4
  21438215.029    -6398451.628 5  -4895377.030 5
  17772585.678   -27742661.686 7 -21545405.263 8
  18124314.904   -29109946.058 7 -21169389.234 7
  20674404.170    -7480080.265 5  -5650848.509 4
 95  2 19 19 39 29.9900000  0  8 28 18 31 14 22 29 19 27
  20152274.404   -14686597.306 5 -11359513.075 6
  17194652.436   -36746933.596 7 -27196043.787 7
  19842252.084   -12828671.776 5  -9607993.705 5
  21063154.951    -1232592.794 3   -804642.243 2
  21451307.076    -6329651.813 5  -4841766.897 5
  17772388.732   -27743709.505 7 -21546221.770 8
  18111163.639   -29179062.379 7 -21223246.113 8
  20653638.115    -7589203.816 5  -5735879.828 4
 95  2 19 19 39 59.9900000  0  8 28 18 31 14 22 29 19 27
  20141403.334   -14743691.448 5 -11404001.968 5
  17183936.967   -36803239.229 7 -27239918.306 7
  19821051.850   -12940068.861 5  -9694796.533 5
  21077128.873    -1159172.874 3   -747432.087 3
  21464413.600    -6260784.589 5  -4788104.241 5
  17772269.186   -27744319.990 7 -21546697.499 8
  18098048.318   -29247994.396 7 -21276959.381 7
  20632893.279    -7698231.135 5  -5820836.145 4
 95  2 19 19 40 29.9890000  0  8 28 18 31 14 22 29 19 27
  20130637.626   -14800277.674 5 -11448095.083 6
  17173309.212   -36859098.273 7 -27283444.834 7
  19799912.220   -13051169.774 5  -9781368.587 5
  21091101.407    -1085752.319 3   -690221.430 3
  21477526.228    -6191870.423 4  -4734405.023 5
  17772241.032   -27744483.729 7
  18084956.571   -29316762.721 7 -21330545.103 7
  20612158.868    -7807176.644 5  -5905728.735 5
 95  2 19 19 40 59.9890000  0  8 28 18 31 14 22 29 19 27
  20119964.868   -14856368.778 5 -11491802.399 6
  17162756.228   -36914538.463 7 -27326644.987 7
  19778824.087   -13161978.505 5  -9867712.963 5
  21105073.360    -1012329.236 3   -633008.814 1
  21490646.517    -6122936.824 4  -4680690.644 4
  17772290.056   -27744212.857 7
  18071899.196   -29385395.610 7 -21384025.279 8
  20591438.110    -7916077.950 5  -5990586.876 5
 95  2 19 19 41 29.9890000  0  8 28 18 31 14 22 29 19 27
  20109386.509   -14911957.127 5 -11535117.956 6
  17152286.868   -36969568.932 7 -27369525.875 7
  19757798.087   -13272477.282 5  -9953815.820 5
  21119049.439     -938891.307 3   -575784.596 1
  21503764.728    -6053983.609 3  -4626960.985 3
  17772425.634   -27743515.069 7 -21546070.367 8
  18058866.189   -29453875.931 7 -21437386.571 8
  20570724.298    -8024941.487 5  -6075415.584 5
 95  2 19 19 41 59.9890000  0  8 28 18 31 14 22 29 19 27
  20098901.712   -14967052.554 5 -11578049.433 6
  17141893.032   -37024197.510 7 -27412093.599 7
  19736827.329   -13382674.270 5 -10039683.528 5
  21133021.306     -865461.230 3   -518566.538 2
  21516890.345    -5985013.108 4  -4573217.895 2
  17772631.149   -27742418.652 7 -21545216.042 8
  18045862.595   -29522203.767 7 -21490629.046 7
  20550009.876    -8133783.573 5  -6160227.567 4
 95  2 19 19 42 29.9890000  0  8 28 18 31 14 22 29 19 27
  20088517.392   -15021637.190 5 -11620582.891 6
  17131577.376   -37078403.688 7 -27454332.186 7
  19715916.798   -13492555.655 5 -10125305.310 5
  21146996.368     -792025.331 3   -461343.926 1
  21530028.423    -5915995.614 3  -4519438.164 4
  17772916.767   -27740921.743 7 -21544049.650 8
  18032897.048   -29590340.556 7 -21543722.650 8
  20529308.603    -8242567.613 5  -6244994.318 5
 95  2 19 19 42 59.9890000  0  8 28 18 31 14 22 29 19 27
  20078226.017   -15075707.207 5 -11662715.348 6
  17121341.962   -37132182.167 7 -27496237.495 7
  19695066.892   -13602123.460 5 -10210682.729 5
  21160976.814     -718561.943 4   -404099.857 1
  21543169.423    -5846908.149 3  -4465603.910 2
  17773279.353   -27739023.435 7 -21542570.476 8
  18019973.095   -29658276.408 7 -21596659.681 8
  20508624.087    -8351280.860 5  -6329705.921 4
 95  2 19 19 43 29.9890000  0  8 28 18 31 14 22 29 19 27
  20068029.353   -15129268.141 5
  17111190.189   -37185526.937 7
  19674273.579   -13711396.289 5 -10295830.321 5
  21174952.017     -645092.737 3   -346851.276 1
  21556333.915    -5777743.632 3  -4411709.653 2
  17773717.056   -27736722.353 7 -21540777.455 8
  18007081.017   -29726018.689 7 -21649445.875 8
  20487949.173    -8459908.989 5  -6414351.204 5
 95  2 19 19 43 59.9890000  0  8 28 18 31 14 22 29 19 27
  20057937.923   -15182317.046 5
  17101127.134   -37238423.917 7
  19653535.509   -13820377.391 5 -10380750.594 5
  21188934.993     -571628.068 3   -289606.286 2
  21569508.603    -5708487.832 3  -4357744.192 2
  17774233.275   -27733999.986 7 -21538656.160 8
  17994225.712   -29793568.781 7 -21702082.311 8
  20467297.329    -8568437.732 5  -6498919.039 5
 95  2 19 19 44 29.9890000  0  8 28 18 31 14 22 29 19 27
  20047939.173   -15234852.784 5
  17091147.157   -37290865.155 7
  19632854.392   -13929054.976 5
  21202916.603     -498165.881 4   -232363.179 1
  21582706.540    -5639152.958 4  -4303717.149 1
  17774833.470   -27730853.592 7 -21536204.450 8
  17981405.814   -29860933.187 7 -21754574.053 8
  20446661.657    -8676871.678 5
 95  2 19 19 44 59.9890000  0  8 28 18 31 14 22 29 19 27
  20038039.314   -15286868.060 5
  17081255.931   -37342832.772 7
  19612235.001   -14037424.843 6
  21216897.071     -424704.130 4   -175120.390 2
  21595911.829    -5569755.968 3  -4249641.704 1
  17775515.103   -27727266.791 7 -21533409.572 8
  17968619.790   -29928128.470 7 -21806934.015 8
  20426047.845    -8785224.410 5
 95  2 19 19 45 29.9890000  0  8 28 18 31 14 22 29 19 27
  20028241.735   -15338369.759 6
  17071459.431   -37394321.157 7 -27700501.635 6
  19591668.360   -14145494.070 6 -10634088.071 5
  21230869.735     -351270.242 4   -117899.359 2
  21609122.712    -5500320.556 4  -4195536.322 2
  17776279.696   -27723253.972 7 -21530282.731 8
  17955862.985   -29995162.110 7 -21859168.013 8
  20405439.657    -8893507.929 5  -6752220.435 5
 95  2 19 19 45 59.9890000  0  8 28 18 31 14 22 29 19 27
  20018542.595   -15389351.189 6
  17061755.056   -37445322.863 7 -27740243.263 7
  19571167.915   -14253224.605 6 -10718033.895 5
  21244841.032     -277842.792 5    -60683.328 3
  21622344.759    -5430841.316 4  -4141396.783 1
  17777123.751   -27718822.096 7 -21526829.350 8
  17943138.493   -30062029.516 7 -21911272.486 8
  20384843.704    -9001728.348 5  -6836548.023 5
 95  2 19 19 46 29.9890000  0  8 28 18 31 14 22 29 19 27
  20008938.923   -15439808.223 5
  17052141.204   -37495833.466 7
  19550734.306   -14360593.439 6 -10801697.874 5
  21258811.071     -204426.590 4     -3476.038 2
  21635569.775    -5361328.987 5  -4087231.464 2
  17778045.048   -27713977.505 7 -21523054.375 8
  17930448.485   -30128726.218 7 -21963243.936 8
  20364264.321    -9109892.492 5  -6920831.745 5
 95  2 19 19 46 59.9890000  0  8 28 18 31 14 22 29 19 27
  19999437.759   -15489739.505 5
  17042623.048   -37545853.952 7
  19530371.470   -14467600.915 6 -10885080.267 5
  21272779.204     -131040.282 3     53707.896 4
  21648813.329    -5291762.850 5  -4033024.212 2
  17779047.040   -27708713.835 7 -21518952.842 8
  17917790.235   -30195245.650 7 -22015077.267 8
  20343689.110    -9218001.802 5  -7005072.756 5
 95  2 19 19 47 29.9890000  0  8 28 18 31 14 22 29 19 27
  19990033.798   -15539156.872 5
  17033193.618   -37595408.959 7
  19510081.079   -14574240.554 6 -10968176.029 5
  21286734.845      -57701.745 3    110854.614 3
  21662060.251    -5222143.899 5  -3978775.778 2
  17780126.735   -27703038.556 7 -21514530.581 8
  17905165.759   -30261587.628 7 -22066772.317 8
  20323128.665    -9326052.035 5  -7089267.726 5
 95  2 19 19 47 59.9890000  0  8 28 18 31 14 22 29 19 27
  19980728.712   -15588046.947 5        -0.47916
  17023851.517   -37644494.972 7 -27895442.348 7
  19489860.267   -14680491.751 6 -11050969.110 5
  21300680.782       15601.932 3    167974.206 2
  21675320.595    -5152461.061 5  -3924477.555 4
  17781289.634   -27696928.998 7 -21509769.918 8
  17892577.845   -30327742.802 7 -22118321.797 8
  20302582.970    -9434029.147 5  -7173405.708 5
 95  2 19 19 48 29.9890000  0  8 28 18 31 14 22 29 19 27
  19971529.907   -15636407.115 6    -37683.710 6
  17014598.564   -37693114.045 7 -27933327.349 7
  19469712.431   -14786374.439 6 -11133475.036 5
  21314621.462       88857.957 2    225056.631 3
  21688590.384    -5082719.863 5  -3870133.903 3
  17782538.900   -27690365.337 7 -21504655.410 8
  17880024.165   -30393709.810 7 -22169724.663 8
  20282048.274    -9541935.188 5  -7257488.316 5
 95  2 19 19 48 59.9890000  0  7 28 18 31 22 29 19 27
  19962426.845   -15684242.852 5    -74958.311 6
  17005434.126   -37741286.122 7 -27970864.043 7
  19449627.532   -14891910.621 6 -11215710.961 5
  21701870.868    -5012936.624 3  -3815757.473 4
  17783873.501   -27683352.622 7 -21499190.991 8
  17867501.282   -30459503.687 7 -22220992.615 8
  20261528.345    -9649765.535 5  -7341511.940 5
 95  2 19 19 49 29.9890000  0  7 28 18 31 14 29 19 27
  19953424.118   -15731539.993 5   -111813.205 6
  16996352.282   -37789005.563 7 -28008048.030 7
  19429615.985   -14997093.386 6 -11297671.486 5
  21342494.649          -0.38613
  17785294.993   -27675877.340 7 -21493366.117 8
  17855018.876   -30525112.744 7 -22272116.559 8
  20241025.142    -9757509.117 5  -7425467.963 5
 95  2 19 19 49 59.9890000  0  7 28 18 31 14 29 19 27
  19944524.845   -15778302.821 5   -148251.750 6
  16987355.735   -37836275.000 7 -28044881.370 7
  19409659.853   -15101940.522 6 -11379370.484 5
  21356422.110       73203.635 3        -0.32712
  17786804.728   -27667949.738 7 -21487188.807 8
  17842570.657   -30590531.353 7 -22323092.097 8
  20220535.235    -9865180.627 5  -7509367.825 5
 95  2 19 19 50 29.9890000  0  7 28 18 31 14 29 19 27
  19935729.696   -15824541.512 6   -184281.891 6
  16978445.478   -37883104.900 7 -28081372.215 7
  19389770.071   -15206466.975 6 -11460819.584 5
  21370345.821      146384.834 3     57023.745 2
  17788394.493   -27659592.107 7 -21480676.403 8
  17830157.189   -30655761.264 7 -22373920.606 8
  20200058.212    -9972792.934 5  -7593221.574 5
 95  2 19 19 50 59.9890000  0  7 28 18 31 14 29 19 27
  19927026.493   -15870257.665 6   -219904.849 6
  16969616.235   -37929497.494 7 -28117522.301 7
  19369942.532   -15310666.678 6 -11542014.087 5
  21384266.540      219525.600 3    114016.354 1
  17790064.493   -27650817.014 7 -21473838.699 8
  17817782.595   -30720791.947 7 -22424593.867 8
  20179593.712   -10080336.524 5  -7677021.750 5
 95  2 19 19 51 29.9890000  0  7 28 18 31 14 29 19 27
  19918433.642   -15915445.188 6   -255115.898 6
  16960878.485   -37975425.851 7 -28153310.643 7
  19350178.884   -15414522.459 6 -11622940.594 5
  21398167.017      292600.589 3    170957.712 1
  17791813.517   -27641618.457 7 -21466671.030 8
  17805446.306   -30785607.462 7 -22475099.463 8
  20159141.470   -10187803.721 5  -7760762.399 5
 95  2 19 19 51 59.9890000  0  7 28 18 31 14 29 19 27
  19909931.165   -15960097.496 5   -289909.882 6
  16952232.931   -38020867.582 7 -28188719.794 7
  19330485.642   -15518007.700 6 -11703578.379 6
  21412063.360      365619.187 3
  17793645.845   -27632000.635 7 -21459176.661 8
  17793152.751   -30850209.449 7 -22525438.677 8
  20138710.931   -10295180.581 5  -7844432.660 5
 95  2 19 19 52 29.9890000  0  7 28 18 31 14 29 19 27
  19901542.345   -16004211.863 6   -324284.697 6
  16943679.454   -38065808.517 7 -28223738.720 7
  19310867.353   -15621098.841 6 -11783909.065 5
  21425951.790      438574.438 3
  17795553.360   -27621970.639 7 -21451361.111 8
  17780895.345   -30914623.218 7 -22575631.230 8
  20118295.142   -10402461.269 5  -7928027.983 5
 95  2 19 19 52 59.9890000  0  7 28 18 31 14 29 19 27
  19893244.954   -16047795.265 6   -358245.758 6
  16935223.782   -38110244.630 7 -28258364.274 7
  19291327.196   -15723787.660 6 -11863926.267 5
  21439818.290      511455.104 4        -0.43511
  17797538.962   -27611536.826 7 -21443230.905 8
  17768672.603   -30978864.639 7 -22625689.486 8
  20097895.423   -10509655.514 5  -8011555.954 5
 95  2 19 19 53 29.9890000  0  7 28 18 31 14 29 19 27
  19885055.439   -16090842.139 6   -391788.761 6
  16926865.876   -38154163.004 7 -28292586.398 7
  19271863.712   -15826070.990 6 -11943627.495 5
  21453681.173      584288.299 5     56752.487 1
  17799601.118   -27600699.634 7 -21434786.373 8
  17756475.524   -31042946.758 7 -22675623.603 8
  20077514.064   -10616775.629 5  -8095026.168 5
 95  2 19 19 53 59.9890000  0  7 28 18 31 14 29 19 27
  19876966.056   -16133348.897 5   -424910.892 6
  16918605.157   -38197578.119 7 -28326416.370 7
  19252474.868   -15927956.282 6 -12023018.580 5
  21467531.306      657081.601 4    113474.357 1
  17801740.860   -27589463.385 7 -21426030.890 8
  17744310.228   -31106875.298 7 -22725438.049 8
  20057139.267   -10723833.772 5  -8178448.082 5
 95  2 19 19 54 29.9890000  0  6 28 18 31 29 19 27
  19868975.642   -16175321.886 6   -457617.113 6
  16910434.306   -38240506.207 7 -28359866.842 7
  19233159.071   -16029466.716 6 -12102117.561 5
  17803953.634   -27577828.377 7 -21416964.680 8
  17732178.149   -31170644.398 7 -22775128.257 8
  20036775.798   -10830848.829 5  -8261836.411 5
 95  2 19 19 54 59.9890000  0  6 28 18 31 29 19 27
  19861093.126   -16216760.976 5   -489907.304 6
  16902354.321   -38282959.040 7 -28392946.988 7
  19213908.548   -16130624.682 6 -12180941.894 5
  17806245.868   -27565785.225 7 -21407580.438 8
  17720077.564   -31234237.935 7 -22824681.657 8
  20016419.228   -10937822.811 5  -8345192.765 5
 95  2 19 19 55 29.9890000  0  6 28 18 31 29 19 27
  19853307.157   -16257646.258 5   -521765.958 6
  16894367.728   -38324938.231 7 -28425658.056 7
  19194729.837   -16231424.976 6 -12259487.521 5
  17808620.306   -27553308.970 7 -21397858.713 8
  17708011.415   -31297638.732 7 -22874084.873 8
  19996074.048   -11044728.401 5  -8428495.800 5
 95  2 19 19 55 59.9890000  0  6 28 18 31 29 19 27
  19845632.704   -16297995.089 6   -553206.609 6
  16886463.946   -38366471.881 7 -28458021.952 7
  19175613.806   -16331867.145 6 -12337754.087 5
  17811077.431   -27540405.142 7 -21387803.819 8
  17695982.782   -31360848.603 7 -22923339.312 8
  19975748.189   -11151567.869 5  -8511747.322 5
 95  2 19 19 56 29.9890000  0  6 28 18 31 29 19 27
  19838057.517   -16337800.222 5   -584223.594 6
  16878648.735   -38407542.275 7 -28490024.874 7
  19156571.532   -16431928.714 6 -12415724.097 5
  17813614.993   -27527051.200 7 -21377398.187 8
  17683995.009   -31423849.946 7 -22972431.265 8
  19955429.829   -11258319.655 5  -8594930.513 5
 95  2 19 19 56 59.9890000  0  7 28 18 31  2 29 19 27
  19830587.353   -16377058.337 6   -614814.349 6
  16870926.556   -38448140.011 7 -28521659.489 7
  19137606.782   -16531590.563 6 -12493382.635 6
  21527026.212     -130810.697 3
  17816242.946   -27513249.634 7 -21366643.753 8
  17672040.720   -31486648.105 7 -23021364.890 8
  19935137.876   -11364967.637 5  -8678032.822 5
 95  2 19 19 57 29.9890000  0  7 28 18 31  2 29 19 27
  19823223.189   -16415774.031 6   -644982.441 6
  16863286.907   -38488262.419 7 -28552923.712 7
  19118721.837   -16630841.233 6 -12570720.781 6
  21502169.728     -261473.316 3        -0.29311
  17818952.142   -27499013.274 7 -21355550.519 8
  17660127.767   -31549260.073 7 -23070153.437 8
  19914858.595   -11471528.297 5  -8761067.090 5
 95  2 19 19 57 59.9890000  0  7 28 18 31  2 29 19 27
  19815956.720   -16453952.122 5   -674731.620 6
  16855743.868   -38527899.077 7 -28583809.435 7
  19099911.985   -16729677.654 6 -12647736.132 6
  21477327.235     -392011.903 3   -101718.579 1
  17821742.657   -27484351.035 7 -21344125.435 8
  17648250.626   -31611690.422 7 -23118800.458 8
  19894596.579   -11578008.443 5  -8844038.616 5
 95  2 19 19 58 29.9890000  0  7 28 18 31  2 29 19 27
  19808791.790   -16491600.309 5   -704067.872 6
  16848293.462   -38567052.411 7 -28614318.537 7
  19081179.759   -16828117.456 6 -12724442.427 6
  21452501.345     -522438.731 3   -203349.735 1
  17824609.837   -27469282.949 7 -21332384.104 8
  17636400.673   -31673966.206 7 -23167327.038 8
  19874344.673   -11684424.976 5  -8926960.570 5
 95  2 19 19 58 59.9890000  0  7 28 18 31  2 29 19 27
  19801735.345   -16528692.246 5   -732970.693 6
  16840937.118   -38605708.233 7 -28644439.969 7
  19062526.267   -16926138.559 6 -12800822.463 6
  21427712.204     -652736.169 3   -304880.099 1
  17827556.220   -27453806.336 7 -21320324.437 8
  17624577.728   -31736079.042 7 -23215726.646 8
  19854111.759   -11790769.109 5  -9009826.117 5
 95  2 19 19 59 29.9890000  0  7 28 18 31  2 29 19 27
  19794779.001   -16565230.974 5   -761442.438 6
  16833675.954   -38643884.451 7 -28674187.680 7
  19043951.181   -17023754.326 6 -12876886.673 5
  21402937.900     -782902.913 3   -406308.630 1
  17830577.267   -27437918.301 7 -21307944.187 8
  17612790.384   -31798029.288 7 -23263999.558 8
  19833884.204   -11897053.025 5  -9092644.728 5
 95  2 19 19 59 59.9890000  0  7 28 18 31  2 29 19 27
  19787929.728   -16601229.377 5   -789493.154 6
  16826498.775   -38681590.326 7 -28703568.893 7
  19025451.142   -17120972.571 6 -12952641.113 6
  21378196.657     -912927.147 3   -507626.068 1
  17833678.735   -27421626.415 7 -21295249.241 8
  17601031.806   -31859816.637 7 -23312145.545 8
  19813669.407   -12003279.082 5  -9175418.254 5
 95  2 19 20  0 29.9890000  0  7 28 18 31  2 29 19 27
  19781182.696   -16636677.677 5   -817115.211 6
  16819417.673   -38718806.255 7 -28732568.332 7
  19007030.337   -17217772.455 6 -13028069.556 6
  21353484.985    -1042789.595 3   -608817.406 2
  17836857.212   -27404925.009 7 -21282235.191 8
  17589309.267   -31921426.151 7 -23360152.960 8
  19793464.970   -12109446.940 5  -9258146.418 5
 95  2 19 20  0 59.9890000  0  7 28 18 31  2 29 19 27
  19774538.290   -16671584.854 6   -844315.609 6
  16812429.798   -38755527.149 7 -28761182.022 7
  18988688.915   -17314153.823 6 -13103171.880 6
  21328805.946    -1172497.612 3   -709888.463 2
  17840111.837   -27387816.317 7 -21268903.788 8
  17577619.603   -31982854.683 7 -23408019.349 8
  19773275.243   -12215559.045 5  -9340831.150 5
 95  2 19 20  1 29.9890000  0  7 28 18 31  2 29 19 27
  19768003.556   -16705944.643 6   -871089.461 6
  16805541.259   -38791729.890 7 -28789391.957 7
  18970433.595   -17410101.802 6 -13177936.499 6
  21304151.368    -1302038.475 3   -810829.278 1
  17843452.228   -27370269.341 7 -21255230.854 8
  17565965.204   -32044082.656 7 -23455729.456 8
  19753097.485   -12321591.216 5  -9423453.581 5
 95  2 19 20  1 59.9880000  0  7 28 18 31  2 29 19 27
  19761569.981   -16739750.001 5   -897431.290 6
  16798753.738   -38827388.349 7 -28817177.775 7
  18952260.887   -17505596.559 6 -13252347.945 6
  21279532.481    -1431402.653 3   -911632.437 2
  17846874.395   -27352281.143 7 -21241214.112 8
  17554354.316   -32105106.632 7 -23503280.608 8
  19732934.137   -12427530.778 5  -9506003.854 5
 95  2 19 20  2 29.9880000  0  7 28 18 31  2 29 19 27
  19755239.988   -16773012.149 6   -923349.835 6
  16792069.832   -38862525.703 7 -28844557.541 7
  18934168.621   -17600658.343 6 -13326422.001 6
  21254941.449    -1560618.082 3  -1012319.665 1
  17850380.199   -27333864.943 7 -21226863.861 8
  17542776.660   -32165944.620 7 -23550686.839 8
  19712792.652   -12533387.470 5  -9588489.546 5
 95  2 19 20  2 59.9880000  0  7 28 18 31  2 29 19 27
  19749010.902   -16805734.143 5   -948847.477 6
  16785475.973   -38897174.348 7 -28871556.487 7
  18916164.074   -17695291.333 6 -13400161.925 6
  21230386.387    -1689688.870 3  -1112894.218 2
  17853965.262   -27315018.015 7 -21212177.977 8
  17531232.840   -32226606.682 7 -23597955.976 8
  19692664.488   -12639157.848 5  -9670907.974 5
 95  2 19 20  3 29.9880000  0  7 28 18 31  2 29 19 27
  19742892.106   -16837895.669 5   -973908.403 6
  16778978.512   -38931326.615 7 -28898168.650 7
  18898239.145   -17789478.533 6 -13473554.491 6
  21205857.606    -1818594.255 3  -1213339.858 3
  17857636.277   -27295731.316 7 -21197149.426 8
  17519724.277   -32287079.190 7 -23645077.413 8
  19672556.504   -12744839.488 5  -9753257.273 5
 95  2 19 20  3 59.9880000  0  7 28 18 31  2 29 19 27
  19736875.074   -16869521.301 5   -998551.738 6
  16772564.488   -38965018.087 7 -28924421.753 7
  18880399.387   -17883238.481 6 -13546614.129 6
  21181349.004    -1947371.345 3  -1313685.544 2
  17861381.106   -27276051.780 7 -21181814.762 8
  17508247.481   -32347401.103 7 -23692081.508 8
  19652453.817   -12850466.226 5  -9835563.753 5
 95  2 19 20  4 29.9880000  0  7 28 18 31  2 29 19 27
  19730959.809   -16900592.819 5  -1022763.304 6
  16766243.801   -38998243.030 7 -28950311.325 7
  18862642.426   -17976544.972 6 -13619320.418 6
  21156867.574    -2076007.920 2  -1413921.737 1
  17865203.629   -27255960.167 7 -21166159.004 7
  17496803.129   -32407551.785 7 -23738952.169 8
  19632367.066   -12956024.439 5  -9917816.886 5
 95  2 19 20  4 59.9880000  0  7 28 18 31  2 29 19 27
  19725153.176   -16931121.009 5  -1046551.499 6
  16760006.988   -39030998.106 7 -28975834.775 7
  18844971.699   -18069400.236 6 -13691675.107 6
  21132415.957    -2204522.111 3  -1514062.584 2
  17869104.793   -27235461.954 7 -21150186.407 8
  17485385.691   -32467548.498 7 -23785702.861 8
  19612287.324   -13061540.395 5 -10000037.073 5
 95  2 19 20  5 29.9880000  0  7 28 18 31  2 29 19 27
  19719449.629   -16961095.877 5  -1069908.556 6
  16753872.481   -39063243.621 7 -29000961.159 7
  18827391.184   -18161796.057 6 -13763671.781 6
  21107986.590    -2332910.548 3  -1614105.439 2
  17873084.340   -27214551.992 7 -21133892.978 8
  17474000.340   -32527376.505 7 -23832322.090 8
  19592221.770   -13166994.121 5 -10082208.758 5
 95  2 19 20  5 59.9880000  0  7 28 18 31  2 29 19 27
  19713848.379   -16990520.870 5  -1092837.132 6
  16747832.246   -39094981.542 7 -29025692.019 7
  18809894.168   -18253731.086 6 -13835309.400 6
  21083578.262    -2461169.409 3  -1714047.308 2
  17877141.402   -27193230.042 7 -21117278.515 8
  17462647.543   -32587034.105 7 -23878808.535 8
  19572168.246   -13272374.781 5 -10164323.533 5
 95  2 19 20  6 29.9880000  0  7 28 18 31  2 29 19 27
  19708351.215   -17019399.821 5  -1115340.235 6
  16741893.199   -39126209.297 7 -29050025.357 7
  18792483.676   -18345224.918 6 -13906603.225 6
  21059197.621    -2589269.692 3  -1813865.616 2
  17881276.418   -27171497.437 6 -21100344.058 7
  17451328.020   -32646507.143 7 -23925151.159 8
  19552125.152   -13377691.740 5 -10246388.664 5
 95  2 19 20  6 59.9880000  0  7 28 18 31  2 29 19 27
  19702963.770   -17047723.906 5  -1137410.964 6
  16736047.488   -39156910.963 7 -29073948.741 7
  18775155.192   -18436282.026 6 -13977556.746 6
  21034858.238    -2717185.849 4  -1913540.467 4
  17885490.520   -27149359.351 7 -21083093.645 7
  17440051.504   -32705786.080 7 -23971342.542 8
  19532100.168   -13482935.018 5 -10328396.382 5
 95  2 19 20  7 29.9880000  0  7 28 18 31  2 29 19 27
  19697678.621   -17075499.317 5  -1159054.160 6
  16730307.051   -39187094.261 7 -29097468.217 7
  18757909.731   -18526910.683 6 -14048176.410 6
  21010556.668    -2844902.414 5  -2013059.787 3
  17889774.738   -27126838.897 7 -21065545.281 7
  17428805.129   -32764872.774 7 -24017384.123 8
  19512084.715   -13588101.493 5 -10410344.258 5
 95  2 19 20  7 59.9880000  0  7 28 18 31  2 29 19 27
  19692497.723   -17102723.857 5  -1180268.118 6
  16724657.582   -39216776.245 7 -29120597.047 7
  18740746.106   -18617107.763 6 -14118459.787 6
  20986293.949    -2972391.337 5  -2112401.744 2
  17894133.449   -27103936.830 7 -21047699.556 7
  17417598.129   -32823765.006 7 -24063274.175 8
  19492085.387   -13693207.518 5 -10492245.026 5
 95  2 19 20  8 29.9880000  0  7 28 18 31  2 29 19 27
  19687417.590   -17129416.923 5  -1201067.929 6
  16719100.965   -39245976.494 7 -29143350.505 7
  18723662.356   -18706884.075 6 -14188415.305 6
  20962072.473    -3099682.370 4  -2211589.492 4
  17898559.918   -27080667.247 7 -21029567.458 7
  17406427.535   -32882478.056 7 -24109024.601 8
  19472092.926   -13798263.534 5 -10574106.840 5
 95  2 19 20  8 59.9880000  0  7 28 18 31  2 29 19 27
  19682445.395   -17155554.528 5  -1221434.907 6
  16713639.316   -39274677.660 7 -29165715.068 7
  18706666.176   -18796196.026 6 -14258008.975 6
  20937886.949    -3226779.963 5  -2310626.495 4
  17903065.543   -27056996.094 6 -21011122.439 7
  17395286.801   -32941005.067 7 -24154630.061 8
  19452119.340   -13903233.436 5 -10655901.549 5
 95  2 19 20  9 29.9880000  0  7 28 18 31  2 29 19 27
  19677579.840   -17181130.113 5  -1241363.946 6
  16708270.207   -39302888.783 7 -29187697.775 7
  18689762.223   -18885023.550 6 -14327225.177 6
  20913730.332    -3353691.513 4  -2409518.514 5
  17907650.238   -27032905.374 7 -20992350.488 7
  17384189.559   -32999330.995 7 -24200078.832 8
  19432161.926   -14008116.510 5 -10737628.585 5
 95  2 19 20  9 59.9880000  0  7 28 18 31  2 29 19 27
  19672816.707   -17206154.184 5  -1260863.231 6
  16702991.871   -39330629.035 7 -29209313.572 7
  18672951.473   -18973370.477 6 -14396066.882 6
  20889612.035    -3480451.494 4  -2508292.447 5
  17912315.176   -27008389.625 7 -20973247.350 8
  17373125.043   -33057466.291 7 -24245379.058 8
  19412217.426   -14112918.842 5 -10819292.717 5
 95  2 19 20 10 29.9880000  0  7 28 18 31  2 29 19 27
  19668156.809   -17230644.181 5  -1279946.353 6
  16697803.246   -39357901.371 7 -29230564.758 7
  18656232.324   -19061240.162 6 -14464536.718 6
  20865511.902    -3607105.694 4  -2606983.961 5
  17917060.262   -26983460.402 7 -20953822.020 7
  17362093.652   -33115430.778 7 -24290546.186 8
  19392289.879   -14217641.792 5 -10900894.998 5
 95  2 19 20 10 59.9880000  0  7 28 18 31  2 29 19 27
  19663596.434   -17254590.611 5  -1298605.913 6
  16692706.652   -39384690.385 7 -29251439.335 7
  18639599.840   -19148633.177 6 -14532635.131 6
  20841431.223    -3733646.402 4  -2705587.031 5
  17921881.051   -26958117.625 6 -20934074.441 7
  17351097.504   -33173218.558 7 -24335575.619 8
  19372376.613   -14322282.340 5 -10982433.049 5
 95  2 19 20 11 29.9880000  0  7 28 18 31  2 29 19 27
  19659147.481   -17277982.750 5  -1316833.556 6
  16687703.676   -39410967.210 7 -29271914.789 7
  18623058.957   -19235543.752 6 -14600357.611 6
  20817380.449    -3860054.791 4  -2804087.010 4
  17926783.035   -26932360.083 6 -20914003.667 7
  17340140.379   -33230818.299 7 -24380458.522 8
  19352481.027   -14426835.902 5 -11063903.335 6
 95  2 19 20 11 59.9880000  0  7 28 18 31  2 29 19 27
  19654806.387   -17300794.221 5  -1334608.726 6
  16682811.809   -39436682.285 7 -29291952.531 7
  18606618.863   -19321949.573 6 -14667686.786 6
  20793351.426    -3986293.133 3  -2902454.488 3
  17931768.301   -26906164.244 6 -20893591.380 7
  17329215.363   -33288216.486 7 -24425184.377 8
  19332609.566   -14531263.080 5 -11145275.125 5
 95  2 19 20 12 29.9880000  0  7 28 18 31  2 29 19 27
  19650571.410   -17323062.644 5  -1351960.748 6
  16678018.121   -39461866.854 7 -29311576.891 7
  18590265.481   -19407891.109 6 -14734654.171 6
  20769358.004    -4112380.097 3  -3000703.983 4
  17936828.160   -26879578.132 7 -20872874.957 7
  17318324.082   -33345456.291 7 -24469786.822 8
  19312752.051   -14635611.873 5 -11226585.844 5
 95  2 19 20 12 59.9880000  0  7 28 18 31  2 29 19 27
  19646435.910   -17344788.975 5  -1368890.367 6
  16673324.637   -39486524.289 7 -29330790.492 7
  18573998.645   -19493372.219 6 -14801262.782 6
  20745401.106    -4238292.805 4  -3098817.715 4
  17941958.606   -26852609.030 6 -20851860.108 7
  17307460.941   -33402537.786 7 -24514265.914 8
  19292906.684   -14739900.102 6 -11307849.362 5
 95  2 19 20 13 29.9880000  0  7 28 18 31  2 29 19 27
  19642406.754   -17365960.258 5  -1385387.491 6
  16668736.566   -39510645.695 7 -29349586.405 7
  18557822.676   -19578368.582 6 -14867493.676 6
  20721480.215    -4364001.356 4  -3196772.376 2
  17947170.496   -26825230.909 6 -20830526.550 7
  17296633.082   -33459447.514 7 -24558611.158 8
  19273074.207   -14844117.378 6 -11389057.599 6
 95  2 19 20 13 59.9880000  0  7 28 18 31  2 29 19 27
  19638482.512   -17386576.122 5  -1401451.828 6
  16664243.754   -39534246.327 7 -29367976.521 7
  18541743.504   -19662873.247 6 -14933341.428 6
  20697597.512    -4489501.527 3  -3294564.682 3
  17952459.035   -26797437.622 6 -20808869.484 7
  17285838.934   -33516168.791 7 -24602809.562 8
  19253257.191   -14948263.969 6 -11470210.740 6
 95  2 19 20 14 29.9880000  0  7 28 18 31  2 29 19 27
  19634664.363   -17406649.198 5  -1417093.208 6
  16659848.199   -39557348.284 7 -29385978.061 7
  18525754.723   -19746885.471 6 -14998805.457 6
  20673752.691    -4614810.639 3  -3392208.063 3
  17957824.496   -26769244.441 6 -20786900.813 7
  17275081.754   -33572705.796 7 -24646864.368 8
  19233447.379   -15052360.845 6 -11551325.159 6
 95  2 19 20 14 59.9880000  0  7 28 18 31  2 29 19 27
  19630951.059   -17426158.070 5  -1432294.964 6
  16655550.231   -39579934.944 7 -29403578.068 7
  18509866.832   -19830381.742 6 -15063867.454 6
  20649948.856    -4739915.194 4  -3489692.085 3
  17963269.434   -26740629.818 6 -20764603.750 7
  17264362.949   -33629020.939 7 -24690746.301 8
  19213649.707   -15156384.781 6 -11632382.725 6
 95  2 19 20 15 29.9880000  0  7 28 18 31  2 29 19 27
  19627344.363   -17445115.461 5  -1447066.990 6
  16651346.606   -39602021.385 7 -29420788.300 7
  18494071.840   -19913372.278 6 -15128535.363 6
  20626176.317    -4864831.651 3  -3587029.522 3
  17968791.121   -26711607.722 6 -20741989.178 7
  17253688.434   -33685132.553 7 -24734469.645 8
  19193871.699   -15260339.026 6 -11713385.993 6
 95  2 19 20 15 59.9880000  0  7 28 18 31  2 29 19 27
  19623842.684   -17463531.320 5  -1461417.058 6
  16647237.168   -39623614.200 7 -29437613.886 7
  18478376.137   -19995863.987 6 -15192814.579 6
  20602433.715    -4989577.469 3  -3684233.994 3
  17974383.801   -26682219.646 6 -20719089.434 7
  17243042.660   -33741059.438 7 -24778049.039 8
  19174096.637   -15364239.175 6 -11794347.098 6
 95  2 19 20 16 29.9880000  0  7 28 18 31  2 29 19 27
  19620441.574   -17481388.320 5  -1475331.623 6
  16643228.137   -39644690.798 7 -29454037.227 7
  18462777.176   -20077842.098 6 -15256693.601 6
  20578735.770    -5114125.774 3  -3781284.555 4
  17980046.317   -26652457.814 6 -20695898.442 7
  17232434.254   -33796806.389 7 -24821488.220 8
  19154340.973   -15468069.194 6 -11875253.564 6
 95  2 19 20 16 59.9880000  0  7 28 18 31  2 29 19 27
  19617148.957   -17498685.608 5  -1488810.061 6
  16639318.395   -39665244.258 7 -29470052.929 7
  18447271.215   -20159322.403 6 -15320184.714 6
  20555071.965    -5238462.726 4  -3878170.431 4
  17985781.840   -26622322.950 6 -20672416.785 7
  17221857.309   -33852385.122 7 -24864796.331 8
  19134596.535   -15571828.419 6 -11956104.868 6
 95  2 19 20 17 29.9880000  0  7 28 18 31  2 29 19 27
  19613960.481   -17515439.740 5  -1501865.254 6
  16635503.223   -39685289.922 7 -29485672.945 7
  18431856.832   -20240321.187 6 -15383300.611 6
  20531453.027    -5362595.917 5  -3974897.532 4
  17991584.949   -26591827.821 6 -20648654.396 7
  17211307.043   -33907830.041 7 -24908000.164 8
  19114862.426   -15675523.955 6 -12036906.548 6
 95  2 19 20 17 59.9880000  0  7 28 18 31  2 29 19 27
  19610872.723   -17531659.900 5  -1514504.355 6
  16631782.801   -39704840.764 7 -29500907.381 7
  18416532.660   -20320854.182 6 -15446053.568 6
  20507869.277    -5486536.081 4  -4071474.228 4
  17997456.184   -26560980.290 6 -20624617.409 7
  17200782.051   -33963135.745 7 -24951095.515 8
  19095142.067   -15779161.584 6 -12117663.101 6
 95  2 19 20 18 29.9880000  0  7 28 18 31  2 29 19 27
  19607890.340   -17547327.252 5  -1526712.696 5
  16628159.184   -39723881.366 7 -29515744.234 7
  18401301.051   -20400908.811 6 -15508433.770 6
  20484321.317    -5610261.998 4  -4167883.966 4
  18003399.746   -26529732.177 6 -20600268.280 7
  17190294.059   -34018266.167 7 -24994054.282 8
  19075435.082   -15882708.213 6 -12198348.742 6
 95  2 19 20 18 59.9880000  0  7 28 18 31  2 29 19 27
  19605021.660   -17562427.478 5  -1538479.100 5
  16624635.988   -39742396.177 7 -29530171.381 7
  18386162.981   -20480455.493 6 -15570418.173 6
  20460819.793    -5733770.124 5  -4264124.005 4
  18009430.160   -26498055.638 6 -20575585.317 7
  17179839.082   -34073189.755 7 -25036851.878 8
  19055754.848   -15986141.316 6 -12278945.913 6
 95  2 19 20 19 29.9880000  0  7 28 18 31  2 29 19 27
  19602252.324   -17576972.948 5  -1549813.231 6
  16621209.863   -39760399.865 7 -29544200.247 7
  18371123.699   -20559485.395 6 -15631999.897 6
  20437353.004    -5857090.566 5  -4360217.825 4
  18015536.988   -26465956.568 6 -20550573.104 7
  17169428.168   -34127907.242 7 -25079488.876 8
  19036091.379   -16089473.446 6 -12359464.414 6
 95  2 19 20 19 59.9880000  0  7 28 18 31  2 29 19 27
  19599585.324   -17590986.977 5  -1560733.252 6
  16617878.012   -39777909.792 7 -29557844.369 7
  18356178.301   -20638014.167 6 -15693191.125 6
  20413915.801    -5980253.271 5  -4456188.728 4
  18021720.574   -26433460.054 6 -20525251.196 7
  17159051.777   -34182434.615 7 -25121977.737 8
  19016441.879   -16192738.149 6 -12439930.382 6
 95  2 19 20 20 29.9880000  0  7 28 18 31  2 29 19 27
  19597020.106   -17604453.454 5  -1571226.609 6
  16614645.606   -39794893.319 7 -29571078.306 7
  18341336.465   -20716011.764 6 -15753968.457 6
  20390514.801    -6103243.276 5  -4552025.045 3
  18027984.629   -26400544.913 6 -20499603.088 7
  17148713.035   -34236772.970 7 -25164319.311 8
  18996806.309   -16295925.320 6 -12520335.923 6
 95  2 19 20 20 59.9880000  0  7 28 18 31  2 29 19 27
  19594565.566   -17617370.353 5  -1581291.723 6
  16611513.535   -39811349.984 7 -29583901.703 7
  18326595.246   -20793468.866 6 -15814324.624 6
  20367141.856    -6226064.917 5  -4647730.202 4
  18034326.566   -26367219.518 6 -20473635.304 7
  17138404.512   -34290936.826 7 -25206524.912 8
  18977182.254   -16399045.169 6 -12600689.012 6
 95  2 19 20 21 29.9880000  0  7 28 18 31  2 29 19 27
  19592210.488   -17629738.711 5  -1590929.393 6
  16608480.707   -39827287.583 7 -29596320.626 7
  18311958.113   -20870395.549 6 -15874267.483 6
  20343799.551    -6348717.555 5  -4743303.648 4
  18040741.902   -26333503.155 6 -20447362.869 7
  17128132.762   -34344931.224 7 -25248598.470 8
  18957570.535   -16502100.983 6 -12680992.211 6
 95  2 19 20 21 59.9880000  0  7 28 18 31  2 29 19 27
  19589960.113   -17641560.957 5  -1600141.534 6
  16605544.668   -39842718.014 7 -29608344.363 7
  18297420.809   -20946793.127 6 -15933798.040 6
  20320491.957    -6471190.434 5  -4838737.015 5
  18047229.035   -26299412.786 6 -20420799.002 7
  17117888.176   -34398761.744 7 -25290544.327 8
  18937970.863   -16605087.392 6 -12761241.324 6
 95  2 19 20 22 29.9880000  0  7 28 18 31  2 29 19 27
  19587818.168   -17652839.056 5  -1608929.672 6
  16602704.027   -39857640.243 7 -29619972.103 7
  18282983.113   -21022655.239 6 -15992911.367 6
  20297221.293    -6593480.668 4  -4934028.061 5
  18053787.723   -26264947.369 6 -20393942.883 7
  17107674.574   -34452427.554 7 -25332361.844 8
  18918392.613   -16707994.846 6 -12841428.909 6
 95  2 19 20 22 59.9870000  0  7 28 18 31  2 29 19 27
  19585767.194   -17663572.044 5  -1617293.063 6
  16599960.663   -39872068.586 7 -29631214.993 7
  18268651.874   -21097980.466 6 -16051606.334 6
  20273988.382    -6715582.131 5  -5029172.010 4
  18060414.843   -26230120.255 6 -20366804.924 7
  17097496.671   -34505908.682 7 -25374035.450 8
  18898824.288   -16810813.405 6 -12921547.236 6
 95  2 19 20 23 29.9870000  0  8 28 18 31  2 16 29 19 27
  19583835.640   -17673749.722 5  -1625223.738 5
  16597312.257   -39885977.310 7 -29642052.980 7
  18254421.687   -21172758.756 6 -16109875.117 6
  20250793.929    -6837468.602 5  -5124148.439 4
  21122513.218          -0.43513
  18067115.554   -26194921.031 6 -20339377.019 7
  17087361.765   -34559180.191 7 -25415545.715 8
  18879277.335   -16913538.459 6 -13001592.686 6
 95  2 19 20 23 59.9870000  0  8 28 18 31  2 16 29 19 27
  19582002.734   -17683384.737 5  -1632731.571 6
  16594765.976   -39899362.189 7 -29652482.780 7
  18240291.835   -21247003.313 6 -16167728.012 6
  20227639.398    -6959141.911 5  -5218958.757 5
  21103956.726      -97504.035 3
  18073885.702   -26159346.165 6 -20311656.397 7
  17077261.624   -34612247.839 7 -25456897.129 8
  18859742.007   -17016185.208 6 -13081577.130 6
 95  2 19 20 24 29.9870000  0  8 28 18 31  2 16 29 19 27
  19580273.023   -17692478.496 5  -1639817.642 5
  16592321.288   -39912212.877 7 -29662496.324 7
  18226266.280   -21320723.384 6 -16225172.204 6
  20204524.132    -7080600.839 5  -5313602.028 5
  21085484.351     -194600.201 3
  18080724.952   -26123394.730 6 -20283642.334 7
  17067202.140   -34665106.270 7 -25498085.523 8
  18840222.913   -17118762.447 6 -13161507.412 6
 95  2 19 20 24 59.9870000  0  8 28 18 31  2 16 29 19 27
  19578644.929   -17701028.929 5  -1646480.349 5
  16589974.694   -39924539.395 7 -29672101.432 7
  18212335.343   -21393920.382 6 -16282208.813 6
  20181451.304    -7201847.323 4  -5408079.748 5
  21067082.109     -291286.268 3
  18087636.140   -26087075.473 6 -20255341.665 7
  17057186.976   -34717754.543 7 -25539110.153 8
  18820713.538   -17221276.365 6 -13241388.342 6
 95  2 19 20 25 29.9870000  0  8 28 18 31  2 16 29 19 27
  19577118.296   -17709037.189 5  -1652720.593 5
  16587730.632   -39936338.868 7 -29681295.856 7
  18198504.304   -21466592.390 6 -16338836.337 6
  20158423.507    -7322886.563 5  -5502395.974 5
  21048763.726     -387560.306 3        -0.40911
  18094619.398   -26050383.225 6 -20226750.358 7
  17047204.046   -34770203.083 7 -25579979.153 8
  18801221.194   -17323725.190 6 -13321218.560 6
 95  2 19 20 25 59.9870000  0  8 28 18 31  2 16 29 19 27
  19575703.468   -17716500.743 5  -1658536.386 5
  16585581.187   -39947626.246 7 -29690091.235 7
  18184776.054   -21538729.601 6 -16395047.137 6
  20135424.398    -7443739.063 5  -5596566.697 5
  21030529.530     -483407.368 3    -74686.436 1
  18101672.773   -26013316.631 6 -20197867.344 7
  17037259.374   -34822470.099 7 -25620706.697 8
  18781741.616   -17426092.586 6 -13400985.311 6
 95  2 19 20 26 29.9870000  0  8 28 18 31  2 16 29 19 27
  19574382.515   -17723418.862 5  -1663927.173 6
  16583530.280   -39958410.445 7 -29698494.525 7
  18171156.780   -21610315.569 6 -16450828.396 6
  20112459.569    -7564401.708 5  -5690589.480 5
  21012374.859     -578796.107 3   -149015.282 1
  18108794.046   -25975890.159 6 -20168703.915 7
  17027343.944   -34874565.470 7 -25661300.502 8
  18762276.648   -17528378.039 6 -13480688.231 6
 95  2 19 20 26 59.9870000  0  8 28 18 31  2 16 29 19 27
  19573173.624   -17729796.006 5  -1668896.422 6
  16581573.593   -39968693.559 7 -29706507.366 7
  18157637.804   -21681350.024 6 -16506179.900 6
  20089533.937    -7684878.614 5  -5784467.536 5
  20994305.827     -673722.083 3   -222983.603 1
  18115984.319   -25938106.520 6 -20139262.177 7
  17017463.890   -34926497.197 7 -25701766.788 8
  18742828.054   -17630584.509 6 -13560329.592 6
 95  2 19 20 27 29.9870000  0  8 28 18 31  2 16 29 19 27
  19572059.062   -17735630.264 5  -1673442.626 5
  16579713.960   -39978459.325 7 -29714117.074 7
  18144226.405   -21751825.000 6 -16561095.445 6
  20066650.765    -7805140.532 5  -5878178.079 5
  20976335.218     -768177.875 3   -296585.466 1
  18123246.226   -25899954.694 6 -20109533.534 7
  17007611.296   -34978261.402 7 -25742102.535 8
  18723394.116   -17732706.792 6 -13639905.352 6
 95  2 19 20 27 59.9870000  0  8 28 18 31  2 16 29 19 27
  19571053.085   -17740933.383 5  -1677574.947 5
  16577956.007   -39987710.107 7 -29721325.500 7
  18130921.202   -21821750.850 6 -16615583.098 6
  20043807.858    -7925181.183 5  -5971716.193 2
  20958445.538     -862169.386 3   -369825.614 1
  18130571.562   -25861447.295 6 -20079527.823 7
  16997791.452   -35029862.224 7 -25782310.962 8
  18703973.874   -17834766.354 6 -13719432.251 6
 95  2 19 20 28 29.9870000  0  8 28 18 31  2 16 29 19 27
  19570147.835   -17745700.211 5  -1681289.390 6
  16576293.437   -39996435.979 7 -29728124.904 7
  18117719.382   -21891132.293 6 -16669646.542 6
  20021011.351    -8044972.265 5  -6065059.828 5
  20940651.108     -955697.866 3   -442704.900 1
  18137968.194   -25822577.520 6 -20049239.743 6
  16988009.999   -35081270.682 7 -25822369.510 8
  18684563.898   -17936758.247 6 -13798906.398 6
 95  2 19 20 28 59.9870000  0  8 28 18 31  2 16 29 19 27
  19569339.171   -17749926.581 5  -1684582.696 5
  16574736.109   -40004624.060 7 -29734505.255 7
  18104620.499   -21959962.507 6 -16723280.458 6
  19998264.273    -8164512.006 5  -6158207.637 5
  20922936.819    -1048776.939 3   -515233.996 1
  18145436.788   -25783333.784 6 -20018660.269 6
  16978267.187   -35132473.957 7 -25862268.170 8
  18665172.491   -18038657.858 6 -13878308.657 6
 95  2 19 20 29 29.9870000  0  8 28 18 31  2 16 29 19 27
  19568639.788   -17753618.110 5  -1687459.239 5
  16573277.843   -40012289.163 7 -29740478.083 7
  18091628.952   -22028244.310 6 -16776487.036 6
  19975563.804    -8283815.077 5  -6251171.017 5
  20905308.437    -1141415.423 3   -587419.874 2
  18152976.452   -25743716.198 6 -19987789.478 6
  16968557.444   -35183481.071 7 -25902013.969 8
  18645801.273   -18140461.615 6 -13957636.215 6
 95  2 19 20 29 59.9870000  0  8 28 18 31  2 16 29 19 27
  19568035.452   -17756772.619 5  -1689917.313 6
  16571917.171   -40019437.508 7 -29746048.249 7
  18078739.249   -22095981.413 6 -16829269.181 7
  19952900.030    -8402908.910 5  -6343971.356 5
  20887762.444    -1233610.735 3   -659260.338 2
  18160587.437   -25703724.094 6 -19956626.847 6
  16958889.999   -35234291.494 7 -25941606.506 8
  18626448.577   -18242156.531 6 -14036878.977 6
 95  2 19 20 30 29.9870000  0  8 28 18 31  2 16 29 19 27
  19567539.030   -17759400.043 5  -1691964.673 6
  16570650.866   -40026088.195 7 -29751230.627 7
  18065950.452   -22163175.257 6 -16881628.002 6
  19930271.999    -8521819.989 5  -6436629.309 5
  20870305.382    -1325371.983 3   -730762.628 2
  18168265.546   -25663368.370 6 -19925180.880 6
  16949254.749   -35284925.074 7 -25981061.243 8
  18607117.374   -18343744.460 6 -14116038.353 6
 95  2 19 20 30 59.9870000  0  8 28 18 31  2 16 29 19 27
  19567143.054   -17761487.550 5  -1693591.325 5
  16569481.398   -40032231.099 7 -29756017.333 7
  18053272.405   -22229799.279 6 -16933542.813 6
  19907674.648    -8640555.434 5  -6529150.378 5
  20852935.187    -1416670.393 3   -801904.200 1
  18176018.046   -25622632.922 6 -19893439.034 6
  16939651.905   -35335382.958 7 -26020379.065 8
  18587805.679   -18445226.192 6 -14195115.000 6
 95  2 19 20 31 29.9870000  0  8 28 18 31  2 16 29 19 27
  19566845.468   -17763046.139 5  -1694805.825 5
  16568405.288   -40037898.536 7 -29760433.544 7
  18040698.093   -22295868.761 6 -16985025.507 6
  19885114.054    -8759120.054 5  -6621538.350 5
  20835644.976    -1507510.798 3   -872688.940 1
  18183840.421   -25581529.286 6 -19861410.286 6
  16930083.976   -35385678.649 7 -26059570.493 8
  18568509.530   -18546628.560 6 -14274129.798 6
 95  2 19 20 31 59.9870000  0  8 28 18 31  2 16 29 19 27
  19566647.538   -17764080.294 5  -1695611.681 5
  16567418.640   -40043084.477 7 -29764474.563 7
  18028231.671   -22361375.689 6 -17036069.853 6
  19862586.491    -8877496.712 5  -6713779.835 5
  20818445.452    -1597896.823 3   -943119.619 2
  18191728.499   -25540069.506 6 -19829104.028 6
  16920545.312   -35435802.845 7 -26098628.291 8
  18549225.023   -18647969.209 6 -14353096.500 6
 95  2 19 20 32 29.9870000  0  8 28 18 31  2 16 29 19 27
  19566553.030   -17764584.399 5
  16566524.913   -40047771.447 7 -29768126.768 7
  18015881.515   -22426295.467 6 -17086656.674 7
  19840104.163    -8995656.192 5  -6805852.115 5
  20801335.765    -1687823.673 3  -1013192.464 2
  18199685.257   -25498256.002 6 -19796522.130 6
  16911040.476   -35485742.409 7 -26137542.233 8
  18529952.179   -18749252.710 6 -14432018.672 6
 95  2 19 20 32 59.9870000  0  8 28 18 31  2 16 29 19 27
  19566554.624   -17764555.128 5
  16565730.179   -40051956.506 7 -29771387.877 7
  18003635.366   -22490635.091 6 -17136791.431 7
  19817660.023    -9113584.635 5  -6897744.363 5
  20784309.616    -1777282.294 3  -1082900.490 1
  18207710.890   -25456085.259 6 -19763661.877 6
  16901578.187   -35535475.622 7 -26176295.369 8
  18510690.694   -18850473.014 6 -14510891.591 6
 95  2 19 20 33 29.9870000  0  8 28 18 31  2 16 29 19 27
  19566663.288   -17763999.085 5
  16565027.523   -40055639.323 7 -29774257.628 7
  17991502.210   -22554408.689 6 -17186485.132 7
  19795265.093    -9231271.950 5  -6989448.713 5
  20767371.999    -1866283.208 3  -1152251.879 1
  18215802.109   -25413573.698 6 -19730536.040 6
  16892153.171   -35584996.208 7 -26214882.827 8
  18491442.546   -18951622.257 6 -14589709.134 6
 95  2 19 20 33 59.9870000  0  8 28 18 31  2 16 29 19 27
  19566873.929   -17762901.601 5  -1694693.343 5
  16564427.780   -40058791.393 7 -29776713.809 8
  17979474.280   -22617603.588 6 -17235727.893 7
  19772916.179    -9348717.565 5  -7080964.721 5
  20750528.069    -1954804.608 3  -1221229.579 2
  18223958.194   -25370704.062 6 -19697131.199 6
  16882772.327   -35634289.761 7 -26253293.372 8
  18472213.468   -19052675.480 6 -14668451.858 6
 95  2 19 20 34 29.9870000  0  8 28 18 31  2 16 29 19 27
  19567183.757   -17761271.840 5  -1693423.442 5
  16563925.116   -40061430.885 7 -29778770.580 7
  17967555.062   -22680248.539 6 -17284542.126 6
  19750605.273    -9465949.104 5  -7172313.910 5
  20733774.718    -2042850.744 3  -1289836.954 1
  18232184.523   -25327475.751 6 -19663446.864 6
  16873433.749   -35683378.341 7 -26291544.206 8
  18452999.679   -19153632.541 6 -14747119.646 6
 95  2 19 20 34 59.9870000  0  8 28 18 31  2 16 29 19 27
  19567588.694   -17759132.601 5  -1691756.539 5
  16563511.741   -40063591.641 7 -29780454.310 7
  17955732.804   -22742377.940 6 -17332954.624 6
  19728336.444    -9582990.465 5  -7263514.902 5
  20717097.663    -2130442.199 3  -1358090.049 1
  18240475.398   -25283904.888 6 -19629495.607 6
  16864122.632   -35732294.182 7 -26329660.440 8
  18433804.257   -19254508.421 6 -14825724.169 6
 95  2 19 20 35 29.9870000  0  8 28 18 31  2 16 29 19 27
  19568095.015   -17756468.473 5  -1689680.631 5
  16563201.944   -40065240.078 7 -29781738.829 7
  17944012.312   -22803965.142 6 -17380944.640 7
  19706103.843    -9699811.763 5  -7354544.434 5
  20700524.062    -2217572.885 3  -1425984.088 2
  18248833.921   -25239979.327 6 -19595267.963 6
  16854847.429   -35781040.722 7 -26367644.755 8
  18414625.257   -19355293.313 6 -14904257.804 6
 95  2 19 20 35 59.9870000  0  8 28 18 31  2 16 29 19 27
  19568701.077   -17753280.642 5  -1687196.646 5
  16562988.671   -40066367.306 7 -29782617.212 8
  17932396.874   -22864996.034 6 -17428501.166 7
  19683914.546    -9816410.010 5  -7445400.134 5
  20684033.023    -2304239.145 3  -1493516.225 2
  18257262.343   -25195692.842 6 -19560759.074 6
  16845605.460   -35829620.252 7 -26405498.928 8
  18395461.296   -19455997.493 6 -14982728.529 6
 95  2 19 20 36 29.9870000  0  8 28 18 31  2 16 29 19 27
  19569408.187   -17749576.409 5  -1684310.261 5
  16562871.890   -40066974.356 7 -29783090.257 7
  17920892.038   -22925458.282 6 -17475614.601 7
  19661775.046    -9932763.940 5  -7536065.465 5
  20667629.062    -2390441.645 3  -1560687.002 1
  18265753.437   -25151069.902 6 -19525988.030 6
  16836392.366   -35878028.763 7 -26443219.852 8
  18376310.577   -19556640.386 6 -15061151.511 6
 95  2 19 20 36 59.9870000  0  8 28 18 31  2 16 29 19 27
  19570212.476   -17745347.657 5  -1681015.162 5
  16562855.905   -40067047.534 7
  17909501.671   -22985321.360 6 -17522261.145 7
  19639684.577   -10048861.310 5  -7626530.878 5
  20651315.874    -2476160.594 3  -1627480.982 1
  18274307.663   -25106121.113 6 -19490963.064 6
  16827215.609   -35926247.605 7 -26480792.979 8
  18357170.585   -19657211.362 6 -15139518.454 6
 95  2 19 20 37 29.9870000  0  8 28 18 31  2 16 29 19 27
  19571118.523   -17740592.216 5  -1677309.671 5
  16562948.124   -40066575.656 7
  17898221.702   -23044581.213 6 -17568437.651 6
  19617637.140   -10164718.583 5  -7716809.203 5
  20635088.319    -2561387.812 3  -1693891.811 1
  18282923.218   -25060844.937 6 -19455682.995 6
  16818079.421   -35974261.445 7 -26518206.359 8
  18338048.109   -19757705.399 6 -15217825.440 6
 95  2 19 20 37 59.9870000  0  8 28 18 31  2 16 29 19 27
  19572117.179   -17735322.144 5  -1673203.153 5
  16563136.882   -40065583.387 7 -29782006.445 8
  17887059.124   -23103248.389 6 -17614152.329 7
  19595628.421   -10280364.406 5  -7806922.759 5
  20618969.476    -2646131.374 3  -1759925.728 1
  18291598.952   -25015250.789 6 -19420155.170 6
  16808982.624   -36022071.837 7 -26555461.221 8
  18318942.960   -19858114.216 6 -15296066.024 6
 95  2 19 20 38 29.9870000  0  8 28 18 31  2 16 29 19 27
  19573222.015   -17729526.269 5  -1668686.928 5
  16563424.851   -40064071.207 7 -29780828.143 8
  17876008.913   -23161318.814 6 -17659402.013 7
  19573664.265   -10395794.030 5  -7896867.846 5
  20602941.187    -2730391.221 3  -1825582.746 3
  18300335.858   -24969333.331 6 -19384375.410 6
  16799922.593   -36069671.707 7 -26592552.039 8
  18299856.452   -19958408.168 6 -15374217.111 6
 95  2 19 20 38 59.9870000  0  8 28 18 31  2 16 29 19 27
  19574425.296   -17723215.753 5  -1663769.682 5
  16563806.444   -40062047.249 7 -29779251.059 8
  17865072.624   -23218808.846 6 -17704199.445 7
  19551736.233   -10511032.876 5  -7986664.278 5
  20586991.937    -2814183.186 3  -1890875.195 2
  18309139.562   -24923081.394 6 -19348335.012 6
  16790900.530   -36117079.329 7 -26629493.052 8
  18280795.733   -20058580.997 6 -15452273.799 6
 95  2 19 20 39 29.9870000  0  8 28 18 31  2 16 29 19 27
  19575724.866   -17716386.739 5  -1658448.405 5
  16564289.624   -40059515.841 7 -29777278.554 8
  17854243.968   -23275706.981 6 -17748535.656 7
  19529848.702   -10626061.504 5  -8076296.907 5
  20571136.562    -2897509.426 3  -1955804.731 1
  18318007.562   -24876479.001 6 -19312021.542 6
  16781916.374   -36164291.750 7 -26666281.962 8
  18261753.765   -20158628.827 6 -15530233.109 6
 95  2 19 20 39 59.9870000  0  8 28 18 31  2 16 29 19 27
  19577118.148   -17709042.310 5  -1652725.505 5
  16564867.538   -40056483.246 7 -29774915.513 8
  17843533.163   -23331997.229 6 -17792398.189 7
  19507999.062   -10740862.912 5  -8165752.466 5
  20555367.226    -2980368.756 3  -2020370.412 2
  18326940.358   -24829531.882 6 -19275439.444 6
  16772967.726   -36211311.666 7 -26702920.863 8
  18242738.687   -20258566.694 6 -15608106.717 6
 95  2 19 20 40 29.9870000  0  8 28 18 31  2 16 29 19 27
  19578616.194   -17701181.023 5  -1646599.870 5
  16565540.007   -40052949.486 7 -29772161.961 8
  17832938.171   -23387669.610 6 -17835779.272 7
  19486197.155   -10855428.592 5  -8255024.361 5
  20539695.484    -3062734.044 3  -2084551.167 2
  18335941.007   -24782236.429 6 -19238585.913 6
  16764058.460   -36258137.295 7 -26739408.372 8
  18223737.859   -20358411.837 6 -15685908.090 6
 95  2 19 20 40 59.9870000  0  8 28 18 31  2 16 29 19 27
  19580209.116   -17692809.558 5  -1640076.693 5
  16566307.257   -40048920.012 7 -29769022.131 8
  17822456.210   -23442730.530 6 -17878683.886 7
  19464442.929   -10969753.727 5  -8344108.805 5
  20524113.148    -3144589.324 3  -2148334.500 1
  18345004.921   -24734596.029 6 -19201463.618 6
  16755184.905   -36304773.142 7 -26775747.996 8
  18204752.030   -20458186.324 6 -15763654.400 6
 95  2 19 20 41 29.9870000  0  8 28 18 31  2 16 29 19 27
  19581902.351   -17683909.206 5  -1633141.395 5
  16567170.405   -40044379.394 7 -29765484.011 8
  17812097.726   -23497169.301 6 -17921103.710 6
  19442740.319   -11083814.566 5  -8432987.296 5
  20508640.898    -3225920.904 4  -2211709.726 2
  18354137.733   -24686607.895 6 -19164070.344 6
  16746349.929   -36351203.435 7 -26811927.446 8
  18185779.687   -20557878.897 6 -15841336.886 6
 95  2 19 20 41 59.9870000  0  8 28 18 31  2 16 29 19 27
  19583693.015   -17674515.203 5  -1625821.431 5
  16568127.757   -40039348.361 7 -29761563.752 8
  17801844.491   -23551047.236 6 -17963086.519 7
  19421076.483   -11197646.899 5  -8521687.732 5
  20493261.085    -3306761.005 4  -2274701.965 3
  18363330.085   -24638308.059 6 -19126434.184 6
  16737546.233   -36397466.385 7 -26847976.510 8
  18166821.343   -20657511.116 6 -15918972.351 6
 95  2 19 20 42 29.9870000  0  8 28 18 31  2 16 29 19 27
  19585572.859   -17664618.571 5  -1618109.825 5
  16569180.054   -40033821.591 7 -29757257.201 8
  17791701.109   -23604372.879 6 -18004638.955 6
  19399458.640   -11311239.942 5  -8610201.697 5
  20477963.054    -3387103.550 3  -2337306.547 3
  18372580.609   -24589691.346 6 -19088551.100 6
  16728774.179   -36443557.872 7 -26883891.951 8
  18147881.796   -20757049.130 6 -15996534.406 6
 95  2 19 20 42 59.9870000  0  8 28 18 31  2 16 29 19 27
  19587552.577   -17654204.874 5  -1609995.307 5
  16570328.687   -40027784.805 7 -29752553.231 8
  17781658.640   -23657137.892 6 -18045754.544 7
  19377890.023   -11424579.712 5  -8698518.310 5
  20462770.218    -3466960.823 3  -2399532.927 2
  18381893.679   -24540751.307 6 -19050416.075 6
  16720040.155   -36489459.221 7 -26919659.234 8
  18128962.351   -20856463.207 6 -16073999.894 6
 95  2 19 20 43 29.9870000  0  8 28 18 31  2 16 29 19 27
  19589633.374   -17643280.054 5  -1601482.505 5
  16571575.569   -40021240.535 7 -29747453.829 8
  17771725.007   -23709343.939 6 -18086434.568 7
  19356370.773   -11537674.816 5  -8786644.268 5
  20447668.030    -3546338.919 4  -2461385.946 1
  18391268.202   -24491496.071 6 -19012035.445 6
  16711340.819   -36535164.110 7 -26955273.417 8
  18110073.444   -20955736.689 6 -16151355.823 6
 95  2 19 20 43 59.9870000  0  8 28 18 31  2 16 29 19 27
  19591809.679   -17631851.454 5  -1592577.151 5
  16572913.741   -40014202.928 7 -29741969.997 8
  17761898.984   -23760985.448 6 -18126674.693 7
  19334895.773   -11650529.284 5  -8874582.713 5
  20432654.265    -3625230.799 4  -2522860.125 4
  18400700.101   -24441926.007 6 -18973409.494 6
  16702683.444   -36580663.165 7 -26990727.228 8
  18091206.405   -21054864.839 6 -16228598.511 6
 95  2 19 20 44 29.9860000  0  8 28 18 31  2 16 29 19 27
  19594079.916   -17619927.075 5  -1583285.473 5
  16574343.283   -40006684.500 7 -29736111.507 8
  17752181.213   -23812032.374 6 -18166451.502 7
  19313463.822   -11763147.797 5  -8962337.293 5
  20417735.533    -3703627.876 4  -2583948.717 2
  18410192.205   -24392047.552 6 -18934543.238 6
  16694068.025   -36625950.060 7 -27026015.706 8
  18072366.690   -21153871.048 6 -16305746.174 6
 95  2 19 20 44 59.9860000  0  8 28 18 31  2 16 29 19 27
  19596449.643   -17607492.130 5  -1573595.954 5
  16575869.986   -39998657.876 7 -29729857.022 8
  17742586.479   -23862462.844 6 -18205747.962 7
  19292081.197   -11875524.192 5  -9049903.209 5
  20402914.619    -3781506.458 4  -2644633.283 3
  18419747.924   -24341836.415 6 -18895417.746 6
  16685491.666   -36671002.197 7 -27061121.260 8
  18053545.408   -21252771.189 6 -16382811.193 7
 95  2 19 20 45 29.9860000  0  8 28 18 31  2 16 29 19 27
  19598908.088   -17594557.536 5  -1563517.101 5
  16577493.408   -39990127.153 7 -29723209.729 8
  17733106.150   -23912281.095 6 -18244567.370 7
  19270741.315   -11987660.600 5  -9137282.132 5
  20388197.963    -3858863.346 4  -2704911.360 2
  18429367.900   -24291289.380 6 -18856030.525 6
  16676964.783   -36715822.741 7 -27096046.350 8
  18034744.150   -21351581.903 6 -16459806.524 6
 95  2 19 20 45 59.9860000  0  8 28 18 31  2 16 29 19 27
  19601466.807   -17581112.146 5  -1553040.233 5
  16579216.229   -39981076.822 7 -29716157.550 8
  17723746.463   -23961465.376 6 -18282892.767 7
  19249451.322   -12099541.586 5  -9224462.017 5
  20373571.049    -3935703.270 4  -2764786.563 3
  18439054.002   -24240387.867 6 -18816367.076 6
  16668479.065   -36760418.355 7 -27130796.166 8
  18015955.572   -21450316.557 6 -16536742.588 7
 95  2 19 20 46 29.9860000  0  8 28 18 31  2 16 29 19 27
  19604114.580   -17567169.602 5  -1542175.960 5
  16581037.557   -39971516.329 7 -29708707.839 8
  17714508.830   -24010028.978 6 -18320734.518 7
  19228208.502   -12211178.280 5  -9311451.544 5
  20359045.338    -4012045.648 4  -2824274.109 1
  18448802.752   -24189149.917 6 -18776441.481 6
  16660030.525   -36804805.036 7 -27165383.184 8
  17997175.557   -21548999.519 6 -16613638.366 6
 95  2 19 20 46 59.9860000  0  8 28 18 31  2 16 29 19 27
  19606865.783   -17552724.203 5  -1530919.868 5
  16582955.291   -39961439.807 7 -29700856.029 8
  17705377.346   -24057992.386 6 -18358108.581 7
  19207014.049   -12322565.612 5  -9398246.768 5
  20344608.674    -4087903.035 4  -2883383.714 2
  18458614.275   -24137578.570 6 -18736256.088 6
  16651627.057   -36848988.135 7 -27199811.561 8
  17978411.650   -21647608.760 6 -16690476.694 7
 95  2 19 20 47 29.9860000  0  8 28 18 31  2 16 29 19 27
  19609709.799   -17537793.020 5  -1519285.236 5
  16584965.127   -39950867.302 7 -29692617.741 8
  17696362.619   -24105368.951 6 -18395025.370 7
  19185860.815   -12433718.853 5  -9484859.593 5
  20330263.010    -4163308.451 4  -2942141.121 2
  18468489.775   -24085699.953 6 -18695831.275 6
  16643251.690   -36892987.633 7 -27234096.873 8
  17959659.010   -21746148.493 6 -16767260.868 7
 95  2 19 20 47 59.9860000  0  8 28 18 31  2 16 29 19 27
  19612648.486   -17522363.985 5  -1507262.656 5
  16587073.291   -39939791.287 7 -29683987.109 8
  17687462.838   -24152132.621 6 -18431464.579 7
  19164755.057   -12544628.744 5  -9571282.792 5
  20316001.268    -4238237.199 4  -3000527.126 2
  18478415.424   -24033525.689 6 -18655176.078 6
  16634915.260   -36936799.465 7 -27268235.949 8
  17940926.361   -21844597.835 6 -16843974.600 7
 95  2 19 20 48 29.9860000  0  8 28 18 31  2 16 29 19 27
  19615676.025   -17506446.078 5  -1494859.144 5
  16589274.682   -39928223.928 7 -29674973.609 8
  17678679.760   -24198295.520 6 -18467435.662 7
  19143689.244   -12655318.852 5  -9657534.730 5
  20301843.174    -4312676.451 4  -3058531.694 2
  18488397.408   -23981080.868 6 -18614310.057 5
  16626614.236   -36980416.391 7 -27302223.151 8
  17922208.729   -21942952.127 6 -16920614.271 7
 95  2 19 20 48 59.9860000  0  8 28 18 31  2 16 29 19 27
  19618796.697   -17490037.913 5  -1482073.599 5
  16591572.057   -39916151.701 7 -29665566.712 8
  17670010.510   -24243853.018 6 -18502935.004 7
  19122668.549   -12765786.654 5  -9743613.453 5
  20287767.697    -4386609.600 4  -3116141.891 1
  18498426.065   -23928370.041 6 -18573236.773 6
  16618352.627   -37023841.327 7 -27336060.754 8
  17903515.213   -22041196.146 6 -16997168.005 7
 95  2 19 20 49 29.9860000  0  8 28 18 31  2 16 29 19 27
  19622011.049   -17473132.497 5  -1468900.594 5
  16593965.479   -39903574.304 7 -29655766.165 8
  17661462.252   -24288773.701 6 -18537938.124 7
  19101692.900   -12876022.006 5  -9829511.055 5
  20273804.041    -4460011.990 3  -3173338.538 2
  18508510.994   -23875377.126 6 -18531943.668 6
  16610127.330   -37067055.573 7 -27369734.180 8
  17884841.830   -22139319.360 6 -17073627.612 7
 95  2 19 20 49 59.9860000  0  8 28 18 31  2 16 29 19 27
  19625323.096   -17455732.794 5  -1455342.424 5
  16596453.900   -39890501.945 7 -29645579.941 8
  17653030.424   -24333069.937 6 -18572454.674 7
  19080758.408   -12986024.556 5  -9915227.272 5
  20259934.822    -4532872.840 4  -3230113.148 2
  18518652.385   -23822093.122 6 -18490423.744 6
  16601943.650   -37110068.959 7 -27403251.103 8
  17866193.822   -22237312.164 6 -17149985.605 7
 95  2 19 20 50 29.9860000  0  8 28 18 31  2 16 29 19 27
  19628728.057   -17437854.001 5  -1441410.942 5
  16599033.197   -39876939.829 7 -29635012.075 8
  17644717.565   -24376780.413 6 -18606514.776 7
  19059868.275   -13095796.059 5 -10000763.424 5
  20246166.236    -4605218.495 4  -3286486.365 2
  18528847.830   -23768513.040 6 -18448673.104 5
  16593792.619   -37152888.426 7 -27436616.916 8
  17847574.127   -22335180.128 6 -17226246.304 7
 95  2 19 20 50 59.9860000  0  8 28 18 31  2 16 29 19 27
  19632219.049   -17419494.001 5  -1427104.480 5
  16601705.307   -39862898.206 7 -29624070.576 8
  17636507.697   -24419902.093 6 -18640116.077 7
  19039031.244   -13205311.458 5 -10086100.023 5
  20232502.213    -4677058.416 4  -3342465.487 1
  18539101.557   -23714617.610 6 -18406676.744 6
  16585683.463   -37195515.045 7 -27469832.456 8
  17828972.752   -22432915.156 6 -17302403.423 7
 95  2 19 20 51 29.9860000  0  8 28 18 31  2 16 29 19 27
  19635803.791   -17400644.930 5  -1412416.940 5
  16604467.096   -39848385.203 7 -29612761.768 8
  17628414.729   -24462432.712 6
  19018240.463   -13314564.591 5 -10171232.262 5
  20218924.924    -4748397.978 4  -3398054.718 2
  18549421.752   -23660388.083 6 -18364420.054 5
  16577609.994   -37237941.752 7
  17810399.471   -22530520.310 6 -17378459.345 7
 95  2 19 20 51 59.9860000  0  8 28 18 31  2 16 29 19 27
  19639484.979   -17381307.496 5  -1397348.831 5
  16607323.822   -39833380.801 7 -29601070.055 8
  17620433.455   -24504373.958 6 -18705938.298 7
  18997501.002   -13423554.587 5 -10256159.471 5
  20205441.479    -4819236.855 3  -3453253.821 3
  18559802.869   -23605840.452 6 -18321915.491 5
  16569571.127   -37280179.453 7 -27535804.715 8
  17791849.221   -22627998.290 6 -17454416.164 7
 95  2 19 20 52 29.9860000  0  8 28 18 31  2 16 29 19 27
  19643260.885   -17361476.289 5  -1381895.976 5
  16610273.822   -39817877.101 7 -29588989.272 8
  17612573.143   -24545701.924 6 -18738141.906 7
  18976811.955   -13532273.001 5 -10340875.062 5
  20192059.838    -4889564.467 3  -3508054.543 2
  18570244.166   -23550973.657 6 -18279162.216 5
  16561570.838   -37322213.430 7 -27568558.466 8
  17773323.549   -22725363.007 6 -17530284.729 7
 95  2 19 20 52 59.9860000  0  8 28 18 31  2 16 29 19 27
  19647126.557   -17341177.059 5  -1366078.427 5
  16613313.486   -39801902.563 7 -29576541.604 8
  17604823.502   -24586418.811 6 -18769869.339 7
  18956170.088   -13640748.704 5 -10425401.495 6
  20178772.994    -4959395.616 3  -3562468.383 2
  18580737.393   -23495820.654 6 -18236185.922 5
  16553608.111   -37364063.350 7 -27601168.788 8
  17754805.861   -22822653.012 6 -17606095.082 7
 95  2 19 20 53 29.9860000  0  8 28 18 31  2 16 29 19 27
  19651079.900   -17320400.867 5  -1349889.241 5
  16616446.502   -39785430.395 7 -29563706.171 8
  17597195.354   -24626506.141 6 -18801106.220 7
  18935573.783   -13748977.994 5 -10509735.946 5
  20165580.815    -5028707.860 3  -3616477.878 1
  18591289.346   -23440373.299 6 -18192980.268 5
  16545681.080   -37405716.589 7 -27633625.854 8
  17736309.025   -22919864.222 6 -17681844.034 7
 95  2 19 20 53 59.9860000  0  8 28 18 31  2 16 29 19 27
  19655122.963   -17299134.963 5  -1333318.463 5
  16619681.322   -39768436.897 7 -29550464.508 8
  17589690.088   -24665941.975 6 -18831835.438 7
  18915030.283   -13856934.183 5 -10593857.586 5
  20152496.182    -5097470.958 3  -3670059.510 2
  18601901.549   -23384604.567 6 -18149524.202 5
  16537797.697   -37447139.153 7 -27665903.172 8
  17717830.369   -23016971.291 6 -17757511.849 7
 95  2 19 20 54 29.9860000  0  8 28 18 31  2 16 29 19 27
  19659259.236   -17277397.151 5  -1316379.953 5
  16623006.197   -39750957.549 7 -29536844.262 8
  17582305.322   -24704745.997 6 -18862072.331 7
  18894536.752   -13964634.601 6 -10677779.916 5
  20139509.822    -5165696.705 3  -3723222.361 2
  18612578.072   -23328517.905 6 -18105820.381 5
  16529960.994   -37488328.476 7 -27697998.749 8
  17699367.557   -23113997.142 6 -17833116.361 7
 95  2 19 20 54 59.9860000  0  8 28 18 31  2 16 29 19 27
  19663484.525   -17255195.651 5  -1299080.135 5
  16626425.518   -39732990.707 7 -29522844.147 8
  17575039.416   -24742920.280 6 -18891818.519 7
  18874088.502   -14072082.334 5 -10761505.359 6
  20126625.932    -5233392.905 3  -3775972.621 1
  18623307.002   -23272131.153 6 -18061882.732 5
  16522170.361   -37529279.907 7 -27729908.955 8
  17680919.244   -23210937.745 6 -17908654.450 7
 95  2 19 20 55 29.9860000  0  8 28 18 31  2 16 29 19 27
  19667799.565   -17232545.412 5  -1281430.628 5
  16629936.338   -39714553.461 7 -29508477.481 8
  17567890.955   -24780484.289 6 -18921089.166 7
  18853686.244   -14179295.992 5 -10845048.395 6
  20113847.799    -5300578.512 3  -3828325.012 2
  18634090.424   -23215461.863 6 -18017724.913 5
  16514418.846   -37570011.241 7 -27761647.651 8
  17662489.291   -23307793.514 6 -17984126.433 7
 95  2 19 20 55 59.9860000  0  8 28 18 31  2 16 29 19 27
  19672194.432   -17209434.902 5  -1263422.489 5
  16633533.674   -39695642.340 7 -29493741.568 8
  17560863.135   -24817435.822 6 -18949882.554 7
  18833330.908   -14286266.812 6 -10928402.215 6
  20101158.174    -5367248.944 3  -3880275.965 3
  18644924.588   -23158520.830 5 -17973355.354 5
  16506710.119   -37610511.191 7 -27793206.044 8
  17644076.736   -23404543.544 6 -18059516.025 7
 95  2 19 20 56 29.9860000  0  8 28 18 31  2 16 29 19 27
  19676673.049   -17185866.459 5  -1245057.525 5
  16637221.611   -39676261.901 7 -29478639.948 8
  17553944.065   -24853777.985 6 -18978201.112 7
  18813019.002   -14393001.342 6 -11011571.918 6
  20088560.541    -5433417.588 3  -3931835.877 1
  18655806.791   -23101342.671 5 -17928801.029 5
  16499045.963   -37650792.889 7 -27824594.370 8
  17625685.432   -23501191.257 6 -18134825.883 7
 95  2 19 20 56 59.9860000  0  8 28 18 31  2 16 29 19 27
  19681257.908   -17161824.595 5  -1226323.657 5
  16641001.377   -39656395.753 7 -29463159.853 8
  17547147.010   -24889505.297 6 -19006040.565 7
  18792758.307   -14499477.152 5 -11094540.006 6
  20076073.861    -5499079.039 3  -3983000.611 2
  18666733.650   -23043918.108 5 -17884054.689 5
  16491423.049   -37690850.782 7 -27855808.307 8
  17607321.197   -23597697.848 6 -18210025.774 7
 95  2 19 20 57 29.9860000  0  8 28 18 31  2 16 29 19 27
  19685919.299   -17137320.733 5  -1207229.778 5
  16644870.182   -39636069.107 7 -29447320.928 8
  17540457.971   -24924651.226 6 -19033426.992 7
  18772540.557   -14605712.955 6 -11177321.098 6
  20063671.572    -5564242.376 3  -4033777.191 1
  18677704.783   -22986256.283 5 -17839123.478 5
  16483839.565   -37730705.807 7 -27886864.163 8
  17588984.533   -23694059.183 6 -18285112.486 7
 95  2 19 20 57 59.9860000  0  8 28 18 31  2 16 29 19 27
  19690669.135   -17112353.265 5  -1187774.652 5
  16648827.760   -39615276.942 7 -29431119.264 7
  17533881.322   -24959207.129 6 -19060353.660 7
  18752375.424   -14711693.366 6 -11259903.171 6
  20051369.307    -5628903.162 3  -4084162.180 2
  18688724.775   -22928351.317 5 -17794002.800 5
  16476294.260   -37770348.950 7 -27917754.918 8
  17570675.979   -23790268.139 6 -18360080.464 7
 95  2 19 20 58 29.9860000  0  8 28 18 31  2 16 29 19 27
  19695502.182   -17086931.701 5  -1167965.666 5
  16652872.674   -39594016.087 7 -29414552.391 8
  17527421.838   -24993167.524 6 -19086816.299 7
  18732255.815   -14817418.300 5 -11342286.179 6
  20039153.627    -5693069.075 3  -4134161.526 1
  18699792.424   -22870187.312 5 -17748680.265 5
  16468788.697   -37809786.362 7 -27948485.366 8
  17552395.736   -23886337.627 6 -18434939.758 7
 95  2 19 20 58 59.9860000  0  8 28 18 31  2 16 29 19 27
  19700432.752   -17061065.428 5  -1147810.169 5
  16657007.025   -39572289.665 7 -29397622.735 8
  17521071.861   -25026538.403 6 -19112819.567 7
  18712180.963   -14922900.430 5 -11424479.977 6
  20027038.908    -5756744.329 3  -4183778.572 1
  18710910.697   -22811761.251 5 -17703153.546 5
  16461320.775   -37849028.865 7 -27979063.931 8
  17534140.549   -23982273.886 6 -18509695.256 7
 95  2 19 20 59 29.9860000  0  8 28 18 31  2 16 29 19 27
  19705436.197   -17034746.160 5  -1127301.677 5
  16661233.807   -39550077.208 7 -29380314.352 8
  17514839.283   -25059293.551 6 -19138343.061 7
  18692157.143   -15028130.612 5 -11506477.458 6
  20015019.190    -5819918.154 3  -4233004.859 1
  18722084.322   -22753052.558 5 -17657406.595 5
  16453892.518   -37888065.385 7 -28009481.993 8
  17515904.455   -24078094.153 6 -18584360.368 7
 95  2 19 20 59 59.9860000  0  8 28 18 31  2 16 29 19 27
  19710530.330   -17007970.044 5  -1106437.193 5
  16665558.307   -39527354.722 7 -29362608.544 8
  17508723.158   -25091413.818 6 -19163371.832 7
  18672183.424   -15133094.274 6 -11588267.260 6
  20003094.424    -5882580.498 3  -4281832.646 1
  18733311.713   -22694046.694 5 -17611428.066 5
  16446507.486   -37926889.257 7 -28039734.350 8
  17497691.525   -24173806.965 6 -18658941.737 7
 95  2 19 21  0 29.9860000  0  8 28 18 31  2 16 29 19 27
  19715711.650   -16980753.537 5  -1085229.551 5
  16669974.502   -39504142.636 7 -29344521.230 8
  17502730.440   -25122925.756 6 -19187926.585 7
  18652256.463   -15237820.066 6 -11669871.724 6
  19991267.010    -5944733.439 3  -4330263.427 2
  18744593.822   -22634760.946 5 -17565231.473 5
  16439152.885   -37965519.652 7 -28069835.953 8
  17479491.635   -24269441.208 6 -18733461.892 7
 95  2 19 21  0 59.9860000  0  8 28 18 31  2 16 29 19 27
  19720977.275   -16953087.374 5  -1063671.526 5
  16674485.275   -39480447.765 7 -29326057.720 8
  17496849.400   -25153828.795 6 -19212006.871 7
  18632375.096   -15342292.470 6 -11751278.729 6
  19979534.111    -6006353.451 3  -4378279.006 1
  18755929.049   -22575191.484 5 -17518813.785 5
  16431842.807   -38003935.513 7 -28099770.384 8
  17461310.924   -24364976.416 6 -18807904.878 7
 95  2 19 21  1 29.9860000  0  8 28 18 31  2 16 29 19 27
  19726329.658   -16924973.023 5  -1041764.265 5
  16679083.486   -39456277.753 7 -29307223.968 8
  17491083.174   -25184123.966 6 -19235613.507 7
  18612545.393   -15446501.338 6 -11832480.382 6
  19967921.963    -6067425.483 3  -4425867.559 1
  18767325.182   -22515332.107 5 -17472170.208 5
  16424574.525   -38042135.106 7 -28129536.291 8
  17443152.096   -24460411.018 6 -18882269.466 7
 95  2 19 21  1 59.9860000  0  8 28 18 31  2 16 29 19 27
  19731757.291   -16896412.125 5  -1019509.057 4
  16683772.205   -39431648.767 7 -29288032.573 8
  17485432.697   -25213810.244 6 -19258745.671 7
  18592761.893   -15550453.744 6 -11913482.192 6
  19956401.697    -6127937.945 3  -4473020.102 1
  18778764.041   -22455199.865 5 -17425313.987 5
  16417348.572   -38080117.123 7 -28159132.659 8
  17425014.736   -24555722.583 6 -18956538.182 7
 95  2 19 21  2 29.9860000  0  8 28 18 31  2 16 29 19 27
  19737279.775   -16867403.995 5   -996905.356 5
  16688541.205   -39406582.688 7 -29268500.587 8
  17479905.424   -25242875.537 6 -19281393.953 7
  18573032.197   -15654144.842 6 -11994280.381 6
  19944991.385    -6187892.388 4  -4519737.818 2
  18790254.385   -22394809.801 5 -17378256.869 5
  16410160.963   -38117878.512 7 -28188557.113 8
  17406902.768   -24650898.875 6 -19030701.490 7
 95  2 19 21  2 59.9860000  0  8 28 18 31  2 16 29 19 27
  19742883.041   -16837954.189 5   -973957.497 5
  16693395.057   -39381074.471 7 -29248624.076 8
  17474493.760   -25271306.331 6 -19303547.819 7
  18553350.361   -15757563.609 6 -12074866.382 6
  19933690.775    -6247303.313 4  -4566031.982 1
  18801791.861   -22334174.683 5 -17331008.822 5
  16403017.557   -38155420.278 7 -28217810.430 8
  17388818.205   -24745929.673 6 -19104751.429 7
 95  2 19 21  3 29.9860000  0  8 28 18 31  2 16 29 19 27
  19748570.619   -16808072.661 5   -950673.224 5
  16698333.611   -39355121.559 7 -29228401.047 8
  17469202.760   -25299102.931 6 -19325207.506 7
  18533718.377   -15860734.032 6 -12155258.874 6
  19922482.104    -6306193.909 4  -4611920.759 2
  18813376.463   -22273317.664 5 -17283587.847 5
  16395913.049   -38192763.431 7 -28246908.979 8
  17370761.416   -24840827.625 6 -19178697.846 7
 95  2 19 21  3 59.9860000  0  8 28 18 31  2 16 29 19 27
  19754340.760   -16777755.268 4   -927049.329 5
  16703357.221   -39328721.088 7 -29207829.274 8
  17464035.127   -25326252.226 6 -19346362.806 7
  18514135.190   -15963651.640 6 -12235454.354 6
  19911372.916    -6364578.598 4  -4657415.272 2
  18824996.057   -22212248.728 5 -17236001.754 5
  16388846.377   -38229888.353 7 -28275837.479 8
  17352728.416   -24935586.235 6 -19252535.685 7
 95  2 19 21  4 29.9860000  0  8 28 18 31  2 16 29 19 27
  19760190.072   -16747009.845 5   -903091.885 5
  16708466.260   -39301865.320 7 -29186902.729 8
  17458989.432   -25352771.301 6 -19367027.014 7
  18494596.979   -16066309.880 6 -12315447.728 6
  19900354.080    -6422475.820 4  -4702529.981 2
  18836658.861   -22150973.196 5 -17188254.669 5
  16381825.463   -38266789.073 7 -28304591.281 8
  17334721.283   -25030220.314 6 -19326276.485 7
 95  2 19 21  4 59.9860000  0  8 28 18 31  2 16 29 19 27
  19766123.916   -16715832.720 5   -878798.069 5
  16713669.213   -39274535.703 7 -29165606.943 8
  17454063.354   -25378666.098 6 -19387204.766 7
  18475109.580   -16168715.066 6 -12395243.919 6
  19889435.080    -6479879.329 4  -4747259.935 2
  18848360.533   -22089474.673 5 -17140333.837 5
  16374848.932   -38303457.478 7 -28333164.057 8
  17316736.150   -25124734.265 7 -19399923.677 7
 95  2 19 21  5 29.9850000  0  8 28 18 31  2 16 29 19 27
  19772138.247   -16684232.362 5   -854174.457 5
  16718955.763   -39246746.960 7 -29143953.399 8
  17449251.950   -25403948.520 6 -19406905.346 7
  18455668.732   -16270872.626 6 -12474847.145 6
  19878599.474    -6536791.426 4  -4791606.999 3
  18860103.138   -22027751.959 5 -17092238.300 5
  16367911.755   -38339901.724 7 -28361562.162 8
  17298772.232   -25219137.618 6 -19473484.687 7
 95  2 19 21  5 59.9850000  0  8 28 18 31  2 16 29 19 27
  19778234.919   -16652199.136 5   -829213.540 5
  16724334.028   -39218491.973 7 -29121936.552 8
  17444557.372   -25428616.423 6 -19426127.070 7
  18436281.669   -16372762.834 6 -12554242.053 6
  19867870.193    -6593197.352 4  -4835559.614 2
  18871901.013   -21965774.494 5 -17043944.254 5
  16361021.271   -38376105.225 7 -28389772.674 8
  17280829.607   -25313425.313 7 -19546955.582 7
 95  2 19 21  6 29.9850000  0  8 28 18 31  2 16 29 19 27
  19784411.849   -16619739.290 5   -803920.194 5
  16729799.255   -39189767.438 7 -29099553.814 8
  17439979.958   -25452680.282 6 -19444878.113 7
  18416941.982   -16474398.191 6 -12633438.361 6
  19857233.450    -6649084.344 4  -4879107.890 2
  18883742.700   -21903528.781 5 -16995441.171 5
  16354173.841   -38412090.005 7 -28417812.748 8
  17262909.138   -25407597.667 7 -19620336.588 7
 95  2 19 21  6 59.9850000  0  8 28 18 31  2 16 29 19 27
  19790667.380   -16586854.175 5   -778295.448 4
  16735354.028   -39160579.345 7 -29076809.867 8
  17435516.786   -25476135.012 6 -19463154.507 7
  18397649.286   -16575783.021 6 -12712439.464 6
  19846690.185    -6704450.958 4  -4922250.672 2
  18895641.466   -21841006.731 5 -16946722.782 5
  16347364.966   -38447871.016 7 -28445694.047 8
  17245011.786   -25501636.791 7 -19693613.790 7
 95  2 19 21  7 29.9850000  0  8 28 18 31  2 16 29 19 27
  19797006.958   -16553551.323 5   -752345.202 5
  16740992.896   -39130938.748 7 -29053713.322 8
  17431166.997   -25498989.656 6 -19480963.296 7
  18378406.966   -16676898.900 6 -12791230.991 6
  19836258.739    -6759313.787 4  -4965000.879 1
  18907590.208   -21778218.550 5 -16897797.015 5
  16340594.966   -38483447.032 7 -28473415.608 8
  17227146.192   -25595529.969 7 -19766777.263 7
 95  2 19 21  7 59.9850000  0  8 28 18 31  2 16 29 19 27
  19803419.185   -16519832.658 5   -726070.940 4
  16746723.278   -39100841.324 7 -29030260.809 8
  17426928.442   -25521251.296 6 -19498310.006 7
  18359215.591   -16777747.334 6 -12869814.113 6
  19825913.810    -6813669.774 4  -5007356.158 2
  18919586.927   -21715169.026 5 -16848667.599 5
  16333868.130   -38518808.676 7 -28500970.122 8
  17209308.911   -25689267.292 7 -19839819.285 8
 95  2 19 21  8 29.9850000  0  8 28 18 31  2 16 29 19 27
  19809913.864   -16485694.593 5   -699469.894 4
  16752536.294   -39070275.537 7 -29006443.334 8
  17422807.458   -25542907.331 6 -19515184.810 7
  18340078.474   -16878324.537 6 -12948185.893 6
  19815671.052    -6867505.924 4  -5049306.383 1
  18931634.911   -21651869.240 5 -16799343.179 5
  16327183.927   -38553942.892 7 -28528347.428 8
  17191500.552   -25782839.674 7 -19912732.787 8
 95  2 19 21  8 59.9850000  0  8 28 18 31  2 16 29 19 27
  19816494.982   -16451144.604 5   -672547.840 5
  16758438.786   -39039262.025 7 -28982276.980 8
  17418802.380   -25563956.664 6 -19531586.860 7
  18320992.403   -16978616.192 6 -13026335.166 6
  19805523.169    -6920824.415 4  -5090853.240 1
  18943719.099   -21588351.829 5 -16749849.181 4
  16320541.560   -38588842.999 7 -28555542.302 8
  17173727.247   -25876255.458 7 -19985524.270 7
 95  2 19 21  9 29.9850000  0  8 28 18 31  2 16 29 19 27
  19823145.544   -16416183.965 4   -645305.816 4
  16764423.872   -39007811.552 7 -28957770.147 8
  17414913.239   -25584391.249 6 -19547509.894 7
  18301960.263   -17078630.776 6 -13104268.542 6
  19795483.075    -6973602.666 4  -5131979.126 1
  18955846.489   -21524621.411 5 -16700189.203 5
  16313943.692   -38623503.008 7 -28582550.088 8
  17155973.794   -25969541.909 7 -20058214.975 7
 95  2 19 21  9 59.9850000  0  8 28 18 31  2 16 29 19 27
  19829873.232   -16380822.690 5   -617751.605 4
  16770489.497   -38975934.571 7 -28932930.961 8
  17411143.138   -25604204.551 6 -19562948.810 7
  18282972.966   -17178407.040 6 -13182016.228 6
  19785538.505    -7025824.920 4  -5172671.787 2
  18968014.185   -21460678.034 5 -16650363.293 5
  16307391.630   -38657940.266 7 -28609384.301 8
  17138239.552   -26062723.166 7 -20130823.710 8
 95  2 19 21 10 29.9850000  0  8 28 18 31  2 16 29 19 27
  19836676.739   -16345052.171 4   -589878.467 2
  16776636.677   -38943636.216 7 -28907763.431 8
  17407495.458   -25623378.881 6 -19577889.816 7
  18264032.982   -17277942.171 6 -13259576.011 6
  19775715.567    -7077483.940 5  -5212925.517 2
  18980228.786   -21396515.137 5 -16600366.322 5
  16300878.935   -38692154.706 7 -28636044.892 8
  17120530.474   -26155799.528 7 -20203350.712 8
 95  2 19 21 10 59.9850000  0  8 28 18 31  2 16 29 19 27
  19843566.919   -16308873.494 5   -561687.339 4
  16782861.653   -38910927.008 7 -28882275.759 8
  17403968.427   -25641919.168 6 -19592336.784 7
  18245132.419   -17377244.771 6 -13336954.607 6
  19765984.989    -7128594.664 4  -5252752.050 3
  18992476.372   -21332129.906 5 -16550196.107 5
  16294409.513   -38726154.382 7 -28662538.137 8
  17102838.169   -26248767.288 7 -20275793.091 8
 95  2 19 21 11 29.9850000  0  8 28 18 31  2 16 29 19 27
  19850526.607   -16272293.094 4   -533183.155 2
  16789168.192   -38877782.995 7 -28856449.277 8
  17400558.169   -25659841.361 6 -19606302.119 7
  18226279.872   -17476320.857 6 -13414156.699 6
  19756360.435    -7179176.689 5  -5292166.577 2
  19004775.630   -21267510.053 5 -16499843.068 5
  16287983.732   -38759933.184 7 -28688859.274 8
  17085168.232   -26341619.315 7 -20348145.284 8
 95  2 19 21 11 59.9850000  0  8 28 18 31  2 16 29 19 27
  19857565.021   -16235302.245 4   -504359.148 2
  16795561.810   -38844179.553 7 -28830264.802 8
  17397263.591   -25677148.701 6 -19619788.339 7
  18207476.630   -17575141.838 6 -13491160.020 6
  19746833.271    -7229239.200 4  -5331176.275 2
  19017114.903   -21202656.384 5 -16449307.838 5
  16281599.599   -38793471.260 7 -28714992.833 8
  17067529.114   -26434325.569 7 -20420383.890 8
 95  2 19 21 12 29.9850000  0  8 28 18 31  2 16 29 19 27
  19864685.271   -16197888.989 4   -475205.974 2
  16802048.489   -38810098.766 7 -28803708.361 7
  17394085.974   -25693837.124 6 -19632792.302 7
  18188726.021   -17673667.914 6 -13567933.537 6
  19737406.677    -7278790.407 5  -5369787.595 2
  19029499.497   -21137582.646 5 -16398601.127 4
  16275269.677   -38826744.733 7 -28740920.210 8
  17049918.341   -26526857.693 7 -20492486.810 8
 95  2 19 21 12 59.9850000  0  8 28 18 31  2 16 29 19 27
  19871878.302   -16160078.873 3   -445743.572 2
  16808620.067   -38775553.321 7 -28776789.860 7
  17391024.130   -25709932.945 6 -19645334.493 7
  18170034.755   -17771900.807 6 -13644478.603 6
  19728065.349    -7327846.378 4  -5408013.012 1
  19041919.857   -21072310.138 5 -16347739.532 4
  16268985.536   -38859771.271 7 -28766655.164 8
  17032339.786   -26619237.409 7 -20564470.963 8
 95  2 19 21 13 29.9850000  0  8 28 18 31  2 16 29 19 27
  19879147.161   -16121883.469 3   -415980.932 3
  16815281.239   -38740564.513 7 -28749525.871 7
  17388074.442   -25725439.773 6 -19657417.738 7
  18151397.903   -17869842.354 6 -13720796.649 6
  19718832.107    -7376408.881 4  -5445853.877 2
  19054377.872   -21006843.052 5 -16296726.292 4
  16262743.646   -38892563.793 7 -28792207.772 8
  17014785.130   -26711486.606 7 -20636353.415 8
 95  2 19 21 13 59.9850000  0  8 28 18 31  2 16 29 19 27
  19886493.536   -16083297.973 4   -385914.329 3
  16822015.880   -38705163.003 7 -28721940.307 8
  17385239.817   -25740333.973 6 -19669023.607 7
  18132811.911   -17967498.662 6 -13796892.421 6
  19709683.880    -7424455.453 4  -5483292.748 2
  19066872.271   -20941189.991 5 -16245568.167 5
  16256547.333   -38925126.578 7 -28817581.364 8
  16997259.122   -26803593.629 7 -20708125.071 8
 95  2 19 21 14 29.9850000  0  8 28 18 31  2 16 29 19 27
  19893912.536   -16044310.286 4   -355534.340 3
  16828832.419   -38669341.879 7 -28694027.763 7
  17382526.747   -25754590.204 6 -19680132.362 7
  18114287.435   -18064859.664 6 -13872758.094 6
  19700646.653    -7471962.009 5  -5520310.804 2
  19079403.989   -20875326.572 5 -16194246.131 4
  16250394.786   -38957451.369 7 -28842769.505 8
  16979761.200   -26895541.837 7 -20779772.988 8
 95  2 19 21 14 59.9850000  0  8 28 18 31  2 16 29 19 27
  19901404.224   -16004932.398 4   -324850.285 4
  16835725.888   -38633118.337 7 -28665801.657 7
  17379936.192   -25768214.284 6 -19690748.524 7
  18095810.169   -18161945.449 6 -13948409.300 6
  19691708.317    -7518918.167 4  -5556899.997 2
  19091982.216   -20809243.576 5 -16142752.977 4
  16244286.232   -38989553.678 7 -28867784.280 8
  16962290.786   -26987347.914 7 -20851310.144 8
 95  2 19 21 15 29.9850000  0  8 28 18 31  2 16 29 19 27
  19908972.974   -15965160.353 4   -293859.103 4
  16842698.060   -38596483.569 7 -28637255.107 7
  17377463.763   -25781201.288 6 -19700868.263 7
  18077385.200   -18258771.402 6 -14023858.033 6
  19682881.200    -7565322.916 4  -5593059.516 3
  19104600.724   -20742938.874 5 -16091087.058 3
  16238222.044   -39021429.188 7 -28892622.331 8
  16944852.536   -27078997.070 7 -20922725.021 8
 95  2 19 21 15 59.9850000  0  8 28 18 31  2 16 29 19 27
  19916612.372   -15925014.868 4   -262576.936 4
  16849747.294   -38559438.127 7 -28608388.555 7
  17375105.528   -25793584.547 6 -19710517.552 7
  18059008.911   -18355353.950 6 -14099117.102 6
  19674148.614    -7611199.754 4  -5628807.669 2
  19117252.372   -20676433.141 5 -16039264.513 2
  16232196.560   -39053087.283 7 -28917290.970 8
  16927438.099   -27170495.788 7 -20994022.680 8
 95  2 19 21 16 29.9850000  0  8 28 18 31  2 16 29 19 27
  19924321.997   -15884491.862 4   -231000.575 4
  16856877.989   -38521968.377 7 -28579191.371 7
  17372862.669   -25805368.881 6 -19719700.136 7
  18040678.364   -18451676.236 6 -14174173.364 6
  19665517.739    -7656556.126 4  -5664150.271 1
  19129950.896   -20609710.972 5 -15987273.305 2
  16226216.817   -39084522.492 7 -28941785.933 8
  16910053.997   -27261855.270 7 -21065211.845 8
 95  2 19 21 16 59.9850000  0  8 28 18 31  2 16 29 19 27
  19932108.224   -15843587.483 4   -199127.077 4
  16864089.208   -38484072.726 7 -28549662.323 7
  17370733.192   -25816559.322 6 -19728419.948 7
  18022395.692   -18547741.641 6 -14249029.456 6
  19656985.482    -7701398.330 4  -5699092.193 2
  19142688.958   -20542777.078 5 -15935117.097 4
  16220277.950   -39115725.048 7 -28966099.606 8
  16892696.271   -27353070.247 7 -21136288.407 8
 95  2 19 21 17 29.9850000  0  8 28 18 31  2 16 29 19 27
  19939966.482   -15802306.387 5   -166960.008 5
  16871381.708   -38445751.727 7 -28519801.832 7
  17368716.966   -25827160.388 6 -19736680.510 7
  18004164.442   -18643546.726 6 -14323682.712 6
  19648541.333    -7745748.196 4  -5733650.527 2
  19155461.224   -20475643.403 5 -15882805.230 2
  16214385.708   -39146687.520 7 -28990226.197 8
  16875368.122   -27444128.673 7 -21207242.987 8
 95  2 19 21 17 59.9850000  0  8 28 18 31  2 16 29 19 27
  19947889.880   -15760653.027 5   -134502.856 5
  16878750.786   -38407022.933 7 -28489623.576 7
  17366812.989   -25837169.174 6 -19744479.553 7
  17985985.482   -18739085.008 6 -14398128.056 6
  19640196.950    -7789601.765 4  -5767822.134 2
  19168275.630   -20408318.112 5 -15830344.081 4
  16208540.599   -39177397.256 7 -29014155.847 8
  16858071.263   -27535029.579 7 -21278074.826 8
 95  2 19 21 18 29.9850000  0  8 28 18 31  2 16 29 19 27
  19955883.825   -15718623.232 5   -101752.384 5
  16886199.372   -38367879.594 7 -28459122.312 7
  17365023.685   -25846569.462 6 -19751804.441 7
  17967853.341   -18834360.649 6 -14472368.755 6
  19631949.036    -7832944.193 4  -5801595.427 2
  19181120.974   -20340804.848 5 -15777736.458 4
  16202746.817   -39207852.873 7 -29037887.491 8
  16840804.263   -27625772.103 7 -21348783.247 8
 95  2 19 21 18 59.9850000  0  8 28 18 31  2 16 29 19 27
  19963955.005   -15676217.419 5    -68708.918 5
  16893729.505   -38328314.015 7 -28428292.017 7
  17363352.028   -25855361.997 6 -19758655.744 7
  17949774.544   -18929378.274 6 -14546408.409 6
  19623801.935    -7875768.113 4  -5834964.709 1
  19194005.466   -20273109.115 5 -15724986.646 5
  16196999.778   -39238053.530 7 -29061420.464 8
  16823567.489   -27716346.141 7 -21419360.387 8
 95  2 19 21 19 29.9850000  0  8 28 18 31  2 16 29 19 27
  19972094.724   -15633445.325 5    -35380.051 5
  16901336.849   -38288330.843 7 -28397136.324 7
  17361792.732   -25863553.950 6 -19765039.059 7
  17931741.817   -19024139.690 6 -14620248.411 6
  19615753.825    -7918078.418 4  -5867933.759 2
  19206918.724   -20205232.747 5 -15672096.063 5
  16191297.974   -39268008.502 7 -29084761.992 8
  16806360.239   -27806765.032 7 -21489816.630 8
 95  2 19 21 19 59.9850000  0  8 28 18 31  2 16 29 19 27
  19980303.466   -15590312.395 4     -1769.997 4
  16909023.974   -38247933.524 7 -28365657.927 7
  17360343.935   -25871152.406 6 -19770959.927 7
  17913754.810   -19118655.769 6 -14693897.250 6
  19607799.583    -7959870.228 5  -5900498.769 2
  19219869.778   -20137187.590 5 -15619073.989 4
  16185644.622   -39297727.442 7 -29107919.600 8
  16789180.817   -27897049.173 7 -21560167.877 8
 95  2 19 21 20 29.9850000  0  8 28 18 31  2 16 29 19 27
  19988581.841   -15546814.694 4     32124.307 4
  16916793.411   -38207108.154 7 -28333845.988 7
  17359012.982   -25878155.785 6 -19776417.081 7
  17895817.802   -19212911.082 6 -14767342.891 6
  19599943.419    -8001140.350 5  -5932657.252 3
  19232849.442   -20068967.677 5 -15565915.710 3
  16180030.200   -39327221.076 7 -29130901.638 8
  16772026.732   -27987193.744 7 -21630410.372 8
 95  2 19 21 20 59.9850000  0  8 28 18 31  2 16 29 19 27
  19996927.099   -15502950.738 3     66303.970 3
  16924643.372   -38165858.067 7 -28301703.089 7
  17357791.419   -25884561.259 6 -19781408.339 7
  17877937.599   -19306890.627 6 -14840573.658 6
  19592190.919    -8041884.977 4  -5964406.291 2
  19245868.685   -20000558.805 5 -15512610.216 4
  16174463.739   -39356473.010 7 -29153695.344 8
  16754902.466   -28077175.920 7 -21700526.318 8
 95  2 19 21 21 29.9850000  0  8 28 18 31  2 16 29 19 27
  20005343.669   -15458728.992 3    100762.430 4
  16932570.153   -38124197.468 7 -28269240.313 7
  17356689.841   -25890362.421 6 -19785928.706 7
  17860103.060   -19400596.452 6 -14913591.134 6
  19584537.232    -8082109.380 4  -5995749.979 2
  19258921.310   -19931962.771 5 -15459158.868 4
  16168946.364   -39385470.459 7 -29176290.750 8
  16737813.982   -28166985.605 7 -21770507.856 8
 95  2 19 21 21 59.9850000  0  8 28 18 31  2 16 29 19 27
  20013828.778   -15414152.459 3    135497.342 4
  16940574.091   -38082136.026 7 -28236465.193 7
  17355703.317   -25895551.780 6 -19789972.342 7
  17842326.552   -19494026.026 6 -14986393.355 6
  19576983.903    -8121812.186 4  -6026687.184 2
  19272009.286   -19863183.471 5 -15405564.714 3
  16163477.653   -39414207.899 7 -29198683.545 8
  16720756.528   -28256604.205 7 -21840340.502 8
 95  2 19 21 22 29.9850000  0  8 28 18 31  2 16 29 19 27
  20022374.888   -15369229.228 3    170502.431 4
  16948653.114   -38039688.511 7 -28203389.235 7
  17354827.653   -25900141.837 6 -19793548.994 7
  17824595.349   -19587178.677 6 -15058979.779 6
  19569526.513    -8161002.693 5  -6057225.188 2
  19285135.747   -19794208.714 5 -15351818.236 2
  16158059.153   -39442683.837 7 -29220872.573 8
  16703742.357   -28346032.353 7 -21910024.734 8
 95  2 19 21 22 59.9850000  0  8 28 18 31  2 16 29 19 27
  20030992.208   -15323962.295 3    205775.324 2
  16956801.286   -37996867.327 7 -28170022.103 7
  17354069.435   -25904128.388 6 -19796655.384 7
  17806922.521   -19680065.215 6 -15131358.852 6
  19562164.825    -8199697.165 4  -6087376.687 2
  19298299.349   -19725047.241 5 -15297926.259 3
  16152691.872   -39470887.061 7 -29242849.096 8
  16686760.091   -28435265.626 7 -21979557.120 8
 95  2 19 21 23 29.9850000  0  8 28 18 31  2 16 29 19 27
  20039662.982   -15278365.477 3    241305.274 4
  16965019.638   -37953681.348 7 -28136370.720 7
  17353423.755   -25907530.253 6 -19799306.173 7
  17789293.911   -19772701.080 6 -15203542.595 6
  19554887.630    -8237913.535 5  -6117155.634 1
  19311485.122   -19655743.490 5 -15243923.449 2
  16147371.903   -39498843.001 7 -29264632.931 8
  16669811.458   -28524334.557 7 -22048961.439 8
 95  2 19 21 23 59.9850000  0  8 28 18 31  2 16 29 19 27
  20048411.435   -15232420.042 3    277106.846 1
  16973311.755   -37910102.986 6 -28102413.587 7
  17352886.716   -25910344.877 6 -19801499.372 7
  17771717.505   -19865061.204 6 -15275511.475 6
  19547711.224    -8275628.054 4  -6146543.543 1
  19324702.982   -19586288.177 4 -15189802.515 2
  16142100.224   -39526558.441 7 -29286229.352 8
  16652893.232   -28613242.289 7 -22118240.152 8
 95  2 19 21 24 29.9850000  0  8 28 18 31  2 16 29 19 27
  20057218.841   -15186116.095 3    313187.797 2
  16981681.724   -37866115.210 6 -28068137.427 7
  17352466.021   -25912567.030 6 -19803230.902 7
  17754194.021   -19957141.113 6 -15347262.002 6
  19540634.083    -8312815.834 5  -6175521.027 1
  19337949.630   -19516675.040 4 -15135558.637 3
  16136868.107   -39554042.344 7 -29307645.371 8
  16636007.825   -28701988.139 7 -22187392.726 8
 95  2 19 21 24 59.9850000  0  8 28 18 31  2 16 29 19 27
  20066090.263   -15139475.449 2    349531.078 2
  16990126.817   -37821734.551 6 -28033555.120 7
  17352149.622   -25914209.977 6 -19804511.107 7
  17736721.021   -20048963.648 6 -15418811.979 7
  19533654.028    -8349490.820 5  -6204098.887 2
  19351217.810   -19446938.728 3 -15081218.753 1
  16131677.927   -39581325.887 7 -29328905.254 8
  16619147.185   -28790582.591 7 -22256427.324 8
 95  2 19 21 25 29.9850000  0  8 28 18 31  2 16 29 19 27
  20075031.138   -15092500.676 2    386134.757 1
  16998650.177   -37776952.464 6 -27998660.020 7
  17351944.185   -25915295.317 6 -19805356.809 7
  17719298.982   -20140525.531 6 -15490158.851 7
  19526779.849    -8385641.920 5  -6232268.573 2
  19364518.653   -19377062.469 3 -15026769.812 2
  16126521.107   -39608423.272 7 -29350020.088 8
  16602315.278   -28879035.583 7 -22325351.684 8
 95  2 19 21 25 59.9850000  0  8 28 18 31  2 16 29 19 27
  20084035.802   -15045200.511 3    422991.977 1
  17007242.388   -37731795.029 6 -27963472.431 7
  17351845.036   -25915819.553 6
  17701922.661   -20231840.581 6 -15561313.381 6
  19519997.271    -8421279.978 5  -6260038.449 1
  19377844.708   -19307022.240 3 -14972193.165 3
  16121398.817   -39635331.828 7 -29370987.775 8
  16585510.177   -28967344.099 7 -22394163.464 8
 95  2 19 21 26 29.9850000  0  8 28 18 31  2 16 29 19 27
  20093101.075   -14997572.569 3    460104.614 2
  17015906.146   -37686266.290 6 -27927995.521 7
  17351855.247   -25915762.666 6
  17684592.880   -20322903.670 6 -15632271.581 7
  19513305.653    -8456412.840 4  -6287414.680 1
  19391204.653   -19236815.658 4 -14917486.850 2
  16116319.794   -39662023.668 7 -29391786.593 8
  16568739.263   -29055488.152 7 -22462847.095 8
 95  2 19 21 26 59.9840000  0  8 28 18 31  2 16 29 19 27
  20102219.524   -14949622.280 3    497468.414 1
  17024638.477   -37640372.322 6 -27892234.017 7
  17351975.266   -25915122.766 6 -19805222.290 7
  17667313.367   -20413703.124 6 -15703024.353 7
  19506716.906    -8491063.533 4  -6314415.219 1
  19404595.313   -19166448.193 3 -14862655.137 1
  16111288.000   -39688471.845 7 -29412395.547 8
  16551995.102   -29143466.305 7 -22531401.455 8
 95  2 19 21 27 29.9840000  0  8 28 18 31  2 16 29 19 27
  20111413.117   -14901339.815 4    535091.049 2
  17033445.649   -37594099.027 6 -27856176.931 7
  17352214.602   -25913881.738 6 -19804255.227 7
  17650089.399   -20504231.929 6 -15773566.233 7
  19500215.719    -8525228.589 5  -6341037.312 1
  19418020.383   -19095908.609 4 -14807689.368 1
  16106304.305   -39714656.442 7 -29432799.116 8
  16535283.750   -29231278.054 7 -22599826.148 8
 95  2 19 21 27 59.9840000  0  8 28 18 31  2 16 29 19 27
  20120659.750   -14852734.309 4    572965.424 1
  17042321.008   -37547456.926 6 -27819832.465 7
  17352568.336   -25912020.215 6 -19802804.664 7
  17632914.070   -20594488.187 6 -15843895.737 7
  19493807.117    -8558905.076 5  -6367278.713 2
  19431470.719   -19025221.383 5 -14752608.483 2
  16101375.024   -39740556.941 7 -29452981.307 8
  16518607.289   -29318921.477 7 -22668119.676 8
 95  2 19 21 28 29.9840000  0  7 18 31  2 16 29 19 27
  17051273.383   -37500414.743 6 -27783176.246 7
  17353036.586   -25909543.617 6 -19800874.821 7
  17615791.375   -20684453.754 6 -15913998.724 7
  19487494.641    -8592071.999 4  -6393123.058 1
  19444949.406   -18954392.380 5 -14697417.149 3
  16096503.664   -39766165.344 7 -29472935.894 8
  16501963.352   -29406378.464 7 -22736267.941 8
 95  2 19 21 28 59.9840000  0  7 18 31  2 16 29 19 27
  17060299.156   -37452972.162 6 -27746208.032 7
  17353624.555   -25906472.305 6 -19798481.564 7
  17598725.375   -20774152.024 6 -15983893.432 7
  19481280.883    -8624731.904 4  -6418572.352 1
  19458453.734   -18883423.453 5 -14642116.825 2
  16091681.492   -39791499.384 7 -29492676.694 8
  16485356.867   -29493644.816 7 -22804267.658 8
 95  2 19 21 29 29.9840000  0  7 18 31  2 16 29 19 27
  17069409.141   -37405117.341 6 -27708918.591 7
  17354320.070   -25902808.820 6 -19795626.888 7
  17581704.914   -20863581.916 6 -16053579.011 7
  19475166.266    -8656862.373 4  -6443609.057 1
  19471987.641   -18812308.368 4 -14586702.577 4
  16086913.305   -39816562.973 7 -29512206.743 8
  16468793.281   -29580698.485 7 -22872101.648 8
 95  2 19 21 29 59.9840000  0  7 18 31  2 16 29 19 27
  17078589.586   -37356867.472 6 -27671321.315 7
  17355124.406   -25898579.101 6 -19792330.988 7
  17564736.297   -20952762.764 6 -16123070.524 7
  19469151.820    -8688469.206 4  -6468237.766 3
  19485542.844   -18741067.040 4 -14531189.963 4
  16082192.914   -39841367.287 7 -29531534.767 8
  16452264.649   -29667544.932 7 -22939774.175 8
 95  2 19 21 30 29.9840000  0  7 18 31  2 16 29 19 27
  17087846.164   -37308221.284 6 -27633415.229 7
  17356037.555   -25893785.087 6 -19788595.382 7
  17547811.305   -21041689.516 6 -16192364.043 7
  19463240.352    -8719550.316 3  -6492456.789 2
  19499129.781   -18669683.413 4 -14475566.504 3
  16077521.313   -39865917.993 7 -29550665.173 8
  16435782.188   -29754166.558 7 -23007271.511 8
 95  2 19 21 30 59.9840000  0  7 18 31  2 16 29 19 27
  17097172.664   -37259213.857 6 -27595227.655 7
  17357055.328   -25888436.058 6 -19784427.303 7
  17530939.547   -21130367.697 6 -16261463.871 7
  19457421.117    -8750122.493 3  -6516279.264 1
  19512731.281   -18598166.501 4 -14419839.162 3
  16072897.024   -39890218.579 7 -29569600.687 8
  16419335.742   -29840591.421 7 -23074615.544 8
 95  2 19 21 31 29.9840000  0  7 18 31  2 16 29 19 27
  17106562.242   -37209871.188 6 -27556778.853 7
  17358176.766   -25882541.719 6 -19779834.309 6
  17514109.797   -21218787.972 6 -16330362.727 7
  19451694.313    -8780190.476 3  -6539708.849 1
  19526370.992   -18526525.086 3 -14364014.775 2
  16068319.063   -39914269.583 7 -29588341.717 8
  16402920.555   -29926858.675 7 -23141836.751 8
 95  2 19 21 31 59.9840000  0  7 18 31  2 16 29 19 27
  17116013.305   -37160209.844 6 -27518081.734 7
  17359405.813   -25876094.502 6 -19774810.505 7
  17497338.922   -21306937.831 6 -16399050.865 7
  19446069.625    -8809761.007 4  -6562750.838 1
  19540026.055   -18454743.940 3 -14308081.527 2
  16063791.219   -39938063.247 7 -29606882.223 8
  16386532.742   -30012976.907 7 -23208941.838 9
 95  2 19 21 32 29.9840000  0  7 18 31  2 16 29 19 27
  17125524.156   -37110227.906 6 -27479134.806 7
  17360736.711   -25869091.344 6 -19769353.502 6
  17480618.680   -21394808.340 6 -16467521.322 7
  19440533.891    -8838852.557 4  -6585419.554 2
  19553719.133   -18382808.545 3 -14252028.119 1
  16059311.469   -39961610.380 7 -29625230.624 8
  16370173.164   -30098942.839 7 -23275928.249 9
 95  2 19 21 32 59.9840000  0  7 18 31  2 16 29 19 27
  17135098.539   -37059910.995 6 -27439926.859 7
  17362175.922   -25861526.697 6 -19763458.978 6
  17463950.289   -21482395.758 6 -16535771.201 7
  19435091.016    -8867459.077 4  -6607710.323 2
  19567441.461   -18310718.136 3 -14195853.902 1
  16054878.227   -39984905.892 7 -29643382.965 8
  16353845.594   -30184753.182 7 -23342793.421 9
 95  2 19 21 33 29.9840000  0  7 18 31  2 16 29 19 27
  17144738.289   -37009247.350 6 -27400448.721 7
  17363729.281   -25853379.335 6 -19757110.394 6
  17447334.359   -21569703.190 6 -16603802.900 7
  19429739.008    -8895580.430 4  -6629623.064 2
  19581182.774   -18238476.315 2 -14139561.671 2
  16050490.578   -40007954.551 7 -29661342.950 8
  16337550.070   -30270382.286 7 -23409517.370 9
 95  2 19 21 33 59.9840000  0  7 18 31  2 16 29 19 27
  17154450.406   -36958222.453 6 -27360689.096 7
  17365390.063   -25844633.647 6 -19750295.583 7
  17430772.188   -21656738.968 6 -16671622.929 7
  19424480.617    -8923215.505 4  -6651156.897 1
  19594956.547   -18166092.183 3
  16046153.578   -40030749.051 7 -29679104.897 8
  16321296.610   -30355787.122 7 -23476066.569 8
 95  2 19 21 34 29.9840000  0  7 18 31  2 16 29 19 27
  17164228.664   -36906827.743 6 -27320641.310 7
  17367169.274   -25835294.852 6 -19743018.612 6
  17414257.305   -21743518.157 6 -16739243.017 7
  19419310.305    -8950361.130 4  -6672309.319 2
  19608752.047   -18093601.318 3
  16041864.211   -40053291.740 7 -29696670.624 8
  16305086.742   -30440979.922 7 -23542450.534 9
 95  2 19 21 34 59.9840000  0  7 18 31  2 16 29 19 27
  17174077.367   -36855077.452 6 -27280316.446 7
  17369057.734   -25825376.527 6 -19735290.064 6
  17397793.758   -21830042.281 6 -16806664.360 7
  19414239.227    -8977013.505 4  -6693077.434 2
  19622564.195   -18021024.422 3        -0.04411
  16037621.766   -40075575.452 7 -29714034.555 8
  16288912.406   -30525979.839 7 -23608684.211 9
 95  2 19 21 35 29.9840000  0  7 18 31  2 16 29 19 27
  17183991.875   -36802975.125 6 -27239717.278 6
  17371053.234   -25814890.506 6 -19727119.157 6
  17381378.727   -21916308.580 6 -16873884.794 7
  19409262.867    -9003179.297 4  -6713466.345 1
  19636388.641   -17948365.347 3     56617.362 1
  16033435.617   -40097591.371 7 -29731189.813 8
  16272774.008   -30610785.621 7 -23674766.613 9
 95  2 19 21 35 59.9840000  0  7 18 31  2 16 29 19 27
  17193976.492   -36750506.071 6 -27198832.331 6
  17373151.078   -25803850.526 6 -19718516.582 6
  17365012.789   -22002311.293 6 -16940899.844 7
  19404376.602    -9028855.752 3  -6733473.978 1
  19650236.094   -17875614.460 4    113306.243 1
  16029299.086   -40119322.972 7 -29748123.526 8
  16256668.984   -30695403.529 7 -23740702.616 9
 95  2 19 21 36 29.9840000  0  7 18 31  2 16 29 19 27
  17204030.578   -36697672.604 6 -27157663.437 6
  17375357.859   -25792258.648 6 -19709483.962 6
  17348700.633   -22088030.688 6 -17007694.126 7
  19399584.992    -9054034.022 3  -6753093.410 1
  19664096.813   -17802743.981 3    170088.326 1
  16025216.813   -40140769.003 7 -29764834.706 8
  16240600.836   -30779847.893 7 -23806503.392 8
 95  2 19 21 36 59.9840000  0  7 18 31  2 16 29 19 27
  17214149.258   -36644498.578 6 -27116229.166 6
  17377665.984   -25780125.700 6 -19700029.727 6
  17332442.445          -0.54316
  19394888.742    -9078729.449 3  -6772336.582 2
  19677992.235   -17729739.794 4    226974.618 3
  16021189.031   -40161942.759 7 -29781333.729 8
  16224567.125   -30864108.367 7 -23872160.878 8
 95  2 19 21 37 29.9840000  0  7 18 31  2 16 29 19 27
  17224332.375   -36590984.343 6 -27074529.801 6
  17380080.094   -25767438.543 6 -19690143.641 6
  17316232.297      -85175.027 6        -0.44817
  19390280.664    -9102939.097 3  -6791201.274 2
  19691916.906   -17656596.700 3    283969.128 1
  16017214.414   -40182840.202 7 -29797617.450 8
  16208571.969   -30948167.706 7 -23937661.634 8
 95  2 19 21 37 59.9840000  0  7 18 31  2 16 29 19 27
  17234577.414   -36537145.835 6 -27032577.758 6
  17382603.406   -25754186.613 6 -19679817.477 6
  17300075.430     -170080.639 6    -66160.624 7
  19385767.961    -9126652.680 3  -6809679.390 4
  19705854.078   -17583325.172 4    341063.690 2
  16013285.375   -40203473.510 7 -29813695.351 8
  16192612.617   -31032025.821 7 -24003005.598 8
 95  2 19 21 38 29.9840000  0  7 18 31  2 16 29 19 27
  17244882.320   -36482994.912 6 -26990382.268 6
  17385233.899   -25740364.759 6 -19669047.211 6
  17283971.906     -254706.775 6   -132103.030 7
  19381347.891    -9149864.580 3  -6827766.617 2
  19719818.516   -17509938.139 4    398248.277 2
  16009410.617   -40223845.071 7 -29829569.289 8
  16176697.883   -31115661.628 7 -24068176.331 8
 95  2 19 21 38 59.9840000  0  7 18 31  2 16 29 19 27
  17255245.094   -36428533.831 6 -26947945.094 6
  17387972.844   -25725980.268 6 -19657838.526 6
  17267917.641     -339065.753 6   -197837.258 7
  19377026.344    -9172589.271 3  -6845474.173 2
  19733797.742   -17436475.988 3    455491.399 1
  16005581.445   -40243953.314 7 -29845238.049 8
  16160829.313   -31199061.158 7 -24133162.950 8
 95  2 19 21 39 29.9840000  0  7 18 31  2 16 29 19 27
  17265671.391   -36373746.986 6 -26905254.091 6
  17390814.024   -25711030.258 6 -19646189.168 6
  17251917.359     -423162.273 6   -263366.977 7
  19372795.469    -9194821.842 3  -6862798.243 2
  19747788.609   -17362961.715 3    512775.095 2
  16001807.461   -40263791.632 7 -29860696.470 8
  16145000.594   -31282227.263 7 -24197967.678 9
 95  2 19 21 39 59.9840000  0  7 18 31  2 16 29 19 27
  17276159.774   -36318623.334 6 -26862300.628 6
  17393765.172   -25695531.897 6 -19634112.528 6
  17235959.149     -507003.444 6   -328697.719 7
  19368649.649    -9216571.152 3  -6879745.768 1
  19761789.086   -17289405.418 3    570091.613 1
  15998083.070   -40283370.296 7 -29875952.564 8
  16129219.461   -31365170.523 7 -24262598.757 9
 95  2 19 21 40 29.9840000  0  7 18 31  2 16 29 19 27
  17286720.453   -36263133.651 6 -26819061.958 6
  17396818.844   -25679475.707 6 -19621601.212 6
  17220057.172     -590578.888 6   -393821.404 7
  19364606.844    -9237836.104 3  -6896315.844 2
  19775797.352   -17215772.577 3    627467.731 1
  15994412.203   -40302654.336 7 -29890979.080 8
  16113478.922   -31447875.697 7 -24327044.326 9
 95  2 19 21 40 59.9840000  0  7 18 31  2 16 29 19 27
  17297345.734   -36207299.897 6 -26775555.190 6
  17399978.969   -25662881.172 6 -19608670.404 6
  17204198.203     -673917.765 6   -458760.759 7
  19360650.609    -9258633.054 3  -6912521.293 2
  19789826.188   -17142064.254 2    684902.666 1
  15990795.633   -40321660.416 7 -29905789.006 8
  16097779.899   -31530380.163 7 -24391333.502 8
 95  2 19 21 41 29.9840000  0  7 18 31  2 16 29 19 27
  17308033.250   -36151136.721 6 -26731791.703 6
  17403232.492   -25645762.650 6 -19595331.291 6
  17188381.469     -757038.196 6   -523529.900 7
  19356780.930    -9278973.383 3  -6928370.883 3
  19803869.008   -17068260.065 3    742412.229 2
  15987228.149   -40340409.939 7 -29920399.016 8
  16082113.672   -31612710.512 7 -24455487.002 8
 95  2 19 21 41 59.9840000  0  7 18 31  2 16 29 19 27
  17318784.547   -36094639.914 6 -26687768.258 6
  17406595.594   -25628110.655 6 -19581576.498 6
  17172609.766     -839911.676 6   -588106.604 7
  19352998.703    -9298852.477 3  -6943861.089 2
  19817938.578   -16994319.851 3    800027.857 1
  15983711.766   -40358885.614 7 -29934795.635 8
  16066481.883   -31694855.924 7 -24519496.393 8
 95  2 19 21 42 29.9840000  0  7 18 31  2 16 29 19 27
  17329593.688   -36037834.637 6 -26643504.446 6
  17410055.758   -25609921.218 6 -19567402.918 6
  17156887.469     -922533.636 6   -652487.320 7
  19349304.883    -9318258.758 3  -6958982.867 2
  19832037.789   -16920232.578 3    857758.131 1
  15980248.344   -40377079.415 7 -29948972.615 8
  16050886.313   -31776800.100 7 -24583348.978 9
 95  2 19 21 42 59.9840000  0  7 18 31  2 16 29 19 27
  17340460.274   -35980735.221 6 -26599011.438 6
  17413615.578   -25591207.452 6 -19552820.762 6
  17141211.844    -1004899.235 6   -716668.265 7
  19345702.524    -9337185.499 3  -6973730.957 2
  19846162.375   -16846029.154 3    915578.838 1
  15976835.852   -40395016.764 7 -29962949.756 8
  16035330.984   -31858555.017 7 -24647054.090 8
 95  2 19 21 43 29.9840000  0  7  7 18 31  2 16 19 27
  19687169.875          -0.71113
  17351383.039   -35923331.911 6 -26554281.629 6
  17417273.883   -25571981.842 6 -19537839.770 6
  17125591.461    -1087004.011 6   -780645.977 7
  19342194.813    -9355634.487 4  -6988106.817 1
  15973470.797   -40412700.546 7 -29976729.320 8
  16019808.078   -31940113.164 7 -24710605.870 8
 95  2 19 21 43 59.9840000  0  7  7 18 31  2 16 19 27
  19659558.945     -145109.462 3        -0.22411
  17362362.242   -35865629.992 6 -26509319.142 6
  17421031.578   -25552239.619 6 -19522456.219 6
  17110022.047    -1168819.138 6   -844397.986 7
  19338776.914    -9373593.155 4  -7002100.586 3
  15970156.625   -40430115.159 7 -29990299.140 8
  16004330.086   -32021452.437 7 -24773987.105 9
 95  2 19 21 44 29.9840000  0  7  7 18 31  2 16 19 27
  19631952.695     -290199.548 2   -113057.187 1
  17373400.047   -35807634.092 6 -26464127.578 6
  17424888.274   -25531975.156 6 -19506665.743 6
  17094507.242    -1250333.888 6   -907915.933 7
  19335452.453    -9391048.631 3
  15966892.211   -40447266.003 7
  15988898.305   -32102555.428 7 -24837184.213 9
 95  2 19 21 44 59.9840000  0  7  7 18 31  2 16 19 27
  19604349.500     -435276.656 2   -226104.090 2
  17384489.274   -35749353.602 6 -26418714.245 6
  17428841.203   -25511211.643 6 -19490486.382 6
  17079049.172    -1331570.332 6   -971217.016 7
  19332224.781    -9408039.001 3
  15963676.727   -40464174.725 7
  15973505.422   -32183447.329 7 -24900216.839 9
 95  2 19 21 45 29.9840000  0  7  7 18 31  2 16 19 27
  19576739.664     -580328.512 3   -339131.270 2
  17395631.586   -35690805.759 6 -26373092.594 6
  17432885.070   -25489951.673 6 -19473920.186 6
  17063640.734    -1412552.284 6  -1034319.790 7
  19329064.383    -9424602.798 3
  15960504.852   -40480838.723 7
  15958152.570   -32264118.109 7 -24963077.164 9
 95  2 19 21 45 59.9840000  0  7  7 18 31  2 16 19 27
  19549142.797     -725355.004 3   -452138.765 2
  17406820.609   -35632007.691 6 -26327275.957 6
  17437029.734   -25468177.217 6 -19456953.086 6
  17048278.672    -1493285.332 6  -1097228.621 7
  19325994.649    -9440749.058 4        -0.41012
  15957383.625   -40497246.938 7 -30042609.589 8
  15942845.555   -32344559.800 7 -25025758.972 8
 95  2 19 21 46 29.9840000  0  7  7 18 31  2 16 19 27
  19521543.344     -870355.354 3   -565125.878 3
  17418060.250   -35572941.189 6 -26281250.163 6
  17441271.375   -25445879.105 6 -19439577.947 6
  17032956.125    -1573792.235 6  -1159961.223 7
  19323004.305    -9456484.286 4    -12261.630 2
  15954310.688   -40513385.236 7 -30055184.880 8
  15927585.313   -32424766.064 7 -25088257.333 8
 95  2 19 21 46 59.9840000  0  7  7 18 31  2 16 19 27
  19493958.641    -1015323.895 3   -678088.167 2
  17429356.719   -35513572.234 6 -26234988.684 6
  17445619.250   -25423033.565 6 -19421776.240 6
  17017679.078    -1654062.116 6  -1222509.139 8
  19320087.656    -9471794.933 3    -24192.029 2
  15951296.516   -40529213.735 7 -30067518.776 8
  15912370.531   -32504718.722 7 -25150558.079 9
 95  2 19 21 47 29.9840000  0  7  7 18 31  2 16 19 27
  19466376.274    -1160265.068 3   -791029.159 3
  17440712.984   -35453897.250 6 -26188488.741 6
  17450071.352   -25399634.894 6 -19403543.526 6
  17002455.813    -1734075.435 6  -1284857.122 8
  19317256.602    -9486666.465 3    -35780.275 2
  15948346.672   -40544731.473 7 -30079610.514 8
  15897202.945   -32584420.644 7 -25212663.453 9
 95  2 19 21 47 59.9840000  0  7  7 18 31  2 16 19 27
  19438801.453    -1305176.070 3   -903946.630 4
  17452125.774   -35393915.666 6 -26141749.886 6
  17454625.570   -25375692.210 6 -19384886.903 6
  16987284.500    -1813814.114 6  -1346991.116 7
  19314513.047    -9501081.082 3    -47012.442 3
  15945452.320   -40559944.185 7 -30091464.575 8
  15882080.524   -32663882.093 7 -25274581.436 9
 95  2 19 21 48 29.9830000  0  7  7 18 31  2 16 19 27
  19411233.191    -1450041.383 3  -1016828.515 2
  17463601.347   -35333617.240 6 -26094764.146 6
  17459284.058   -25351226.019 6 -19365822.360 6
  16972164.894    -1893264.997 6
  19311862.034    -9515036.598 4    -57886.863 2
  15942613.628   -40574859.170 7 -30103086.644 8
  15867003.784   -32743107.570 7
 95  2 19 21 48 59.9830000  0  7  7 18 31  2 16 19 27
  19383674.026    -1594879.195 3  -1129688.968 2
  17475133.886   -35273013.205 6 -26047540.271 6
  17464035.605   -25326261.840 6 -19346369.762 6
  16957098.925    -1972429.579 6
  19309292.316    -9528539.631 4    -68408.725 2
  15939826.081   -40589509.096 7 -30114502.169 8
  15851967.433   -32822124.020 7
 95  2 19 21 49 29.9830000  0  7  7 18 31  2 16 19 27
  19356121.105    -1739674.174 4  -1242516.073 2
  17486720.519   -35212119.347 6 -26000090.554 6
  17468876.222   -25300823.073 6 -19326547.366 6
  16942088.269    -2051314.794 6
  19306804.042    -9541597.688 4    -78583.853 3
  15937085.073   -40603908.349 7 -30125722.373 8
  15836968.761   -32900943.055 7
 95  2 19 21 49 59.9830000  0  7  7 18 31  2 16 19 27
  19328578.042    -1884422.586 5  -1355306.888 2
  17498364.300   -35150947.786 6 -25952424.453 6
  17473804.558   -25274912.790 6 -19306357.548 6
  16927124.034    -2129948.546 6
  19304400.308    -9554219.629 4    -88419.135 2
  15934392.972   -40618057.750 7 -30136747.884 8
  15822009.964   -32979556.152 7
 95  2 19 21 50 29.9830000  0  7  7 18 31  2 16 19 27
  19301039.784    -2029135.514 4  -1468070.049 3
  17510054.612   -35089509.886 6 -25904550.808 6
  17478826.800   -25248530.887 6 -19285800.241 6
  16912202.214    -2208351.999 6
  19302083.144    -9566403.949 3    -97913.412 2
  15931745.667   -40631961.303 7 -30147581.827 8
  15807088.901   -33057964.056 7
 95  2 19 21 50 59.9830000  0  7  7 18 31  2 16 19 27
  19273506.753    -2173801.296 3  -1580796.451 2
  17521794.566   -35027811.004 6 -25856473.805 6
  17483941.620   -25221652.343 6 -19264855.930 6
  16897331.519    -2286507.988 6
  19299855.683    -9578130.098 4   -107050.714 2
  15929150.956   -40645601.647 7 -30158210.673 8
  15792213.519   -33136140.837 7
 95  2 19 21 51 29.9830000  0  7  7 18 31  2 16 19 27
  19245989.964    -2318427.974 3  -1693492.362 2
  17533580.026   -34965875.488 6 -25808212.417 6
  17489149.855   -25194275.955 6 -19243523.696 6
  16882503.566    -2364433.724 7
  19297710.862    -9589416.492 4   -115845.307 1
  15926606.480   -40658970.860 7 -30168628.246 8
  15777378.800   -33214085.578 7
 95  2 19 21 51 59.9830000  0  7  7 18 31  2 16 19 27
  19218467.894    -2463015.912 3  -1806158.152 3
  17545412.066   -34903696.966 6 -25759761.671 6
  17494456.558   -25166387.622 6 -19221792.537 6
  16867719.425    -2442117.460 6
  19295642.776    -9600255.175 3   -124291.055 3
  15924117.933   -40672053.930 7 -30178822.847 8
  15762598.683   -33291776.550 7
 95  2 19 21 52 29.9830000  0  7  7 18 31  2 16 19 27
  19190964.644    -2607569.673 3  -1918797.287 1
  17557290.222   -34841278.016 6 -25711123.573 6
  17499858.925   -25138010.008 6 -19199680.124 6
  16852987.511    -2519542.885 6
  19293667.144    -9610649.777 4   -132390.755 2
  15921681.964   -40684851.050 7 -30188794.631 8
  15747860.269   -33369215.419 7
 95  2 19 21 52 59.9830000  0  7  7 18 31  2 16 19 27
  19163462.558    -2752098.087 3  -2031416.673 1
  17569214.198   -34778616.736 6 -25662296.650 6
  17505345.120   -25109174.300 6 -19177210.744 6
  16838301.081    -2596723.978 6
  19291768.105    -9620630.250 3   -140167.759 1
  15919300.745   -40697365.841 7 -30198546.427 8
  15733168.261   -33446418.353 7
 95  2 19 21 53 29.9830000  0  7  7 18 31  2 16 19 27
  19135971.948    -2896579.594 3  -2143999.511 1
  17581192.378   -34715683.727 6 -25613257.982 6
  17510922.112   -25079871.701 6 -19154377.563 6
  16823657.401    -2673662.493 7
  19289945.214    -9630189.185 3   -147616.296 1
  15916977.276   -40709572.022 7 -30208057.743 8
  15718524.175   -33523373.652 7
 95  2 19 21 53 59.9830000  0  7  7 18 31  2 16 19 27
  19108479.987    -3041018.903 3  -2256549.458 3
  17593217.472   -34652492.464 6 -25564018.091 6
  17516581.566   -25050122.621 6 -19131196.477 6
  16809060.792    -2750377.131 7
  19288205.581    -9639334.448 3   -154742.464 1
  15914709.253   -40721492.772 7 -30217346.644 8
  15703926.870   -33600093.074 7
 95  2 19 21 54 29.9830000  0  7  7 18 31  2 16 19 27
  19081007.761    -3185402.295 3  -2369055.840 2
  17605290.628   -34589041.907 6 -25514576.151 6
  17522331.722   -25019912.684 6 -19107656.281 6
  16794502.769    -2826880.518 6
  19286545.933    -9648066.765 4   -161546.901 2
  15912494.644   -40733128.915 7 -30226413.779 8
  15689371.253   -33676578.357 7
 95  2 19 21 54 59.9830000  0  7  7 18 31  2 16 19 27
  19053546.925    -3329712.279 3  -2481504.987 4
  17617414.003   -34525332.332 6 -25464932.371 6
  17528172.456   -24989215.298 6 -19083736.253 6
  16779983.011    -2903179.410 6
  19284960.253    -9656394.741 3   -168036.214 1
  15910336.581   -40744468.789 7 -30235250.045 8
  15674861.191   -33752827.249 7
 95  2 19 21 55 29.9830000  0  7  7 18 31  2 16 19 27
  19026100.316    -3473925.290 3  -2593878.591 3
  17629585.253   -34461368.548 6 -25415090.517 6
  17534112.136   -24958000.554 6 -19059413.092 6
  16765506.128    -2979254.536 6
  19283454.792    -9664306.311 3   -174201.116 2
  15908235.503   -40755512.033 7 -30243855.180 8
  15660397.698   -33828828.062 7
 95  2 19 21 55 59.9830000  0  7  7 18 31  2 16 19 27
  18998676.589    -3618044.884 4  -2706179.403 3
  17641802.769   -34397159.516 6 -25365057.550 6
  17540150.683   -24926265.276 6 -19034684.321 6
  16751072.292    -3055091.774 6
  19282032.972    -9671795.468 3   -180036.843 2
  15906186.034   -40766289.622 7 -30252253.306 8
  15645983.284   -33904582.334 7
 95  2 19 21 56 29.9830000  0  7  7 18 31  2 16 19 27
  18971267.152    -3762079.573 5  -2818414.067 4
  17654069.487   -34332705.615 6 -25314833.780 6
  17546290.159   -24894013.203 6 -19009552.851 6
  16736691.003    -3130671.010 6
  19280685.151    -9678867.551 3   -185547.567 2
  15904185.495   -40776794.912 7 -30260439.247 8
  15631616.581   -33980088.788 7
 95  2 19 21 56 59.9830000  0  7  7 18 31  2 16 19 27
  18943871.284    -3906037.908 4  -2930589.244 3
  17666380.362   -34268015.108 6 -25264425.643 5
  17552519.269   -24861273.467 6 -18984041.393 6
  16722362.448    -3205967.386 6
  19279419.902    -9685521.918 3   -190732.830 1
  15902236.230   -40787034.504 7 -30268418.156 8
  15617293.792   -34055348.095 7
 95  2 19 21 57 29.9830000  0  7  7 18 31  2 16 19 27
  18916494.526    -4049939.478 5  -3042720.179 4
  17678734.151   -34203091.906 6 -25213836.189 6
  17558837.722   -24828067.243 6 -18958166.434 6
  16708083.237    -3280987.015 6
  19278235.089    -9691746.944 3   -195583.501 1
  15900337.769   -40797021.810 7 -30276200.477 8
  15603020.941   -34130358.634 7 -26417290.043 9
 95  2 19 21 57 59.9830000  0  7  7 18 31  2 16 19 27
  18889115.159    -4193794.044 4  -3154814.483 3
  17691131.691   -34137940.780 6 -25163069.121 6
  17565240.480   -24794418.610 6 -18931946.742 6
  16693863.323    -3355738.527 7
  19277134.769    -9697544.435 3   -200101.091 2
  15898488.995   -40806741.426 7 -30283774.210 8
  15588794.042   -34205108.523 7
 95  2 19 21 58 29.9830000  0  7  7 18 31  2 16 19 27
  18861754.612    -4337586.822 4  -3266860.638 1
  17703574.917   -34072554.416 6 -25112118.763 6
  17571727.433   -24760328.965 6 -18905383.400 6
  16679693.183    -3430210.029 7
  19276109.745    -9702911.381 3   -204283.131 2
  15896699.925   -40816139.845 7 -30291097.660 8
  15574623.394   -34279583.875 7
 95  2 19 21 58 59.9830000  0  7  7 18 31  2 16 19 27
  18834400.581    -4481318.125 4  -3378858.888 2
  17716060.308   -34006939.276 6 -25060990.128 6
  17578296.769   -24725807.857 6 -18878483.856 6
  16665566.831    -3504424.403 7
  19275171.386    -9707856.218 3   -208136.256 2
  15894970.714   -40825223.388 7 -30298175.749 8
  15560504.956   -34353784.607 7
 95  2 19 21 59 29.9830000  0  7  7 18 31  2 16 19 27
  18807060.503    -4624975.288 4  -3490799.378 2
  17728591.269   -33941097.894 6 -25009685.213 6
  17584949.941   -24690849.621 6 -18851243.699 6
  16651488.362    -3578400.474 7
  19274303.316    -9712396.476 3   -211674.165 1
  15893300.441   -40833993.110 7 -30305009.299 8
  15546437.284   -34427710.307 7
 95  2 19 21 59 59.9830000  0  7  7 18 31  2 16 19 27
  18779737.089    -4768563.155 4  -3602685.841 3
  17741159.136   -33875051.636 6 -24958220.634 5
  17591679.862   -24655472.572 6 -18823677.189 6
  16637457.183    -3652153.815 7
  19273511.550    -9716571.905 3   -214927.809 2
  15891685.816   -40842480.681 7 -30311622.996 8
  15532415.933   -34501396.254 7
 95  2 19 22  0 29.9830000  0  7  7 18 31  2 16 19 27
  18752435.683    -4912047.800 4  -3714491.862 1
  17753770.191   -33808773.889 6 -24906575.695 6
  17598501.573   -24619637.418 6 -18795753.711 6
  16623470.612    -3725649.661 7
  19272790.378    -9720355.221 3   -217875.871 4
  15890127.214   -40850676.676 7 -30318009.486 8
  15518444.089   -34574818.883 7
 95  2 19 22  0 59.9830000  0  7  7 18 31  2 16 19 27
  18725149.589    -5055429.039 4  -3826217.311 1
  17766427.441   -33742267.238 6 -24854752.377 5
  17605406.292   -24583344.753 6 -18767473.743 6
  16609527.948    -3798911.913 7
  19272140.769    -9723767.459 3   -220534.771 3
  15888614.394   -40858618.244 7 -30324197.720 8
  15504519.761   -34647990.216 7
 95  2 19 22  1 29.9830000  0  7  7 18 31  2 16 19 27
  18697886.448    -5198696.359 4  -3937853.980 2
  17779126.331   -33675530.020 6 -24802749.397 5
  17612402.237   -24546588.047 6 -18738832.166 6
  16595631.886    -3871937.051 7
  19271568.495    -9726803.218 4   -222900.358 1
  15887151.503   -40866313.740 7 -30330194.215 8
  15490639.112   -34720929.359 7
 95  2 19 22  1 59.9830000  0  7  7 18 31  2 16 19 27
  18670644.058    -5341865.927 4  -4049414.454 3
  17791866.269   -33608583.007 6 -24750582.951 5
  17619482.480   -24509376.454 6 -18709836.158 6
  16581780.659    -3944729.420 7
  19271054.581    -9729454.313 3   -224966.181 2
  15885733.456   -40873766.242 7 -30336001.365 8
  15476802.769   -34793640.297 7
 95  2 19 22  2 29.9830000  0  7  7 18 31  2 16 19 27
  18643419.269    -5484936.182 5  -4160897.557 2
  17804644.933   -33541422.496 6 -24698250.122 5
  17626651.909   -24471707.662 6 -18680483.873 6
  16567972.769    -4017295.329 7
  19270632.034    -9731701.014 3   -226716.889 1
  15884366.245   -40880952.432 7 -30341600.991 8
  15463013.331   -34866098.801 7
 95  2 19 22  2 59.9830000  0  7  7 18 31  2 16 19 27
  18616216.456    -5627900.707 5  -4272298.272 3
  17817466.589   -33474052.253 6 -24645753.884 5
  17633905.222   -24433586.387 6 -18650779.002 6
  16554207.456    -4089640.803 7
  19270278.386    -9733548.753 4   -228156.688 3
  15883051.691   -40887857.860 7 -30346981.853 8
  15449272.073   -34938308.010 7
 95  2 19 22  3 29.9830000  0  7  7 18 31  2 16 19 27
  18589023.628    -5770762.390 5  -4383618.864 4
  17830322.659   -33406494.933 6 -24593111.866 5
  17641240.800   -24395032.233 6 -18620736.836 6
  16540486.019    -4161755.956 7        -0.06618
  19270003.167    -9734994.189 3   -229283.029 1
  15881793.206   -40894476.081 7 -30352138.911 8
  15435579.909   -35010251.730 7 -27102920.853 9
 95  2 19 22  3 59.9830000  0  7  7 18 31  2 16 19 27
  18561860.433    -5913519.677 5  -4494858.125 5
  17843216.894   -33338736.056 6 -24540312.802 5
  17648662.308   -24356046.371 6 -18590358.274 6
  16526807.433    -4233633.621 7    -56008.603 7
  19269802.722    -9736040.162 3   -230098.122 2
  15880593.237   -40900778.410 7 -30357049.823 8
  15421947.308   -35081900.791 7 -27158751.286 9
 95  2 19 22  4 29.9830000  0  7  7 18 31  2 16 19 27
  18534714.855    -6056176.164 5  -4606018.813 5
  17856148.308   -33270775.082 6 -24487356.252 5
  17656158.847   -24316643.801 6 -18559654.997 5
  16513171.136    -4305279.429 7   -111836.475 8
  19269677.870    -9736716.525 3   -230625.201 4
  15879453.058   -40906768.548 7 -30361717.477 8
  15408366.198   -35153267.895 7 -27214362.005 9
 95  2 19 22  4 59.9830000  0  7  7 18 31  2 16 19 27
  18507591.386    -6198719.371 5  -4717091.282 4
  17869117.980   -33202622.092 6 -24434250.073 5
  17663736.237   -24276829.534 6 -18528630.918 6
  16499583.878    -4376666.131 7   -167462.451 8
  19269617.612    -9737032.311 3
  15878371.511   -40912446.833 7 -30366142.116 8
  15394841.050   -35224352.052 7 -27269752.247 9
 95  2 19 22  5 29.9830000  0  7  7 18 31  2 16 19 27
  18480485.089    -6341146.811 5  -4828073.542 5
  17882122.612   -33134277.514 6 -24380994.617 5
  17671387.253   -24236613.622 6 -18497293.875 6
  16486050.464    -4447790.727 7   -222884.181 8
  19269630.097    -9736981.716 3
  15877350.534   -40917821.513 7 -30370330.192 8
  15381367.120   -35295152.988 7 -27324921.806 9
 95  2 19 22  5 59.9830000  0  7  7 18 31  2 16 19 27
  18453404.659    -6483457.694 5  -4938964.991 3
  17895166.480   -33065735.702 6 -24327585.477 5
  17679118.573   -24195988.383 6 -18465637.871 6
  16472566.839    -4518664.758 7   -278110.673 8
  19269704.112    -9736561.050 3
  15876385.011   -40922894.525 7 -30374283.201 8
  15367943.831   -35365686.827 7 -27379883.215 9
 95  2 19 22  6 29.9830000  0  7  7 18 31  2 16 19 27
  18426350.448    -6625639.192 5  -5049755.644 4
  17908243.159   -32997019.196 6 -24274040.191 5
  17686925.816   -24154952.724 6 -18433662.069 6
  16459129.237    -4589282.426 7   -333137.408 8
  19269862.097    -9735759.482 3        -0.15113
  15875473.245   -40927677.017 7 -30378009.833 8
  15354572.753   -35435941.367 7 -27434626.999 9
 95  2 19 22  6 59.9830000  0  7  7 18 31  2 16 19 27
  18399316.206    -6767686.032 5  -5160441.359 4
  17921352.519   -32928127.491 5 -24220358.415 5
  17694817.605   -24113504.242 6 -18401364.587 6
  16445734.081    -4659654.530 7   -387972.784 8
  19270085.269    -9734568.797 4       927.597 2
  15874619.011   -40932176.279 7 -30381515.770 8
  15341260.511   -35505914.334 7 -27489151.373 9
 95  2 19 22  7 29.9830000  0  7  7 18 31  2 16 19 27
  18372314.636    -6909600.659 5  -5271024.058 4
  17934498.894   -32859037.289 5 -24166521.963 5
  17702782.417   -24071631.969 6 -18368736.885 6
  16432388.362    -4729796.091 7   -442628.523 8
  19270390.597    -9732985.246 4      2161.499 4
  15873818.870   -40936381.714 7 -30384792.746 8
  15327999.737   -35575599.876 7 -27543451.787 9
 95  2 19 22  7 59.9830000  0  7  7 18 31  2 16 19 27
  18345331.659    -7051393.664 5  -5381511.978 3
  17947682.753   -32789758.848 5 -24112538.803 5
  17710832.198   -24029337.691 6 -18335780.345 6
  16419085.081    -4799713.509 7   -497109.609 8
  19270761.894    -9731032.436 4      3683.095 2
  15873072.956   -40940296.996 7 -30387843.627 8
  15314790.870   -35644997.306 7 -27597527.686 9
 95  2 19 22  8 29.9830000  0  7  7 18 31  2 16 19 27
  18318373.355    -7193052.034 5  -5491894.993 5
  17960903.441   -32720293.188 5 -24058409.787 5
  17718961.964   -23986613.608 6 -18302488.894 6
  16405822.362    -4869387.484 7   -551400.993 8
  19271196.901    -9728717.224 4      5487.116 3
  15872384.730   -40943913.140 7 -30390661.411 8
  15301644.816   -35714098.038 7 -27651372.397 9
 95  2 19 22  8 59.9830000  0  7  7 18 31  2 16 19 27
  18291443.222    -7334577.371 5  -5602174.350 4
  17974157.769   -32650636.722 6 -24004132.087 5
  17727172.355   -23943472.905 6 -18268872.810 6
  16392611.917    -4938830.129 7   -605512.116 8
  19271707.042    -9726050.987 4      7564.662 2
  15871755.128   -40947226.037 7 -30393242.900 8
  15288547.722   -35782918.257 7 -27704998.532 9
 95  2 19 22  9 29.9830000  0  7  7 18 31  2 16 19 27
  18264536.855    -7475961.617 5  -5712343.756 5
  17987447.245   -32580795.781 6 -23949710.635 5
  17735463.144   -23899907.010 6 -18234925.410 6
  16379442.308    -5008028.418 7   -659432.840 8
  19272280.659    -9723022.448 3      9924.491 1
  15871186.128   -40950216.912 7 -30395573.470 8
  15275507.628   -35851439.469 7 -27758391.665 9
 95  2 19 22  9 59.9820000  0  7  7 18 31  2 16 19 27
  18237658.506    -7617197.433 5  -5822397.496 5
  18000766.772   -32510804.142 5 -23895171.753 5
  17743829.553   -23855934.984 6 -18200661.531 6
  16366319.279    -5076983.579 7   -713164.112 8
  19272928.358    -9719641.789 4     12558.723 4
  15870673.850   -40952904.273 7 -30397667.525 8
  15262525.639   -35919665.352 7 -27811554.666 9
 95  2 19 22 10 29.9820000  0  7  7 18 31  2 16 19 27
  18210813.483    -7758291.298 5  -5932340.629 4
  18014116.069   -32440650.266 5 -23840506.465 5
  17752275.194   -23811563.812 6 -18166086.641 6
  16353243.865    -5145702.715 7   -766711.463 8
  19273638.490    -9715898.242 4     15475.722 2
  15870223.342   -40955282.560 7 -30399520.740 8
  15249600.358   -35987585.947 7 -27864479.782 9
 95  2 19 22 10 59.9820000  0  7  7 18 31  2 16 19 27
  18183990.615    -7899230.868 5  -6042163.530 4
  18027501.600   -32370321.283 5 -23785704.721 5
  17760790.233   -23766797.845 6 -18131204.112 6
  16340212.826    -5214186.315 7   -820075.281 8
  19274422.842    -9711785.637 3     18680.299 3
  15869830.248   -40957343.414 7 -30401126.614 8
  15236738.787   -36055174.102 7 -27917145.860 9
 95  2 19 22 11 29.9820000  0  7  7 18 31  2 16 19 27
  18157195.803    -8040044.170 5  -6151888.040 5
  18040914.233   -32299833.573 5 -23730779.290 5
  17769383.240   -23721651.512 6 -18096025.200 5
  16327221.740    -5282443.639 7   -873262.779 8
  19275267.217    -9707327.074 3     22154.473 2
  15869490.686   -40959126.672 7 -30402516.174 8
  15223937.139   -36122450.123 7 -27969568.715 9
 95  2 19 22 11 59.9820000  0  7  7 18 31  2 16 19 27
  18130428.592    -8180708.672 5  -6261496.591 5
  18054361.889   -32229157.047 5 -23675706.737 5
  17778049.264   -23676111.053 6 -18060539.167 5
  16314281.365    -5350458.558 7   -926261.396 8
  19276184.264    -9702510.428 3     25907.640 1
  15869204.123   -40960629.139 7 -30403686.933 8
  15211197.053   -36189395.464 7 -28021733.897 9
 95  2 19 22 12 29.9820000  0  7  7 18 31  2 16 19 27
  18103686.436    -8321236.404 5  -6370998.584 5
  18067848.037   -32158297.878 5 -23620491.862 5
  17786786.975   -23630185.513 6 -18024753.069 6
  16301380.826    -5418253.551 7   -979088.633 8
  19277170.295    -9697343.838 3     29933.483 1
  15868970.498   -40961856.251 7 -30404643.124 8
  15198514.772   -36256033.018 7 -28073659.250 9
 95  2 19 22 12 59.9820000  0  7  7 18 31  2 16 19 27
  18076974.217    -8461609.376 5  -6480379.961 4
  18081365.967   -32087252.852 5 -23565132.168 5
  17795603.592   -23583852.105 6 -17988649.143 5
  16288519.803    -5485819.854 7  -1031737.678 8
  19278219.068    -9691819.170 3     34238.365 1
  15868789.756   -40962805.001 7 -30405382.415 8
  15185892.193   -36322380.507 7 -28125358.573 9
 95  2 19 22 13 29.9820000  0  7  7 18 31  2 16 19 27
  18050290.131    -8601827.752 5  -6589640.901 5
  18094922.061   -32016027.753 5 -23509632.150 5
  17804500.881   -23537101.442 6 -17952220.099 5
  16275705.381    -5553153.852 7  -1084205.709 8
  19279334.701    -9685941.326 3     38818.436 1
  15868662.303   -40963472.286 7 -30405902.375 8
  15173322.162   -36388448.033 7 -28176839.747 9
 95  2 19 22 13 59.9820000  0  7  7 18 31  2 16 19 27
  18023640.264    -8741888.653 5  -6698779.122 5
  18108497.608   -31944650.204 5 -23454013.354 5
  17813472.139   -23489951.428 6 -17915479.873 5
  16262934.537    -5620272.245 7  -1136505.735 8
  19280519.326    -9679729.136 3     43659.047 1
  15868592.373   -40963837.496 7
  15160799.279   -36454247.345 7 -28228111.916 9
 95  2 19 22 14 29.9820000  0  7  7 18 31  2 16 19 27
  17997015.967    -8881783.512 5  -6807787.984 5
  18122112.311   -31873132.391 5 -23398285.256 5
  17822523.186   -23442397.857 6 -17878425.186 5
  16250208.420    -5687154.138 7  -1188621.470 8
  19281769.436    -9673181.151 3     48761.283 1
  15868587.068   -40963875.494 7
  15148329.178   -36519774.357 7 -28279171.919 9
 95  2 19 22 14 59.9820000  0  7  7 18 31  2 16 19 27
  17970426.147    -9021515.135 5  -6916669.632 5
  18135744.912   -31801487.582 5 -23342458.209 5
  17831649.451   -23394453.067 6 -17841065.652 5
  16237529.092    -5753793.739 7  -1240548.411 8
  19283080.100    -9666310.166 3     54115.258 2
  15868641.623   -40963587.640 7
  15135911.068   -36585020.413 7 -28330012.983 9
 95  2 19 22 15 29.9820000  0  7  7 18 31  2 16 19 27
  17943870.881    -9161077.904 5  -7025419.724 5
  18149402.365   -31729716.529 5 -23286532.771 5
  17840840.256   -23346133.663 6 -17803414.213 5
  16224894.483    -5820189.899 7  -1292285.659 8
  19284439.100    -9659119.077 2
  15868763.108   -40962957.267 7 -30405501.063 8
  15123553.967   -36649955.961 7 -28380612.097 9
 95  2 19 22 15 59.9820000  0  7  7 18 31  2 16 19 27
  17917346.029    -9300449.808 5  -7134021.083 5
  18163084.311   -31657814.303 5 -23230505.149 5
  17850108.061   -23297450.826 6 -17765479.572 5
  16212309.139    -5886338.770 7  -1343830.221 8
  19285874.639    -9651594.323 3
  15868948.686   -40961975.308 7 -30404735.907 8
  15111260.475   -36714561.425 7 -28430954.005 9
 95  2 19 22 16 29.9820000  0  7  7 18 31  2 16 19 27
  17890860.279    -9439633.693 5  -7242475.927 5
  18176793.334   -31585771.395 5 -23174367.878 5
  17859436.631   -23248407.478 6 -17727264.026 5
  16199760.897    -5952255.276 7  -1395193.708 8
  19287369.365    -9643744.206 3        -0.07211
  15869196.412   -40960667.969 7 -30403717.206 8
  15099032.412   -36778825.507 7 -28481029.897 9
 95  2 19 22 16 59.9820000  0  7  7 18 31  2 16 19 27
  17864408.068    -9578634.876 5  -7350788.403 5
  18190531.990   -31513578.477 5 -23118113.722 5
  17868837.068   -23199022.572 6 -17688782.320 5
  16187254.897    -6017970.552 7  -1446400.401 8
  19288921.975    -9635581.151 3      6360.685 1
  15869502.772   -40959055.847 7 -30402461.013 8
  15086868.389   -36842754.025 7 -28530844.310 9
 95  2 19 22 17 29.9820000  0  7  7 18 31  2 16 19 27
  17837994.303    -9717442.680 5  -7458950.229 5
  18204299.865   -31441226.178 5 -23061735.378 5
  17878298.623   -23149291.957 5 -17650031.233 5
  16174789.686    -6083481.886 7  -1497448.173 8
  19290536.850    -9627100.084 3     12969.268 1
  15869867.623   -40957135.508 7 -30400964.647 8
  15074769.514   -36906338.432 7 -28580390.587 9
 95  2 19 22 17 59.9820000  0  7  7 18 31  2 16 19 27
  17811615.795    -9856063.469 5  -7566966.287 5
  18218097.975   -31368719.762 5 -23005236.948 5
  17887828.686   -23099208.160 6 -17611004.936 5
  16162365.928    -6148777.706 7  -1548328.013 8
  19292206.233    -9618297.205 3     19828.662 1
  15870290.733   -40954923.593 7 -30399241.085 8
  15062729.318   -36969587.739 7 -28629675.744 8
 95  2 19 22 18 29.9820000  0  7  7 18 31  2 16 19 27
  17785272.998    -9994498.004 5  -7674837.236 5
  18231925.670   -31296056.177 5 -22948616.040 3
  17897428.170   -23048762.074 6 -17571696.343 5
  16149982.600    -6213841.739 7  -1599027.237 8
  19293955.397    -9609156.852 3     26950.968 1
  15870768.787   -40952416.735 7 -30397287.702 8
  15050760.670   -37032499.837 7 -28678698.143 9
 95  2 19 22 18 59.9820000  0  7  7 18 31  2 16 19 27
  17758966.639   -10132761.793 5  -7782575.140 5
  18245775.928   -31223273.195 5 -22891902.091 5
  17907092.725   -22997988.315 6 -17532132.421 5
  16137646.990    -6278672.645 7  -1649544.805 8
  19295755.717    -9599684.938 3     34331.585 1
  15871298.233   -40949622.525 7 -30395110.405 8
  15038849.733   -37095090.611 7 -28727470.161 9
 95  2 19 22 19 29.9820000  0  7  7 18 31  2 16 19 27
  17732682.225   -10270860.361 5  -7890184.284 5
  18259643.920   -31150394.926 5 -22835113.900 4
  17916818.498   -22946887.642 6 -17492313.743 5
  16125357.233    -6343256.057 7  -1699869.516 8
  19297614.615    -9589888.910 3     41964.790 1
  15871884.678   -40946543.127 7 -30392710.885 8
  15026999.686   -37157359.733 7 -28775991.540 9
 95  2 19 22 19 59.9820000  0  7  7 18 31  2 16 19 27
  17706435.514   -10408794.223 5  -7997665.114 5
  18273527.201   -31077423.200 5 -22778252.898 4
  17926604.068   -22895452.295 6 -17452234.290 5
  16113116.084    -6407583.780 7  -1749994.997 8
  19299546.592    -9579770.499 3     49849.164 1
  15872526.686   -40943171.772 7 -30390083.869 8
  15015210.420   -37219308.546 7 -28824263.330 9
 95  2 19 22 20 29.9820000  0  7  7 18 31  2 16 19 27
  17680220.553   -10546555.830 5  -8105011.705 5
  18287434.654   -31004352.156 5 -22721314.481 4
  17936456.904   -22843669.827 6 -17411884.363 5
  16100919.779    -6471661.041 7  -1799925.306 8
  19301531.826    -9569341.342 3     57975.732 1
  15873225.834   -40939492.965 7 -30387217.276 8
  15003487.170   -37280930.671 7 -28872280.562 9
 95  2 19 22 20 59.9820000  0  7  7 18 31  2 16 19 27
  17654034.459   -10684157.395 5  -8212233.605 5
  18301363.420   -30931185.252 5 -22664301.369 4
  17946378.576   -22791538.045 6 -17371262.237 5
  16088774.920    -6535504.558 7  -1849673.484 8
  19303569.084    -9558642.070 3     66312.753 1
  15873984.279   -40935508.678 7 -30384112.659 8
  14991816.764   -37342242.786 7 -28920056.225 9
 95  2 19 22 21 29.9820000  0  8  7 18 31  2 16 15 19 27
  17627884.365   -10821578.012 5  -8319314.512 5
  18315309.264   -30857883.706 5 -22607183.375 4
  17956374.279   -22739005.786 5 -17330328.045 5
  16076669.506    -6599108.356 7  -1899234.857 8
  19305655.342    -9547663.034 3     74867.793 2
  19394821.600     -102443.397 3
  15874804.897   -40931201.002 7 -30380756.042 7
  14980211.639   -37403234.524 7 -28967582.246 9
 95  2 19 22 21 59.9820000  0  8  7 18 31  2 16 15 19 27
  17601774.897   -10958802.880 5  -8426242.894 5
  18329283.006   -30784443.169 5 -22549957.064 3
  17966447.686   -22686068.656 5 -17289078.382 5
  16064610.053    -6662477.671 7  -1948613.520 8
  19307794.240    -9536402.427 4     83642.193 1
  19375370.873     -204700.781 3        -0.12313
  15875684.740   -40926574.510 7 -30377151.004 8
  14968667.201   -37463908.017 7 -29014860.279 9
 95  2 19 22 22 29.9820000  0  8  7 18 31  2 16 15 19 27
  17575696.670   -11095821.642 5  -8533010.659 5
  18343283.662   -30710866.813 5 -22492624.926 2
  17976594.193   -22632753.054 5 -17247533.795 5
  16052594.850    -6725621.729 7  -1997816.653 8
  19309992.404    -9524869.589 4     92628.780 1
  19355951.358     -306775.820 3    -79538.973 4
  15876624.076   -40921640.113 7 -30373306.033 8
  14957182.170   -37524263.009 7 -29061890.136 9
 95  2 19 22 22 59.9820000  0  8  7 18 31  2 16 15 19 27
  17549667.693   -11232627.822 5  -8639612.776 5
  18357308.897   -30637174.622 5 -22435202.494 3
  17986805.045   -22579094.275 5 -17205721.804 5
  16040620.162    -6788553.552 7  -2046854.412 8
  19312238.764    -9513066.592 3    101825.863 2
  19336551.701     -408673.627 3   -158939.729 2
  15877617.647   -40916416.532 7 -30369235.729 8
  14945754.006   -37584308.903 7 -29108679.129 9
 95  2 19 22 23 29.9820000  0  8  7 18 31  2 16 15 19 27
  17523676.014   -11369194.425 5  -8746028.227 5
  18371354.326   -30563368.962 5 -22377691.712 5
  17997080.084   -22525102.747 5 -17163650.549 5
  16028686.428    -6851268.657 7  -2095723.304 8
  19314542.022    -9500959.348 3    111260.029 2
  19317197.381     -510378.324 3   -238189.983 3
  15878665.764   -40910904.555 7 -30364940.693 7
  14934389.936   -37644015.895 7 -29155204.051 9
 95  2 19 22 23 59.9820000  0  8  7 18 31  2 16 15 19 27
  17497736.147   -11505519.694 5  -8852255.613 5
  18385415.615   -30489460.497 5 -22320100.776 3
  18007410.967   -22470817.691 5 -17121350.567 5
  16016792.600    -6913764.793 7  -2144421.570 8
  19316899.272    -9488551.138 3    120928.664 2
  19297884.194     -611887.166 4   -317287.641 3
  15879770.467   -40905097.269 7 -30360415.555 7
  14923094.311   -37703378.997 7 -29201461.005 9
 95  2 19 22 24 29.9820000  0  8  7 18 31  2 16 15 19 27
  17471836.826   -11641610.817 5  -8958300.563 5
  18399503.623   -30415447.027 5 -22262428.027 4
  18017791.779   -22416253.153 5 -17078832.788 5
  16004939.537    -6976056.162 7  -2192960.283 8
  19319318.389    -9475840.249 3    130833.184 2
  19278608.740     -713190.968 4   -396225.566 2
  15880938.076   -40898980.266 7 -30355649.073 7
  14911865.061   -37762398.770 7 -29247450.423 9
 95  2 19 22 24 59.9820000  0  8  7 18 31  2 16 15 19 27
  17445977.217   -11777499.878 5  -9064188.044 5
  18413602.100   -30341353.287 5 -22204692.738 5
  18028225.561   -22361418.801 5 -17036104.775 5
  15993115.928    -7038179.306 7  -2241367.905 8
  19321798.740    -9462843.628 4    140960.335 4
  19259364.522     -814308.740 4   -475018.520 2
  15882154.029   -40892573.897 7 -30350657.116 7
  14900696.311   -37821100.963 7 -29293192.379 9
 95  2 19 22 25 29.9820000  0  8  7 18 31  2 16 15 19 27
  17420159.139   -11913183.453 5  -9169915.401 6
  18427720.717   -30267156.193 5 -22146876.908 4
  18038719.037   -22306284.766 5 -16993143.233 5
  15981331.483    -7100117.497 7  -2289631.410 8
  19324321.717    -9449551.610 3    151317.673 2
  19240160.826     -915219.743 4   -553650.353 2
  15883433.701   -40885851.900 7 -30345419.210 7
  14889586.561   -37879470.747 7 -29338675.320 9
 95  2 19 22 25 59.9820000  0  8  7 18 31  2 16 15 19 27
  17394376.092   -12048669.799 5  -9275489.078 5
  18441858.748   -30192866.543 5 -22088988.950 4
  18049266.600   -22250842.872 5 -16949941.815 5
  15969580.381    -7161862.119 7  -2337744.087 8
  19326908.147    -9435982.928 3    161890.598 2
  19221002.584    -1015922.767 4   -632120.117 2
  15884775.068   -40878813.873 7 -30339935.048 7
  14878537.404   -37937532.521 7 -29383918.246 9
 95  2 19 22 26 29.9820000  0  8  7 18 31  2 16 15 19 27
  17368630.944   -12183959.983 6  -9380909.893 6
  18456010.733   -30118507.911 5 -22031047.251 4
  18059880.693   -22195083.358 5 -16906492.918 5
  15957868.686    -7223417.096 7  -2385708.985 8
  19329532.787    -9422146.952 3    172671.821 3
  19201870.889    -1116424.957 3   -710433.388 3
  15886169.740   -40871481.302 7 -30334221.373 7
  14867547.608   -37995290.238 7 -29428924.251 9
 95  2 19 22 26 59.9820000  0  8  7 18 31  2 16 15 19 27
  17342927.014   -12319046.182 6  -9486171.763 6
  18470169.045   -30044082.911 5 -21973053.829 2
  18070553.514   -22138995.990 5 -16862788.531 5
  15946196.123    -7284749.888 7  -2433500.758 8
  19332226.209    -9408038.764 3    183665.133 2
  19182791.209    -1216715.989 4   -788582.123 3
  15887619.014   -40863851.856 7 -30328276.363 7
  14856618.662   -38052716.420 7 -29473671.909 9
 95  2 19 22 27 29.9820000  0  8  7 18 31  2 16 15 19 27
  17317257.904   -12453923.086 5  -9591270.558 6
  18484343.303   -29969602.515 5 -21915017.241 3
  18081287.428   -22082594.344 5 -16818839.263 5
  15934572.115    -7345841.036 7  -2481104.234 8
  19334960.451    -9393668.463 3    194862.714 3
  19163743.865    -1316795.516 4   -866566.074 2
  15889127.678   -40855925.017 7 -30322099.615 7
  14845756.826   -38109798.427 7 -29518151.382 9
 95  2 19 22 27 59.9820000  0  8  7 18 31  2 16 15 19 27
  17291637.139   -12588571.247 6  -9696191.109 5
  18498529.678   -29895060.846 5 -21856932.919 2
  18092075.764   -22025886.392 5 -16774651.299 5
  15922993.951    -7406666.516 7  -2528500.702 8
  19337740.209    -9379033.602 2    206266.403 2
  19144742.100    -1416650.077 4   -944374.699 2
  15890696.615   -40847690.807 7 -30315683.350 7
  14834968.912   -38166506.558 7 -29562339.521 9
